Wetterdaten: Sonntag, 17.03.2019
Datum Zeit Temp. A. Feuchte A. Luftdruck Regen Wind Richtung Richtung Sonnenschein ET UV Solar Taupunkt Windchill Windböen
17.03.2019 00:00 3,6 °C 66 % 1008,4 hPa 0,0 mm 4,8 km/h (1 Bft) S 184 ° 0 min 0,000 mm 0,0 UV-I 0 W/m² -2,1 °C 2,6 °C 6,4 km/h (2 Bft)
17.03.2019 00:01 3,7 °C 65 % 1008,4 hPa 0,0 mm 2,7 km/h (1 Bft) S 184 ° 0 min 0,000 mm 0,0 UV-I 0 W/m² -2,3 °C 3,7 °C 4,8 km/h (1 Bft)
17.03.2019 00:02 3,8 °C 64 % 1008,4 hPa 0,0 mm 0,7 km/h (0 Bft) S 184 ° 0 min 0,000 mm 0,0 UV-I 0 W/m² -2,4 °C 3,8 °C 3,2 km/h (1 Bft)
17.03.2019 00:03 3,6 °C 66 % 1008,4 hPa 0,0 mm 3,0 km/h (1 Bft) S 184 ° 0 min 0,000 mm 0,0 UV-I 0 W/m² -2,1 °C 3,6 °C 4,8 km/h (1 Bft)
17.03.2019 00:04 3,3 °C 66 % 1008,4 hPa 0,0 mm 3,2 km/h (1 Bft) S 185 ° 0 min 0,000 mm 0,0 UV-I 0 W/m² -2,4 °C 3,3 °C 4,8 km/h (1 Bft)
17.03.2019 00:05 2,9 °C 67 % 1008,4 hPa 0,0 mm 1,5 km/h (1 Bft) W-SW 243 ° 0 min 0,000 mm 0,0 UV-I 0 W/m² -2,6 °C 2,9 °C 3,2 km/h (1 Bft)
17.03.2019 00:06 2,7 °C 69 % 1008,4 hPa 0,0 mm 1,8 km/h (1 Bft) W-SW 242 ° 0 min 0,000 mm 0,0 UV-I 0 W/m² -2,4 °C 2,7 °C 3,2 km/h (1 Bft)
17.03.2019 00:07 2,5 °C 69 % 1008,4 hPa 0,0 mm 2,0 km/h (1 Bft) W-SW 242 ° 0 min 0,000 mm 0,0 UV-I 0 W/m² -2,6 °C 2,5 °C 3,2 km/h (1 Bft)
17.03.2019 00:08 2,4 °C 69 % 1008,3 hPa 0,0 mm 1,9 km/h (1 Bft) W-SW 242 ° 0 min 0,000 mm 0,0 UV-I 0 W/m² -2,7 °C 2,4 °C 3,2 km/h (1 Bft)
17.03.2019 00:09 2,6 °C 69 % 1008,3 hPa 0,0 mm 1,2 km/h (1 Bft) W-SW 241 ° 0 min 0,000 mm 0,0 UV-I 0 W/m² -2,5 °C 2,6 °C 3,2 km/h (1 Bft)
17.03.2019 00:10 2,7 °C 68 % 1008,3 hPa 0,0 mm 0,0 km/h (0 Bft) W-SW 242 ° 0 min 0,000 mm 0,0 UV-I 0 W/m² -2,6 °C 2,7 °C 0,0 km/h (0 Bft)
17.03.2019 00:11 2,7 °C 68 % 1008,3 hPa 0,0 mm 0,0 km/h (0 Bft) W-SW 242 ° 0 min 0,000 mm 0,0 UV-I 0 W/m² -2,6 °C 2,7 °C 0,0 km/h (0 Bft)
17.03.2019 00:12 2,6 °C 68 % 1008,4 hPa 0,0 mm 0,0 km/h (0 Bft) W-SW 242 ° 0 min 0,000 mm 0,0 UV-I 0 W/m² -2,7 °C 2,6 °C 0,0 km/h (0 Bft)
17.03.2019 00:13 2,6 °C 69 % 1008,4 hPa 0,0 mm 0,0 km/h (0 Bft) W-SW 242 ° 0 min 0,000 mm 0,0 UV-I 0 W/m² -2,5 °C 2,6 °C 0,0 km/h (0 Bft)
17.03.2019 00:14 2,6 °C 68 % 1008,4 hPa 0,0 mm 0,0 km/h (0 Bft) W-SW 242 ° 0 min 0,000 mm 0,0 UV-I 0 W/m² -2,7 °C 2,6 °C 0,0 km/h (0 Bft)
17.03.2019 00:15 2,6 °C 68 % 1008,4 hPa 0,0 mm 0,0 km/h (0 Bft) W-SW 242 ° 0 min 0,000 mm 0,0 UV-I 0 W/m² -2,7 °C 2,6 °C 0,0 km/h (0 Bft)
17.03.2019 00:16 2,7 °C 68 % 1008,4 hPa 0,0 mm 0,0 km/h (0 Bft) W-SW 242 ° 0 min 0,000 mm 0,0 UV-I 0 W/m² -2,6 °C 2,7 °C 0,0 km/h (0 Bft)
17.03.2019 00:17 2,8 °C 67 % 1008,4 hPa 0,0 mm 2,1 km/h (1 Bft) S-SW 198 ° 0 min 0,000 mm 0,0 UV-I 0 W/m² -2,7 °C 2,8 °C 6,4 km/h (2 Bft)
17.03.2019 00:18 3,0 °C 65 % 1008,4 hPa 0,0 mm 0,3 km/h (0 Bft) S-SW 198 ° 0 min 0,000 mm 0,0 UV-I 0 W/m² -2,9 °C 3,0 °C 1,6 km/h (1 Bft)
17.03.2019 00:19 3,1 °C 66 % 1008,4 hPa 0,0 mm 0,0 km/h (0 Bft) S-SW 198 ° 0 min 0,000 mm 0,0 UV-I 0 W/m² -2,6 °C 3,1 °C 0,0 km/h (0 Bft)
17.03.2019 00:20 3,2 °C 66 % 1008,4 hPa 0,0 mm 0,0 km/h (0 Bft) S-SW 198 ° 0 min 0,000 mm 0,0 UV-I 0 W/m² -2,5 °C 3,2 °C 0,0 km/h (0 Bft)
17.03.2019 00:21 3,2 °C 65 % 1008,4 hPa 0,0 mm 0,7 km/h (0 Bft) S-SW 198 ° 0 min 0,000 mm 0,0 UV-I 0 W/m² -2,7 °C 3,2 °C 1,6 km/h (1 Bft)
17.03.2019 00:22 3,2 °C 65 % 1008,3 hPa 0,0 mm 0,8 km/h (0 Bft) S-SW 198 ° 0 min 0,000 mm 0,0 UV-I 0 W/m² -2,7 °C 3,2 °C 1,6 km/h (1 Bft)
17.03.2019 00:23 3,1 °C 66 % 1008,3 hPa 0,0 mm 0,4 km/h (0 Bft) S-SW 198 ° 0 min 0,000 mm 0,0 UV-I 0 W/m² -2,6 °C 3,1 °C 3,2 km/h (1 Bft)
17.03.2019 00:24 2,9 °C 67 % 1008,3 hPa 0,0 mm 1,5 km/h (1 Bft) S-SW 198 ° 0 min 0,000 mm 0,0 UV-I 0 W/m² -2,6 °C 2,9 °C 3,2 km/h (1 Bft)
17.03.2019 00:25 2,8 °C 67 % 1008,3 hPa 0,0 mm 1,0 km/h (0 Bft) S-SW 198 ° 0 min 0,000 mm 0,0 UV-I 0 W/m² -2,7 °C 2,8 °C 3,2 km/h (1 Bft)
17.03.2019 00:26 2,7 °C 68 % 1008,3 hPa 0,0 mm 2,2 km/h (1 Bft) S-SW 194 ° 0 min 0,000 mm 0,0 UV-I 0 W/m² -2,6 °C 2,7 °C 8,0 km/h (2 Bft)
17.03.2019 00:27 2,7 °C 66 % 1008,3 hPa 0,0 mm 2,4 km/h (1 Bft) S-SW 207 ° 0 min 0,000 mm 0,0 UV-I 0 W/m² -3,0 °C 2,7 °C 4,8 km/h (1 Bft)
17.03.2019 00:28 3,0 °C 65 % 1008,3 hPa 0,0 mm 4,8 km/h (1 Bft) SW 214 ° 0 min 0,000 mm 0,0 UV-I 0 W/m² -2,9 °C 1,9 °C 9,7 km/h (2 Bft)
17.03.2019 00:29 3,6 °C 61 % 1008,3 hPa 0,0 mm 9,0 km/h (2 Bft) W-SW 257 ° 0 min 0,000 mm 0,0 UV-I 0 W/m² -3,2 °C 1,2 °C 14,5 km/h (3 Bft)
17.03.2019 00:30 4,0 °C 58 % 1008,2 hPa 0,0 mm 1,7 km/h (1 Bft) W-SW 257 ° 0 min 0,000 mm 0,0 UV-I 0 W/m² -3,5 °C 4,0 °C 3,2 km/h (1 Bft)
17.03.2019 00:31 4,5 °C 54 % 1008,2 hPa 0,0 mm 0,7 km/h (0 Bft) O 80 ° 0 min 0,000 mm 0,0 UV-I 0 W/m² -4,0 °C 4,5 °C 3,2 km/h (1 Bft)
17.03.2019 00:32 4,5 °C 59 % 1008,2 hPa 0,0 mm 2,0 km/h (1 Bft) NO 46 ° 0 min 0,000 mm 0,0 UV-I 0 W/m² -2,8 °C 4,5 °C 4,8 km/h (1 Bft)
17.03.2019 00:33 4,1 °C 60 % 1008,1 hPa 0,0 mm 1,6 km/h (1 Bft) NO 46 ° 0 min 0,000 mm 0,0 UV-I 0 W/m² -3,0 °C 4,1 °C 3,2 km/h (1 Bft)
17.03.2019 00:34 3,8 °C 61 % 1008,1 hPa 0,0 mm 2,7 km/h (1 Bft) W 275 ° 0 min 0,000 mm 0,0 UV-I 0 W/m² -3,0 °C 3,8 °C 6,4 km/h (2 Bft)
17.03.2019 00:35 3,7 °C 62 % 1008,1 hPa 0,0 mm 2,5 km/h (1 Bft) S 179 ° 0 min 0,000 mm 0,0 UV-I 0 W/m² -2,9 °C 3,7 °C 6,4 km/h (2 Bft)
17.03.2019 00:36 4,2 °C 56 % 1008,2 hPa 0,0 mm 7,8 km/h (2 Bft) S-SW 198 ° 0 min 0,000 mm 0,0 UV-I 0 W/m² -3,8 °C 2,2 °C 12,9 km/h (3 Bft)
17.03.2019 00:37 4,8 °C 50 % 1008,2 hPa 0,0 mm 6,6 km/h (2 Bft) S-SW 196 ° 0 min 0,000 mm 0,0 UV-I 0 W/m² -4,7 °C 3,3 °C 14,5 km/h (3 Bft)
17.03.2019 00:38 5,4 °C 50 % 1008,2 hPa 0,0 mm 8,6 km/h (2 Bft) W-NW 303 ° 0 min 0,000 mm 0,0 UV-I 0 W/m² -4,2 °C 3,5 °C 12,9 km/h (3 Bft)
17.03.2019 00:39 5,9 °C 48 % 1008,2 hPa 0,0 mm 4,9 km/h (1 Bft) S 186 ° 0 min 0,000 mm 0,0 UV-I 0 W/m² -4,3 °C 5,1 °C 9,7 km/h (2 Bft)
17.03.2019 00:40 6,2 °C 46 % 1008,1 hPa 0,0 mm 3,8 km/h (1 Bft) W-NW 296 ° 0 min 0,000 mm 0,0 UV-I 0 W/m² -4,5 °C 6,2 °C 8,0 km/h (2 Bft)
17.03.2019 00:41 5,9 °C 49 % 1008,1 hPa 0,0 mm 2,7 km/h (1 Bft) S 186 ° 0 min 0,000 mm 0,0 UV-I 0 W/m² -4,0 °C 5,9 °C 4,8 km/h (1 Bft)
17.03.2019 00:42 5,8 °C 51 % 1008,1 hPa 0,0 mm 2,2 km/h (1 Bft) O 90 ° 0 min 0,000 mm 0,0 UV-I 0 W/m² -3,5 °C 5,8 °C 3,2 km/h (1 Bft)
17.03.2019 00:43 5,3 °C 55 % 1008,1 hPa 0,0 mm 1,5 km/h (1 Bft) O 90 ° 0 min 0,000 mm 0,0 UV-I 0 W/m² -3,0 °C 5,3 °C 3,2 km/h (1 Bft)
17.03.2019 00:44 5,1 °C 55 % 1008,1 hPa 0,0 mm 3,9 km/h (1 Bft) S-SW 198 ° 0 min 0,000 mm 0,0 UV-I 0 W/m² -3,2 °C 5,1 °C 8,0 km/h (2 Bft)
17.03.2019 00:45 4,9 °C 55 % 1008,1 hPa 0,0 mm 3,0 km/h (1 Bft) S-SW 206 ° 0 min 0,000 mm 0,0 UV-I 0 W/m² -3,4 °C 4,9 °C 4,8 km/h (1 Bft)
17.03.2019 00:46 5,0 °C 52 % 1008,1 hPa 0,0 mm 5,0 km/h (1 Bft) W-SW 253 ° 0 min 0,000 mm 0,0 UV-I 0 W/m² -4,0 °C 4,1 °C 8,0 km/h (2 Bft)
17.03.2019 00:47 5,2 °C 48 % 1008,1 hPa 0,0 mm 4,1 km/h (1 Bft) S-SW 192 ° 0 min 0,000 mm 0,0 UV-I 0 W/m² -4,9 °C 5,2 °C 8,0 km/h (2 Bft)
17.03.2019 00:48 5,6 °C 47 % 1008,1 hPa 0,0 mm 4,3 km/h (1 Bft) W-SW 249 ° 0 min 0,000 mm 0,0 UV-I 0 W/m² -4,8 °C 5,6 °C 8,0 km/h (2 Bft)
17.03.2019 00:49 5,9 °C 48 % 1008,1 hPa 0,0 mm 3,0 km/h (1 Bft) N-NW 340 ° 0 min 0,000 mm 0,0 UV-I 0 W/m² -4,3 °C 5,9 °C 4,8 km/h (1 Bft)
17.03.2019 00:50 5,5 °C 55 % 1008,1 hPa 0,0 mm 2,7 km/h (1 Bft) S-SW 211 ° 0 min 0,000 mm 0,0 UV-I 0 W/m² -2,8 °C 5,5 °C 4,8 km/h (1 Bft)
17.03.2019 00:51 4,9 °C 58 % 1008,1 hPa 0,0 mm 2,4 km/h (1 Bft) S 171 ° 0 min 0,000 mm 0,0 UV-I 0 W/m² -2,7 °C 4,9 °C 6,4 km/h (2 Bft)
17.03.2019 00:52 4,6 °C 57 % 1008,1 hPa 0,0 mm 5,7 km/h (1 Bft) S 172 ° 0 min 0,000 mm 0,0 UV-I 0 W/m² -3,2 °C 3,4 °C 11,3 km/h (2 Bft)
17.03.2019 00:53 4,2 °C 60 % 1008,1 hPa 0,0 mm 5,6 km/h (1 Bft) SW 226 ° 0 min 0,000 mm 0,0 UV-I 0 W/m² -2,9 °C 2,9 °C 11,3 km/h (2 Bft)
17.03.2019 00:54 3,9 °C 61 % 1008,1 hPa 0,0 mm 4,1 km/h (1 Bft) S-SO 167 ° 0 min 0,000 mm 0,0 UV-I 0 W/m² -2,9 °C 3,9 °C 8,0 km/h (2 Bft)
17.03.2019 00:55 3,6 °C 62 % 1008,1 hPa 0,0 mm 1,1 km/h (1 Bft) S-SO 167 ° 0 min 0,000 mm 0,0 UV-I 0 W/m² -3,0 °C 3,6 °C 4,8 km/h (1 Bft)
17.03.2019 00:56 3,5 °C 61 % 1008,0 hPa 0,0 mm 2,1 km/h (1 Bft) S-SW 212 ° 0 min 0,000 mm 0,0 UV-I 0 W/m² -3,3 °C 3,5 °C 8,0 km/h (2 Bft)
17.03.2019 00:57 3,5 °C 60 % 1008,1 hPa 0,0 mm 0,7 km/h (0 Bft) S-SW 213 ° 0 min 0,000 mm 0,0 UV-I 0 W/m² -3,5 °C 3,5 °C 1,6 km/h (1 Bft)
17.03.2019 00:58 3,3 °C 63 % 1008,1 hPa 0,0 mm 1,1 km/h (1 Bft) S-SO 165 ° 0 min 0,000 mm 0,0 UV-I 0 W/m² -3,1 °C 3,3 °C 3,2 km/h (1 Bft)
17.03.2019 00:59 3,0 °C 66 % 1008,1 hPa 0,0 mm 2,1 km/h (1 Bft) S-SO 165 ° 0 min 0,000 mm 0,0 UV-I 0 W/m² -2,7 °C 3,0 °C 3,2 km/h (1 Bft)
17.03.2019 01:00 2,8 °C 67 % 1008,0 hPa 0,0 mm 0,5 km/h (0 Bft) S-SO 165 ° 0 min 0,000 mm 0,0 UV-I 0 W/m² -2,7 °C 2,8 °C 1,6 km/h (1 Bft)
17.03.2019 01:01 2,6 °C 67 % 1008,1 hPa 0,0 mm 1,1 km/h (1 Bft) S-SO 165 ° 0 min 0,025 mm 0,0 UV-I 0 W/m² -2,9 °C 2,6 °C 3,2 km/h (1 Bft)
17.03.2019 01:02 2,6 °C 67 % 1008,0 hPa 0,0 mm 2,0 km/h (1 Bft) S-SO 165 ° 0 min 0,000 mm 0,0 UV-I 0 W/m² -2,9 °C 2,6 °C 3,2 km/h (1 Bft)
17.03.2019 01:03 2,4 °C 68 % 1008,0 hPa 0,0 mm 1,1 km/h (1 Bft) S-SO 165 ° 0 min 0,000 mm 0,0 UV-I 0 W/m² -2,9 °C 2,4 °C 3,2 km/h (1 Bft)
17.03.2019 01:04 2,3 °C 68 % 1008,0 hPa 0,0 mm 0,2 km/h (0 Bft) S-SO 165 ° 0 min 0,000 mm 0,0 UV-I 0 W/m² -3,0 °C 2,3 °C 1,6 km/h (1 Bft)
17.03.2019 01:05 2,2 °C 69 % 1008,0 hPa 0,0 mm 2,9 km/h (1 Bft) S-SO 165 ° 0 min 0,000 mm 0,0 UV-I 0 W/m² -2,9 °C 2,2 °C 6,4 km/h (2 Bft)
17.03.2019 01:06 2,2 °C 68 % 1008,0 hPa 0,0 mm 0,4 km/h (0 Bft) S-SO 165 ° 0 min 0,000 mm 0,0 UV-I 0 W/m² -3,1 °C 2,2 °C 1,6 km/h (1 Bft)
17.03.2019 01:07 2,3 °C 68 % 1008,0 hPa 0,0 mm 0,5 km/h (0 Bft) S-SO 165 ° 0 min 0,000 mm 0,0 UV-I 0 W/m² -3,0 °C 2,3 °C 1,6 km/h (1 Bft)
17.03.2019 01:08 2,2 °C 69 % 1008,0 hPa 0,0 mm 2,1 km/h (1 Bft) S-SO 164 ° 0 min 0,000 mm 0,0 UV-I 0 W/m² -2,9 °C 2,2 °C 3,2 km/h (1 Bft)
17.03.2019 01:09 2,1 °C 69 % 1008,0 hPa 0,0 mm 1,3 km/h (1 Bft) S-SO 164 ° 0 min 0,000 mm 0,0 UV-I 0 W/m² -3,0 °C 2,1 °C 3,2 km/h (1 Bft)
17.03.2019 01:10 2,0 °C 69 % 1008,0 hPa 0,0 mm 0,0 km/h (0 Bft) S-SO 164 ° 0 min 0,000 mm 0,0 UV-I 0 W/m² -3,1 °C 2,0 °C 0,0 km/h (0 Bft)
17.03.2019 01:11 1,9 °C 70 % 1008,0 hPa 0,0 mm 1,1 km/h (1 Bft) S-SO 164 ° 0 min 0,000 mm 0,0 UV-I 0 W/m² -3,0 °C 1,9 °C 3,2 km/h (1 Bft)
17.03.2019 01:12 1,9 °C 70 % 1008,0 hPa 0,0 mm 1,8 km/h (1 Bft) S-SO 164 ° 0 min 0,000 mm 0,0 UV-I 0 W/m² -3,0 °C 1,9 °C 3,2 km/h (1 Bft)
17.03.2019 01:13 1,8 °C 71 % 1008,0 hPa 0,0 mm 0,0 km/h (0 Bft) S-SO 164 ° 0 min 0,000 mm 0,0 UV-I 0 W/m² -2,9 °C 1,8 °C 0,0 km/h (0 Bft)
17.03.2019 01:14 1,8 °C 71 % 1008,0 hPa 0,0 mm 0,0 km/h (0 Bft) S-SO 164 ° 0 min 0,000 mm 0,0 UV-I 0 W/m² -2,9 °C 1,8 °C 0,0 km/h (0 Bft)
17.03.2019 01:15 1,8 °C 71 % 1008,0 hPa 0,0 mm 0,3 km/h (0 Bft) S-SO 164 ° 0 min 0,000 mm 0,0 UV-I 0 W/m² -2,9 °C 1,8 °C 1,6 km/h (1 Bft)
17.03.2019 01:16 1,8 °C 71 % 1008,0 hPa 0,0 mm 1,7 km/h (1 Bft) S-SO 164 ° 0 min 0,000 mm 0,0 UV-I 0 W/m² -2,9 °C 1,8 °C 3,2 km/h (1 Bft)
17.03.2019 01:17 1,8 °C 70 % 1008,1 hPa 0,0 mm 0,0 km/h (0 Bft) S-SO 164 ° 0 min 0,000 mm 0,0 UV-I 0 W/m² -3,1 °C 1,8 °C 0,0 km/h (0 Bft)
17.03.2019 01:18 1,7 °C 71 % 1008,1 hPa 0,0 mm 0,0 km/h (0 Bft) S-SO 164 ° 0 min 0,000 mm 0,0 UV-I 0 W/m² -3,0 °C 1,7 °C 0,0 km/h (0 Bft)
17.03.2019 01:19 1,7 °C 71 % 1008,1 hPa 0,0 mm 0,4 km/h (0 Bft) S-SO 164 ° 0 min 0,000 mm 0,0 UV-I 0 W/m² -3,0 °C 1,7 °C 1,6 km/h (1 Bft)
17.03.2019 01:20 1,6 °C 71 % 1008,1 hPa 0,0 mm 0,0 km/h (0 Bft) S-SO 164 ° 0 min 0,000 mm 0,0 UV-I 0 W/m² -3,1 °C 1,6 °C 0,0 km/h (0 Bft)
17.03.2019 01:21 1,5 °C 72 % 1008,1 hPa 0,0 mm 0,4 km/h (0 Bft) S-SO 164 ° 0 min 0,000 mm 0,0 UV-I 0 W/m² -3,0 °C 1,5 °C 1,6 km/h (1 Bft)
17.03.2019 01:22 1,6 °C 72 % 1008,1 hPa 0,0 mm 0,0 km/h (0 Bft) S-SO 164 ° 0 min 0,000 mm 0,0 UV-I 0 W/m² -2,9 °C 1,6 °C 0,0 km/h (0 Bft)
17.03.2019 01:23 1,6 °C 71 % 1008,1 hPa 0,0 mm 0,0 km/h (0 Bft) S-SO 164 ° 0 min 0,000 mm 0,0 UV-I 0 W/m² -3,1 °C 1,6 °C 0,0 km/h (0 Bft)
17.03.2019 01:24 1,7 °C 70 % 1008,1 hPa 0,0 mm 6,2 km/h (2 Bft) S-SW 208 ° 0 min 0,000 mm 0,0 UV-I 0 W/m² -3,2 °C -0,1 °C 11,3 km/h (2 Bft)
17.03.2019 01:25 1,9 °C 69 % 1008,1 hPa 0,0 mm 3,2 km/h (1 Bft) S-SW 213 ° 0 min 0,000 mm 0,0 UV-I 0 W/m² -3,2 °C 1,9 °C 4,8 km/h (1 Bft)
17.03.2019 01:26 2,1 °C 69 % 1008,1 hPa 0,0 mm 1,9 km/h (1 Bft) S-SW 213 ° 0 min 0,000 mm 0,0 UV-I 0 W/m² -3,0 °C 2,1 °C 3,2 km/h (1 Bft)
17.03.2019 01:27 2,1 °C 69 % 1008,1 hPa 0,0 mm 1,3 km/h (1 Bft) S-SW 213 ° 0 min 0,000 mm 0,0 UV-I 0 W/m² -3,0 °C 2,1 °C 3,2 km/h (1 Bft)
17.03.2019 01:28 2,1 °C 69 % 1008,1 hPa 0,0 mm 1,8 km/h (1 Bft) S-SW 213 ° 0 min 0,000 mm 0,0 UV-I 0 W/m² -3,0 °C 2,1 °C 3,2 km/h (1 Bft)
17.03.2019 01:29 2,0 °C 69 % 1008,1 hPa 0,0 mm 0,7 km/h (0 Bft) S-SW 213 ° 0 min 0,000 mm 0,0 UV-I 0 W/m² -3,1 °C 2,0 °C 1,6 km/h (1 Bft)
17.03.2019 01:30 1,9 °C 69 % 1008,1 hPa 0,0 mm 0,8 km/h (0 Bft) S-SW 213 ° 0 min 0,000 mm 0,0 UV-I 0 W/m² -3,2 °C 1,9 °C 3,2 km/h (1 Bft)
17.03.2019 01:31 1,9 °C 69 % 1008,1 hPa 0,0 mm 1,7 km/h (1 Bft) S-SW 213 ° 0 min 0,000 mm 0,0 UV-I 0 W/m² -3,2 °C 1,9 °C 3,2 km/h (1 Bft)
17.03.2019 01:32 2,1 °C 69 % 1008,1 hPa 0,0 mm 2,3 km/h (1 Bft) S-SW 213 ° 0 min 0,000 mm 0,0 UV-I 0 W/m² -3,0 °C 2,1 °C 4,8 km/h (1 Bft)
17.03.2019 01:33 2,2 °C 68 % 1008,1 hPa 0,0 mm 0,4 km/h (0 Bft) SW 217 ° 0 min 0,000 mm 0,0 UV-I 0 W/m² -3,1 °C 2,2 °C 3,2 km/h (1 Bft)
17.03.2019 01:34 2,2 °C 68 % 1008,1 hPa 0,0 mm 1,5 km/h (1 Bft) SW 215 ° 0 min 0,000 mm 0,0 UV-I 0 W/m² -3,1 °C 2,2 °C 3,2 km/h (1 Bft)
17.03.2019 01:35 2,2 °C 67 % 1008,0 hPa 0,0 mm 3,3 km/h (1 Bft) S 188 ° 0 min 0,000 mm 0,0 UV-I 0 W/m² -3,3 °C 2,2 °C 6,4 km/h (2 Bft)
17.03.2019 01:36 2,4 °C 66 % 1008,0 hPa 0,0 mm 2,6 km/h (1 Bft) S 188 ° 0 min 0,000 mm 0,0 UV-I 0 W/m² -3,3 °C 2,4 °C 3,2 km/h (1 Bft)
17.03.2019 01:37 2,6 °C 65 % 1008,0 hPa 0,0 mm 4,0 km/h (1 Bft) S-SW 195 ° 0 min 0,000 mm 0,0 UV-I 0 W/m² -3,3 °C 2,6 °C 6,4 km/h (2 Bft)
17.03.2019 01:38 2,7 °C 65 % 1008,0 hPa 0,0 mm 2,9 km/h (1 Bft) S-SW 195 ° 0 min 0,000 mm 0,0 UV-I 0 W/m² -3,2 °C 2,7 °C 4,8 km/h (1 Bft)
17.03.2019 01:39 2,8 °C 65 % 1007,9 hPa 0,0 mm 1,7 km/h (1 Bft) S-SW 195 ° 0 min 0,000 mm 0,0 UV-I 0 W/m² -3,1 °C 2,8 °C 4,8 km/h (1 Bft)
17.03.2019 01:40 2,7 °C 66 % 1007,9 hPa 0,0 mm 0,0 km/h (0 Bft) S-SW 195 ° 0 min 0,000 mm 0,0 UV-I 0 W/m² -3,0 °C 2,7 °C 0,0 km/h (0 Bft)
17.03.2019 01:41 2,4 °C 66 % 1008,0 hPa 0,0 mm 0,0 km/h (0 Bft) S-SW 195 ° 0 min 0,000 mm 0,0 UV-I 0 W/m² -3,3 °C 2,4 °C 0,0 km/h (0 Bft)
17.03.2019 01:42 2,0 °C 68 % 1007,9 hPa 0,0 mm 0,0 km/h (0 Bft) S-SW 195 ° 0 min 0,000 mm 0,0 UV-I 0 W/m² -3,3 °C 2,0 °C 0,0 km/h (0 Bft)
17.03.2019 01:43 1,8 °C 69 % 1007,9 hPa 0,0 mm 0,0 km/h (0 Bft) S-SW 195 ° 0 min 0,000 mm 0,0 UV-I 0 W/m² -3,3 °C 1,8 °C 0,0 km/h (0 Bft)
17.03.2019 01:44 1,5 °C 70 % 1007,9 hPa 0,0 mm 0,0 km/h (0 Bft) S-SW 195 ° 0 min 0,000 mm 0,0 UV-I 0 W/m² -3,4 °C 1,5 °C 0,0 km/h (0 Bft)
17.03.2019 01:45 1,3 °C 70 % 1008,0 hPa 0,0 mm 0,0 km/h (0 Bft) S-SW 195 ° 0 min 0,000 mm 0,0 UV-I 0 W/m² -3,6 °C 1,3 °C 0,0 km/h (0 Bft)
17.03.2019 01:46 1,2 °C 71 % 1007,9 hPa 0,0 mm 1,0 km/h (0 Bft) S-SW 194 ° 0 min 0,000 mm 0,0 UV-I 0 W/m² -3,5 °C 1,2 °C 3,2 km/h (1 Bft)
17.03.2019 01:47 1,3 °C 72 % 1007,9 hPa 0,0 mm 1,6 km/h (1 Bft) S-SW 194 ° 0 min 0,000 mm 0,0 UV-I 0 W/m² -3,2 °C 1,3 °C 3,2 km/h (1 Bft)
17.03.2019 01:48 1,6 °C 71 % 1007,9 hPa 0,0 mm 0,3 km/h (0 Bft) S-SW 194 ° 0 min 0,000 mm 0,0 UV-I 0 W/m² -3,1 °C 1,6 °C 1,6 km/h (1 Bft)
17.03.2019 01:49 1,6 °C 71 % 1007,9 hPa 0,0 mm 0,7 km/h (0 Bft) S-SW 194 ° 0 min 0,000 mm 0,0 UV-I 0 W/m² -3,1 °C 1,6 °C 1,6 km/h (1 Bft)
17.03.2019 01:50 1,6 °C 71 % 1007,9 hPa 0,0 mm 1,5 km/h (1 Bft) S-SW 200 ° 0 min 0,000 mm 0,0 UV-I 0 W/m² -3,1 °C 1,6 °C 3,2 km/h (1 Bft)
17.03.2019 01:51 1,4 °C 71 % 1007,9 hPa 0,0 mm 0,0 km/h (0 Bft) S-SW 200 ° 0 min 0,000 mm 0,0 UV-I 0 W/m² -3,3 °C 1,4 °C 0,0 km/h (0 Bft)
17.03.2019 01:52 1,4 °C 71 % 1007,9 hPa 0,0 mm 0,4 km/h (0 Bft) S-SW 200 ° 0 min 0,000 mm 0,0 UV-I 0 W/m² -3,3 °C 1,4 °C 1,6 km/h (1 Bft)
17.03.2019 01:53 1,3 °C 71 % 1007,9 hPa 0,0 mm 0,7 km/h (0 Bft) S-SW 200 ° 0 min 0,000 mm 0,0 UV-I 0 W/m² -3,4 °C 1,3 °C 3,2 km/h (1 Bft)
17.03.2019 01:54 1,3 °C 71 % 1007,8 hPa 0,0 mm 0,2 km/h (0 Bft) S-SW 200 ° 0 min 0,000 mm 0,0 UV-I 0 W/m² -3,4 °C 1,3 °C 1,6 km/h (1 Bft)
17.03.2019 01:55 1,3 °C 71 % 1007,9 hPa 0,0 mm 0,0 km/h (0 Bft) S-SW 200 ° 0 min 0,000 mm 0,0 UV-I 0 W/m² -3,4 °C 1,3 °C 0,0 km/h (0 Bft)
17.03.2019 01:56 1,2 °C 71 % 1007,8 hPa 0,0 mm 0,0 km/h (0 Bft) S-SW 200 ° 0 min 0,000 mm 0,0 UV-I 0 W/m² -3,5 °C 1,2 °C 0,0 km/h (0 Bft)
17.03.2019 01:57 1,2 °C 71 % 1007,8 hPa 0,0 mm 0,0 km/h (0 Bft) S-SW 200 ° 0 min 0,000 mm 0,0 UV-I 0 W/m² -3,5 °C 1,2 °C 0,0 km/h (0 Bft)
17.03.2019 01:58 1,2 °C 71 % 1007,8 hPa 0,0 mm 0,0 km/h (0 Bft) S-SW 200 ° 0 min 0,000 mm 0,0 UV-I 0 W/m² -3,5 °C 1,2 °C 0,0 km/h (0 Bft)
17.03.2019 01:59 1,2 °C 71 % 1007,8 hPa 0,0 mm 0,0 km/h (0 Bft) S-SW 200 ° 0 min 0,000 mm 0,0 UV-I 0 W/m² -3,5 °C 1,2 °C 0,0 km/h (0 Bft)
17.03.2019 02:00 1,3 °C 71 % 1007,8 hPa 0,0 mm 0,5 km/h (0 Bft) S-SW 200 ° 0 min 0,026 mm 0,0 UV-I 0 W/m² -3,4 °C 1,3 °C 3,2 km/h (1 Bft)
17.03.2019 02:01 1,3 °C 70 % 1007,8 hPa 0,0 mm 0,7 km/h (0 Bft) S-SW 200 ° 0 min 0,000 mm 0,0 UV-I 0 W/m² -3,6 °C 1,3 °C 3,2 km/h (1 Bft)
17.03.2019 02:02 1,3 °C 71 % 1007,8 hPa 0,0 mm 0,0 km/h (0 Bft) S-SW 200 ° 0 min 0,000 mm 0,0 UV-I 0 W/m² -3,4 °C 1,3 °C 0,0 km/h (0 Bft)
17.03.2019 02:03 1,3 °C 71 % 1007,7 hPa 0,0 mm 0,0 km/h (0 Bft) S-SW 200 ° 0 min 0,000 mm 0,0 UV-I 0 W/m² -3,4 °C 1,3 °C 0,0 km/h (0 Bft)
17.03.2019 02:04 1,2 °C 72 % 1007,7 hPa 0,0 mm 0,0 km/h (0 Bft) S-SW 200 ° 0 min 0,000 mm 0,0 UV-I 0 W/m² -3,3 °C 1,2 °C 0,0 km/h (0 Bft)
17.03.2019 02:05 1,2 °C 71 % 1007,7 hPa 0,0 mm 0,0 km/h (0 Bft) S-SW 200 ° 0 min 0,000 mm 0,0 UV-I 0 W/m² -3,5 °C 1,2 °C 0,0 km/h (0 Bft)
17.03.2019 02:06 1,2 °C 71 % 1007,7 hPa 0,0 mm 0,0 km/h (0 Bft) S-SW 200 ° 0 min 0,000 mm 0,0 UV-I 0 W/m² -3,5 °C 1,2 °C 0,0 km/h (0 Bft)
17.03.2019 02:07 1,1 °C 71 % 1007,7 hPa 0,0 mm 0,0 km/h (0 Bft) S-SW 200 ° 0 min 0,000 mm 0,0 UV-I 0 W/m² -3,6 °C 1,1 °C 0,0 km/h (0 Bft)
17.03.2019 02:08 1,1 °C 71 % 1007,7 hPa 0,0 mm 0,0 km/h (0 Bft) S-SW 200 ° 0 min 0,000 mm 0,0 UV-I 0 W/m² -3,6 °C 1,1 °C 0,0 km/h (0 Bft)
17.03.2019 02:09 1,2 °C 71 % 1007,7 hPa 0,0 mm 0,0 km/h (0 Bft) S-SW 200 ° 0 min 0,000 mm 0,0 UV-I 0 W/m² -3,5 °C 1,2 °C 0,0 km/h (0 Bft)
17.03.2019 02:10 1,2 °C 71 % 1007,7 hPa 0,0 mm 0,1 km/h (0 Bft) S-SW 200 ° 0 min 0,000 mm 0,0 UV-I 0 W/m² -3,5 °C 1,2 °C 1,6 km/h (1 Bft)
17.03.2019 02:11 1,3 °C 71 % 1007,7 hPa 0,0 mm 0,0 km/h (0 Bft) S-SW 200 ° 0 min 0,000 mm 0,0 UV-I 0 W/m² -3,4 °C 1,3 °C 0,0 km/h (0 Bft)
17.03.2019 02:12 1,3 °C 71 % 1007,7 hPa 0,0 mm 0,7 km/h (0 Bft) S-SW 200 ° 0 min 0,000 mm 0,0 UV-I 0 W/m² -3,4 °C 1,3 °C 3,2 km/h (1 Bft)
17.03.2019 02:13 1,2 °C 71 % 1007,7 hPa 0,0 mm 1,9 km/h (1 Bft) S-SW 200 ° 0 min 0,000 mm 0,0 UV-I 0 W/m² -3,5 °C 1,2 °C 3,2 km/h (1 Bft)
17.03.2019 02:14 1,2 °C 71 % 1007,7 hPa 0,0 mm 0,2 km/h (0 Bft) S-SW 200 ° 0 min 0,000 mm 0,0 UV-I 0 W/m² -3,5 °C 1,2 °C 1,6 km/h (1 Bft)
17.03.2019 02:15 1,2 °C 71 % 1007,6 hPa 0,0 mm 0,0 km/h (0 Bft) S-SW 200 ° 0 min 0,000 mm 0,0 UV-I 0 W/m² -3,5 °C 1,2 °C 0,0 km/h (0 Bft)
17.03.2019 02:16 1,2 °C 71 % 1007,6 hPa 0,0 mm 0,0 km/h (0 Bft) S-SW 200 ° 0 min 0,000 mm 0,0 UV-I 0 W/m² -3,5 °C 1,2 °C 0,0 km/h (0 Bft)
17.03.2019 02:17 1,2 °C 71 % 1007,6 hPa 0,0 mm 0,0 km/h (0 Bft) S-SW 200 ° 0 min 0,000 mm 0,0 UV-I 0 W/m² -3,5 °C 1,2 °C 0,0 km/h (0 Bft)
17.03.2019 02:18 1,2 °C 71 % 1007,6 hPa 0,0 mm 0,0 km/h (0 Bft) S-SW 200 ° 0 min 0,000 mm 0,0 UV-I 0 W/m² -3,5 °C 1,2 °C 0,0 km/h (0 Bft)
17.03.2019 02:19 1,2 °C 71 % 1007,6 hPa 0,0 mm 0,0 km/h (0 Bft) S-SW 200 ° 0 min 0,000 mm 0,0 UV-I 0 W/m² -3,5 °C 1,2 °C 0,0 km/h (0 Bft)
17.03.2019 02:20 1,1 °C 71 % 1007,6 hPa 0,0 mm 0,0 km/h (0 Bft) S-SW 200 ° 0 min 0,000 mm 0,0 UV-I 0 W/m² -3,6 °C 1,1 °C 0,0 km/h (0 Bft)
17.03.2019 02:21 1,0 °C 71 % 1007,6 hPa 0,0 mm 0,0 km/h (0 Bft) S-SW 200 ° 0 min 0,000 mm 0,0 UV-I 0 W/m² -3,7 °C 1,0 °C 0,0 km/h (0 Bft)
17.03.2019 02:22 1,0 °C 71 % 1007,6 hPa 0,0 mm 0,0 km/h (0 Bft) S-SW 200 ° 0 min 0,000 mm 0,0 UV-I 0 W/m² -3,7 °C 1,0 °C 0,0 km/h (0 Bft)
17.03.2019 02:23 0,9 °C 72 % 1007,6 hPa 0,0 mm 0,0 km/h (0 Bft) S-SW 200 ° 0 min 0,000 mm 0,0 UV-I 0 W/m² -3,6 °C 0,9 °C 0,0 km/h (0 Bft)
17.03.2019 02:24 0,9 °C 72 % 1007,6 hPa 0,0 mm 0,0 km/h (0 Bft) S-SW 200 ° 0 min 0,000 mm 0,0 UV-I 0 W/m² -3,6 °C 0,9 °C 0,0 km/h (0 Bft)
17.03.2019 02:25 0,9 °C 72 % 1007,6 hPa 0,0 mm 0,0 km/h (0 Bft) S-SW 200 ° 0 min 0,000 mm 0,0 UV-I 0 W/m² -3,6 °C 0,9 °C 0,0 km/h (0 Bft)
17.03.2019 02:26 0,9 °C 72 % 1007,6 hPa 0,0 mm 0,0 km/h (0 Bft) S-SW 200 ° 0 min 0,000 mm 0,0 UV-I 0 W/m² -3,6 °C 0,9 °C 0,0 km/h (0 Bft)
17.03.2019 02:27 0,9 °C 72 % 1007,6 hPa 0,0 mm 0,0 km/h (0 Bft) S-SW 200 ° 0 min 0,000 mm 0,0 UV-I 0 W/m² -3,6 °C 0,9 °C 0,0 km/h (0 Bft)
17.03.2019 02:28 0,9 °C 72 % 1007,6 hPa 0,0 mm 0,0 km/h (0 Bft) S-SW 200 ° 0 min 0,000 mm 0,0 UV-I 0 W/m² -3,6 °C 0,9 °C 0,0 km/h (0 Bft)
17.03.2019 02:29 0,9 °C 72 % 1007,7 hPa 0,0 mm 0,0 km/h (0 Bft) S-SW 200 ° 0 min 0,000 mm 0,0 UV-I 0 W/m² -3,6 °C 0,9 °C 0,0 km/h (0 Bft)
17.03.2019 02:30 0,9 °C 71 % 1007,6 hPa 0,0 mm 0,0 km/h (0 Bft) S-SW 200 ° 0 min 0,000 mm 0,0 UV-I 0 W/m² -3,7 °C 0,9 °C 0,0 km/h (0 Bft)
17.03.2019 02:31 0,9 °C 72 % 1007,6 hPa 0,0 mm 0,0 km/h (0 Bft) S-SW 200 ° 0 min 0,000 mm 0,0 UV-I 0 W/m² -3,6 °C 0,9 °C 0,0 km/h (0 Bft)
17.03.2019 02:32 0,9 °C 72 % 1007,6 hPa 0,0 mm 0,0 km/h (0 Bft) S-SW 200 ° 0 min 0,000 mm 0,0 UV-I 0 W/m² -3,6 °C 0,9 °C 0,0 km/h (0 Bft)
17.03.2019 02:33 1,1 °C 72 % 1007,6 hPa 0,0 mm 0,0 km/h (0 Bft) S-SW 200 ° 0 min 0,000 mm 0,0 UV-I 0 W/m² -3,4 °C 1,1 °C 0,0 km/h (0 Bft)
17.03.2019 02:34 1,0 °C 71 % 1007,7 hPa 0,0 mm 0,0 km/h (0 Bft) S-SW 200 ° 0 min 0,000 mm 0,0 UV-I 0 W/m² -3,7 °C 1,0 °C 0,0 km/h (0 Bft)
17.03.2019 02:35 0,9 °C 72 % 1007,7 hPa 0,0 mm 0,0 km/h (0 Bft) S-SW 200 ° 0 min 0,000 mm 0,0 UV-I 0 W/m² -3,6 °C 0,9 °C 0,0 km/h (0 Bft)
17.03.2019 02:36 0,9 °C 72 % 1007,6 hPa 0,0 mm 0,0 km/h (0 Bft) S-SW 200 ° 0 min 0,000 mm 0,0 UV-I 0 W/m² -3,6 °C 0,9 °C 0,0 km/h (0 Bft)
17.03.2019 02:37 1,0 °C 72 % 1007,6 hPa 0,0 mm 0,0 km/h (0 Bft) S-SW 200 ° 0 min 0,000 mm 0,0 UV-I 0 W/m² -3,5 °C 1,0 °C 0,0 km/h (0 Bft)
17.03.2019 02:38 1,1 °C 71 % 1007,6 hPa 0,0 mm 0,0 km/h (0 Bft) S-SW 200 ° 0 min 0,000 mm 0,0 UV-I 0 W/m² -3,6 °C 1,1 °C 0,0 km/h (0 Bft)
17.03.2019 02:39 1,1 °C 71 % 1007,6 hPa 0,0 mm 0,0 km/h (0 Bft) S-SW 200 ° 0 min 0,000 mm 0,0 UV-I 0 W/m² -3,6 °C 1,1 °C 0,0 km/h (0 Bft)
17.03.2019 02:40 1,0 °C 71 % 1007,6 hPa 0,0 mm 0,0 km/h (0 Bft) S-SW 200 ° 0 min 0,000 mm 0,0 UV-I 0 W/m² -3,7 °C 1,0 °C 0,0 km/h (0 Bft)
17.03.2019 02:41 1,0 °C 71 % 1007,6 hPa 0,0 mm 0,0 km/h (0 Bft) S-SW 200 ° 0 min 0,000 mm 0,0 UV-I 0 W/m² -3,7 °C 1,0 °C 0,0 km/h (0 Bft)
17.03.2019 02:42 1,0 °C 71 % 1007,5 hPa 0,0 mm 0,0 km/h (0 Bft) S-SW 200 ° 0 min 0,000 mm 0,0 UV-I 0 W/m² -3,7 °C 1,0 °C 0,0 km/h (0 Bft)
17.03.2019 02:43 1,1 °C 71 % 1007,5 hPa 0,0 mm 0,0 km/h (0 Bft) S-SW 200 ° 0 min 0,000 mm 0,0 UV-I 0 W/m² -3,6 °C 1,1 °C 0,0 km/h (0 Bft)
17.03.2019 02:44 1,0 °C 71 % 1007,5 hPa 0,0 mm 0,0 km/h (0 Bft) S-SW 200 ° 0 min 0,000 mm 0,0 UV-I 0 W/m² -3,7 °C 1,0 °C 0,0 km/h (0 Bft)
17.03.2019 02:45 1,0 °C 71 % 1007,5 hPa 0,0 mm 0,0 km/h (0 Bft) S-SW 200 ° 0 min 0,000 mm 0,0 UV-I 0 W/m² -3,7 °C 1,0 °C 0,0 km/h (0 Bft)
17.03.2019 02:46 0,9 °C 71 % 1007,5 hPa 0,0 mm 0,0 km/h (0 Bft) S-SW 200 ° 0 min 0,000 mm 0,0 UV-I 0 W/m² -3,7 °C 0,9 °C 0,0 km/h (0 Bft)
17.03.2019 02:47 0,8 °C 71 % 1007,5 hPa 0,0 mm 0,0 km/h (0 Bft) S-SW 200 ° 0 min 0,000 mm 0,0 UV-I 0 W/m² -3,8 °C 0,8 °C 0,0 km/h (0 Bft)
17.03.2019 02:48 0,8 °C 71 % 1007,5 hPa 0,0 mm 0,0 km/h (0 Bft) S-SW 200 ° 0 min 0,000 mm 0,0 UV-I 0 W/m² -3,8 °C 0,8 °C 0,0 km/h (0 Bft)
17.03.2019 02:49 0,9 °C 71 % 1007,4 hPa 0,0 mm 0,0 km/h (0 Bft) S-SW 200 ° 0 min 0,000 mm 0,0 UV-I 0 W/m² -3,7 °C 0,9 °C 0,0 km/h (0 Bft)
17.03.2019 02:50 0,9 °C 71 % 1007,4 hPa 0,0 mm 0,0 km/h (0 Bft) S-SW 200 ° 0 min 0,000 mm 0,0 UV-I 0 W/m² -3,7 °C 0,9 °C 0,0 km/h (0 Bft)
17.03.2019 02:51 0,8 °C 71 % 1007,4 hPa 0,0 mm 0,0 km/h (0 Bft) S-SW 200 ° 0 min 0,000 mm 0,0 UV-I 0 W/m² -3,8 °C 0,8 °C 0,0 km/h (0 Bft)
17.03.2019 02:52 0,7 °C 72 % 1007,4 hPa 0,0 mm 0,0 km/h (0 Bft) S-SW 200 ° 0 min 0,000 mm 0,0 UV-I 0 W/m² -3,8 °C 0,7 °C 0,0 km/h (0 Bft)
17.03.2019 02:53 0,6 °C 72 % 1007,3 hPa 0,0 mm 0,0 km/h (0 Bft) S-SW 200 ° 0 min 0,000 mm 0,0 UV-I 0 W/m² -3,9 °C 0,6 °C 0,0 km/h (0 Bft)
17.03.2019 02:54 0,6 °C 73 % 1007,4 hPa 0,0 mm 0,0 km/h (0 Bft) S-SW 200 ° 0 min 0,000 mm 0,0 UV-I 0 W/m² -3,7 °C 0,6 °C 0,0 km/h (0 Bft)
17.03.2019 02:55 0,6 °C 73 % 1007,4 hPa 0,0 mm 0,0 km/h (0 Bft) S-SW 200 ° 0 min 0,000 mm 0,0 UV-I 0 W/m² -3,7 °C 0,6 °C 0,0 km/h (0 Bft)
17.03.2019 02:56 0,6 °C 73 % 1007,3 hPa 0,0 mm 0,0 km/h (0 Bft) S-SW 200 ° 0 min 0,000 mm 0,0 UV-I 0 W/m² -3,7 °C 0,6 °C 0,0 km/h (0 Bft)
17.03.2019 02:57 0,7 °C 72 % 1007,3 hPa 0,0 mm 0,0 km/h (0 Bft) S-SW 200 ° 0 min 0,000 mm 0,0 UV-I 0 W/m² -3,8 °C 0,7 °C 0,0 km/h (0 Bft)
17.03.2019 02:58 0,7 °C 72 % 1007,3 hPa 0,0 mm 0,0 km/h (0 Bft) S-SW 200 ° 0 min 0,000 mm 0,0 UV-I 0 W/m² -3,8 °C 0,7 °C 0,0 km/h (0 Bft)
17.03.2019 02:59 0,6 °C 72 % 1007,3 hPa 0,0 mm 0,0 km/h (0 Bft) S-SW 200 ° 0 min 0,000 mm 0,0 UV-I 0 W/m² -3,9 °C 0,6 °C 0,0 km/h (0 Bft)
17.03.2019 03:00 0,5 °C 73 % 1007,5 hPa 0,0 mm 0,0 km/h (0 Bft) S-SW 200 ° 0 min 0,025 mm 0,0 UV-I 0 W/m² -3,8 °C 0,5 °C 0,0 km/h (0 Bft)
17.03.2019 03:01 0,4 °C 73 % 1007,5 hPa 0,0 mm 0,0 km/h (0 Bft) S-SW 200 ° 0 min 0,000 mm 0,0 UV-I 0 W/m² -3,9 °C 0,4 °C 0,0 km/h (0 Bft)
17.03.2019 03:02 0,4 °C 73 % 1007,5 hPa 0,0 mm 0,0 km/h (0 Bft) S-SW 200 ° 0 min 0,000 mm 0,0 UV-I 0 W/m² -3,9 °C 0,4 °C 0,0 km/h (0 Bft)
17.03.2019 03:03 0,5 °C 73 % 1007,5 hPa 0,0 mm 0,0 km/h (0 Bft) S-SW 200 ° 0 min 0,000 mm 0,0 UV-I 0 W/m² -3,8 °C 0,5 °C 0,0 km/h (0 Bft)
17.03.2019 03:04 0,6 °C 73 % 1007,5 hPa 0,0 mm 0,0 km/h (0 Bft) S-SW 200 ° 0 min 0,000 mm 0,0 UV-I 0 W/m² -3,7 °C 0,6 °C 0,0 km/h (0 Bft)
17.03.2019 03:05 0,7 °C 73 % 1007,5 hPa 0,0 mm 0,0 km/h (0 Bft) S-SW 200 ° 0 min 0,000 mm 0,0 UV-I 0 W/m² -3,6 °C 0,7 °C 0,0 km/h (0 Bft)
17.03.2019 03:06 0,6 °C 73 % 1007,5 hPa 0,0 mm 0,0 km/h (0 Bft) S-SW 200 ° 0 min 0,000 mm 0,0 UV-I 0 W/m² -3,7 °C 0,6 °C 0,0 km/h (0 Bft)
17.03.2019 03:07 0,5 °C 72 % 1007,5 hPa 0,0 mm 0,0 km/h (0 Bft) S-SW 200 ° 0 min 0,000 mm 0,0 UV-I 0 W/m² -3,9 °C 0,5 °C 0,0 km/h (0 Bft)
17.03.2019 03:08 0,4 °C 73 % 1007,5 hPa 0,0 mm 0,0 km/h (0 Bft) S-SW 200 ° 0 min 0,000 mm 0,0 UV-I 0 W/m² -3,9 °C 0,4 °C 0,0 km/h (0 Bft)
17.03.2019 03:09 0,4 °C 73 % 1007,6 hPa 0,0 mm 0,0 km/h (0 Bft) S-SW 200 ° 0 min 0,000 mm 0,0 UV-I 0 W/m² -3,9 °C 0,4 °C 0,0 km/h (0 Bft)
17.03.2019 03:10 0,4 °C 74 % 1007,5 hPa 0,0 mm 0,0 km/h (0 Bft) S-SW 200 ° 0 min 0,000 mm 0,0 UV-I 0 W/m² -3,7 °C 0,4 °C 0,0 km/h (0 Bft)
17.03.2019 03:11 0,4 °C 73 % 1007,5 hPa 0,0 mm 0,0 km/h (0 Bft) S-SW 200 ° 0 min 0,000 mm 0,0 UV-I 0 W/m² -3,9 °C 0,4 °C 0,0 km/h (0 Bft)
17.03.2019 03:12 0,4 °C 73 % 1007,5 hPa 0,0 mm 0,0 km/h (0 Bft) S-SW 200 ° 0 min 0,000 mm 0,0 UV-I 0 W/m² -3,9 °C 0,4 °C 0,0 km/h (0 Bft)
17.03.2019 03:13 0,4 °C 73 % 1007,5 hPa 0,0 mm 0,0 km/h (0 Bft) S-SW 200 ° 0 min 0,000 mm 0,0 UV-I 0 W/m² -3,9 °C 0,4 °C 0,0 km/h (0 Bft)
17.03.2019 03:14 0,4 °C 73 % 1007,5 hPa 0,0 mm 0,0 km/h (0 Bft) S-SW 200 ° 0 min 0,000 mm 0,0 UV-I 0 W/m² -3,9 °C 0,4 °C 0,0 km/h (0 Bft)
17.03.2019 03:15 0,3 °C 73 % 1007,5 hPa 0,0 mm 0,0 km/h (0 Bft) S-SW 200 ° 0 min 0,000 mm 0,0 UV-I 0 W/m² -4,0 °C 0,3 °C 0,0 km/h (0 Bft)
17.03.2019 03:16 0,3 °C 74 % 1007,5 hPa 0,0 mm 0,0 km/h (0 Bft) S-SW 200 ° 0 min 0,000 mm 0,0 UV-I 0 W/m² -3,8 °C 0,3 °C 0,0 km/h (0 Bft)
17.03.2019 03:17 0,3 °C 74 % 1007,5 hPa 0,0 mm 0,0 km/h (0 Bft) S-SW 200 ° 0 min 0,000 mm 0,0 UV-I 0 W/m² -3,8 °C 0,3 °C 0,0 km/h (0 Bft)
17.03.2019 03:18 0,3 °C 74 % 1007,5 hPa 0,0 mm 0,0 km/h (0 Bft) S-SW 200 ° 0 min 0,000 mm 0,0 UV-I 0 W/m² -3,8 °C 0,3 °C 0,0 km/h (0 Bft)
17.03.2019 03:19 0,3 °C 74 % 1007,5 hPa 0,0 mm 0,0 km/h (0 Bft) S-SW 200 ° 0 min 0,000 mm 0,0 UV-I 0 W/m² -3,8 °C 0,3 °C 0,0 km/h (0 Bft)
17.03.2019 03:20 0,3 °C 74 % 1007,4 hPa 0,0 mm 4,6 km/h (1 Bft) S-SO 153 ° 0 min 0,000 mm 0,0 UV-I 0 W/m² -3,8 °C -1,1 °C 11,3 km/h (2 Bft)
17.03.2019 03:21 0,7 °C 74 % 1007,5 hPa 0,0 mm 4,6 km/h (1 Bft) S-SO 154 ° 0 min 0,000 mm 0,0 UV-I 0 W/m² -3,4 °C -0,6 °C 11,3 km/h (2 Bft)
17.03.2019 03:22 1,2 °C 72 % 1007,5 hPa 0,0 mm 1,1 km/h (1 Bft) S-SO 159 ° 0 min 0,000 mm 0,0 UV-I 0 W/m² -3,3 °C 1,2 °C 3,2 km/h (1 Bft)
17.03.2019 03:23 1,7 °C 70 % 1007,4 hPa 0,0 mm 0,0 km/h (0 Bft) S-SO 159 ° 0 min 0,000 mm 0,0 UV-I 0 W/m² -3,2 °C 1,7 °C 0,0 km/h (0 Bft)
17.03.2019 03:24 1,9 °C 69 % 1007,4 hPa 0,0 mm 0,1 km/h (0 Bft) S-SO 159 ° 0 min 0,000 mm 0,0 UV-I 0 W/m² -3,2 °C 1,9 °C 1,6 km/h (1 Bft)
17.03.2019 03:25 2,1 °C 67 % 1007,3 hPa 0,0 mm 0,7 km/h (0 Bft) S-SO 159 ° 0 min 0,000 mm 0,0 UV-I 0 W/m² -3,4 °C 2,1 °C 3,2 km/h (1 Bft)
17.03.2019 03:26 2,3 °C 66 % 1007,3 hPa 0,0 mm 1,6 km/h (1 Bft) S-SO 159 ° 0 min 0,000 mm 0,0 UV-I 0 W/m² -3,4 °C 2,3 °C 3,2 km/h (1 Bft)
17.03.2019 03:27 2,6 °C 65 % 1007,3 hPa 0,0 mm 0,5 km/h (0 Bft) S-SO 159 ° 0 min 0,000 mm 0,0 UV-I 0 W/m² -3,3 °C 2,6 °C 1,6 km/h (1 Bft)
17.03.2019 03:28 2,6 °C 65 % 1007,3 hPa 0,0 mm 0,2 km/h (0 Bft) S-SO 159 ° 0 min 0,000 mm 0,0 UV-I 0 W/m² -3,3 °C 2,6 °C 1,6 km/h (1 Bft)
17.03.2019 03:29 2,4 °C 65 % 1007,3 hPa 0,0 mm 0,0 km/h (0 Bft) S-SO 159 ° 0 min 0,000 mm 0,0 UV-I 0 W/m² -3,5 °C 2,4 °C 0,0 km/h (0 Bft)
17.03.2019 03:30 2,2 °C 66 % 1007,3 hPa 0,0 mm 0,0 km/h (0 Bft) S-SO 159 ° 0 min 0,000 mm 0,0 UV-I 0 W/m² -3,5 °C 2,2 °C 0,0 km/h (0 Bft)
17.03.2019 03:31 2,0 °C 66 % 1007,3 hPa 0,0 mm 0,0 km/h (0 Bft) S-SO 159 ° 0 min 0,000 mm 0,0 UV-I 0 W/m² -3,7 °C 2,0 °C 0,0 km/h (0 Bft)
17.03.2019 03:32 1,9 °C 67 % 1007,3 hPa 0,0 mm 0,0 km/h (0 Bft) S-SO 159 ° 0 min 0,000 mm 0,0 UV-I 0 W/m² -3,6 °C 1,9 °C 0,0 km/h (0 Bft)
17.03.2019 03:33 2,1 °C 65 % 1007,2 hPa 0,0 mm 2,3 km/h (1 Bft) S-SO 159 ° 0 min 0,000 mm 0,0 UV-I 0 W/m² -3,8 °C 2,1 °C 6,4 km/h (2 Bft)
17.03.2019 03:34 2,4 °C 63 % 1007,2 hPa 0,0 mm 1,5 km/h (1 Bft) S-SO 159 ° 0 min 0,000 mm 0,0 UV-I 0 W/m² -3,9 °C 2,4 °C 3,2 km/h (1 Bft)
17.03.2019 03:35 2,9 °C 61 % 1007,2 hPa 0,0 mm 0,0 km/h (0 Bft) S-SO 159 ° 0 min 0,000 mm 0,0 UV-I 0 W/m² -3,9 °C 2,9 °C 0,0 km/h (0 Bft)
17.03.2019 03:36 2,8 °C 63 % 1007,2 hPa 0,0 mm 0,0 km/h (0 Bft) S-SO 159 ° 0 min 0,000 mm 0,0 UV-I 0 W/m² -3,5 °C 2,8 °C 0,0 km/h (0 Bft)
17.03.2019 03:37 2,5 °C 64 % 1007,2 hPa 0,0 mm 0,0 km/h (0 Bft) S-SO 159 ° 0 min 0,000 mm 0,0 UV-I 0 W/m² -3,6 °C 2,5 °C 0,0 km/h (0 Bft)
17.03.2019 03:38 2,3 °C 64 % 1007,2 hPa 0,0 mm 0,0 km/h (0 Bft) S-SO 159 ° 0 min 0,000 mm 0,0 UV-I 0 W/m² -3,8 °C 2,3 °C 0,0 km/h (0 Bft)
17.03.2019 03:39 2,2 °C 65 % 1007,2 hPa 0,0 mm 0,9 km/h (0 Bft) S-SO 163 ° 0 min 0,000 mm 0,0 UV-I 0 W/m² -3,7 °C 2,2 °C 3,2 km/h (1 Bft)
17.03.2019 03:40 2,2 °C 65 % 1007,2 hPa 0,0 mm 2,3 km/h (1 Bft) S 186 ° 0 min 0,000 mm 0,0 UV-I 0 W/m² -3,7 °C 2,2 °C 4,8 km/h (1 Bft)
17.03.2019 03:41 2,1 °C 66 % 1007,2 hPa 0,0 mm 0,0 km/h (0 Bft) S 186 ° 0 min 0,000 mm 0,0 UV-I 0 W/m² -3,6 °C 2,1 °C 0,0 km/h (0 Bft)
17.03.2019 03:42 1,9 °C 66 % 1007,2 hPa 0,0 mm 0,0 km/h (0 Bft) S 186 ° 0 min 0,000 mm 0,0 UV-I 0 W/m² -3,8 °C 1,9 °C 0,0 km/h (0 Bft)
17.03.2019 03:43 1,7 °C 67 % 1007,2 hPa 0,0 mm 0,0 km/h (0 Bft) S 186 ° 0 min 0,000 mm 0,0 UV-I 0 W/m² -3,8 °C 1,7 °C 0,0 km/h (0 Bft)
17.03.2019 03:44 1,6 °C 67 % 1007,3 hPa 0,0 mm 0,0 km/h (0 Bft) S 186 ° 0 min 0,000 mm 0,0 UV-I 0 W/m² -3,9 °C 1,6 °C 0,0 km/h (0 Bft)
17.03.2019 03:45 1,4 °C 68 % 1007,3 hPa 0,0 mm 0,1 km/h (0 Bft) S 186 ° 0 min 0,000 mm 0,0 UV-I 0 W/m² -3,8 °C 1,4 °C 1,6 km/h (1 Bft)
17.03.2019 03:46 1,3 °C 68 % 1007,3 hPa 0,0 mm 3,9 km/h (1 Bft) S 186 ° 0 min 0,000 mm 0,0 UV-I 0 W/m² -3,9 °C 1,3 °C 4,8 km/h (1 Bft)
17.03.2019 03:47 1,3 °C 68 % 1007,2 hPa 0,0 mm 1,7 km/h (1 Bft) S 186 ° 0 min 0,000 mm 0,0 UV-I 0 W/m² -3,9 °C 1,3 °C 4,8 km/h (1 Bft)
17.03.2019 03:48 1,4 °C 69 % 1007,2 hPa 0,0 mm 1,1 km/h (1 Bft) S 186 ° 0 min 0,000 mm 0,0 UV-I 0 W/m² -3,7 °C 1,4 °C 4,8 km/h (1 Bft)
17.03.2019 03:49 1,7 °C 68 % 1007,1 hPa 0,0 mm 1,7 km/h (1 Bft) S 186 ° 0 min 0,000 mm 0,0 UV-I 0 W/m² -3,6 °C 1,7 °C 3,2 km/h (1 Bft)
17.03.2019 03:50 1,8 °C 68 % 1007,1 hPa 0,0 mm 0,0 km/h (0 Bft) S 186 ° 0 min 0,000 mm 0,0 UV-I 0 W/m² -3,5 °C 1,8 °C 0,0 km/h (0 Bft)
17.03.2019 03:51 1,7 °C 68 % 1007,1 hPa 0,0 mm 0,0 km/h (0 Bft) S 186 ° 0 min 0,000 mm 0,0 UV-I 0 W/m² -3,6 °C 1,7 °C 0,0 km/h (0 Bft)
17.03.2019 03:52 1,4 °C 68 % 1007,1 hPa 0,0 mm 0,0 km/h (0 Bft) S 186 ° 0 min 0,000 mm 0,0 UV-I 0 W/m² -3,8 °C 1,4 °C 0,0 km/h (0 Bft)
17.03.2019 03:53 1,4 °C 69 % 1007,1 hPa 0,0 mm 0,0 km/h (0 Bft) S 186 ° 0 min 0,000 mm 0,0 UV-I 0 W/m² -3,7 °C 1,4 °C 0,0 km/h (0 Bft)
17.03.2019 03:54 1,4 °C 69 % 1007,1 hPa 0,0 mm 0,1 km/h (0 Bft) S 186 ° 0 min 0,000 mm 0,0 UV-I 0 W/m² -3,7 °C 1,4 °C 1,6 km/h (1 Bft)
17.03.2019 03:55 1,4 °C 69 % 1007,2 hPa 0,0 mm 2,0 km/h (1 Bft) S-SW 200 ° 0 min 0,000 mm 0,0 UV-I 0 W/m² -3,7 °C 1,4 °C 4,8 km/h (1 Bft)
17.03.2019 03:56 1,3 °C 69 % 1007,2 hPa 0,0 mm 2,3 km/h (1 Bft) NW 318 ° 0 min 0,000 mm 0,0 UV-I 0 W/m² -3,7 °C 1,3 °C 4,8 km/h (1 Bft)
17.03.2019 03:57 1,1 °C 69 % 1007,1 hPa 0,0 mm 1,3 km/h (1 Bft) NW 318 ° 0 min 0,000 mm 0,0 UV-I 0 W/m² -3,9 °C 1,1 °C 4,8 km/h (1 Bft)
17.03.2019 03:58 0,9 °C 70 % 1007,1 hPa 0,0 mm 5,3 km/h (1 Bft) NW 318 ° 0 min 0,000 mm 0,0 UV-I 0 W/m² -3,9 °C -0,7 °C 6,4 km/h (2 Bft)
17.03.2019 03:59 0,9 °C 70 % 1007,1 hPa 0,0 mm 0,8 km/h (0 Bft) NW 318 ° 0 min 0,000 mm 0,0 UV-I 0 W/m² -3,9 °C 0,9 °C 3,2 km/h (1 Bft)
17.03.2019 04:00 1,1 °C 71 % 1007,1 hPa 0,0 mm 5,5 km/h (1 Bft) S 178 ° 0 min 0,026 mm 0,0 UV-I 0 W/m² -3,6 °C -0,6 °C 11,3 km/h (2 Bft)
17.03.2019 04:01 1,3 °C 70 % 1007,1 hPa 0,0 mm 0,3 km/h (0 Bft) S 178 ° 0 min 0,000 mm 0,0 UV-I 0 W/m² -3,6 °C 1,3 °C 1,6 km/h (1 Bft)
17.03.2019 04:02 1,3 °C 70 % 1007,1 hPa 0,0 mm 0,0 km/h (0 Bft) S 178 ° 0 min 0,000 mm 0,0 UV-I 0 W/m² -3,6 °C 1,3 °C 0,0 km/h (0 Bft)
17.03.2019 04:03 1,2 °C 70 % 1007,1 hPa 0,0 mm 1,2 km/h (1 Bft) S 178 ° 0 min 0,000 mm 0,0 UV-I 0 W/m² -3,7 °C 1,2 °C 3,2 km/h (1 Bft)
17.03.2019 04:04 1,3 °C 70 % 1007,1 hPa 0,0 mm 3,3 km/h (1 Bft) S 178 ° 0 min 0,000 mm 0,0 UV-I 0 W/m² -3,6 °C 1,3 °C 4,8 km/h (1 Bft)
17.03.2019 04:05 1,4 °C 70 % 1007,2 hPa 0,0 mm 2,9 km/h (1 Bft) S 178 ° 0 min 0,000 mm 0,0 UV-I 0 W/m² -3,5 °C 1,4 °C 4,8 km/h (1 Bft)
17.03.2019 04:06 1,7 °C 69 % 1007,1 hPa 0,0 mm 0,5 km/h (0 Bft) S 178 ° 0 min 0,000 mm 0,0 UV-I 0 W/m² -3,4 °C 1,7 °C 1,6 km/h (1 Bft)
17.03.2019 04:07 1,9 °C 67 % 1007,1 hPa 0,0 mm 0,0 km/h (0 Bft) S 178 ° 0 min 0,000 mm 0,0 UV-I 0 W/m² -3,6 °C 1,9 °C 0,0 km/h (0 Bft)
17.03.2019 04:08 1,9 °C 67 % 1007,1 hPa 0,0 mm 0,0 km/h (0 Bft) S 178 ° 0 min 0,000 mm 0,0 UV-I 0 W/m² -3,6 °C 1,9 °C 0,0 km/h (0 Bft)
17.03.2019 04:09 1,7 °C 68 % 1007,1 hPa 0,0 mm 1,0 km/h (0 Bft) S 178 ° 0 min 0,000 mm 0,0 UV-I 0 W/m² -3,6 °C 1,7 °C 1,6 km/h (1 Bft)
17.03.2019 04:10 1,7 °C 68 % 1007,1 hPa 0,0 mm 1,6 km/h (1 Bft) S 178 ° 0 min 0,000 mm 0,0 UV-I 0 W/m² -3,6 °C 1,7 °C 3,2 km/h (1 Bft)
17.03.2019 04:11 1,9 °C 67 % 1007,1 hPa 0,0 mm 2,0 km/h (1 Bft) S 178 ° 0 min 0,000 mm 0,0 UV-I 0 W/m² -3,6 °C 1,9 °C 3,2 km/h (1 Bft)
17.03.2019 04:12 2,2 °C 66 % 1007,1 hPa 0,0 mm 0,5 km/h (0 Bft) S 178 ° 0 min 0,000 mm 0,0 UV-I 0 W/m² -3,5 °C 2,2 °C 1,6 km/h (1 Bft)
17.03.2019 04:13 2,0 °C 67 % 1007,0 hPa 0,0 mm 0,0 km/h (0 Bft) S 178 ° 0 min 0,000 mm 0,0 UV-I 0 W/m² -3,5 °C 2,0 °C 0,0 km/h (0 Bft)
17.03.2019 04:14 1,9 °C 67 % 1007,1 hPa 0,0 mm 0,1 km/h (0 Bft) S 179 ° 0 min 0,000 mm 0,0 UV-I 0 W/m² -3,6 °C 1,9 °C 3,2 km/h (1 Bft)
17.03.2019 04:15 1,8 °C 67 % 1007,1 hPa 0,0 mm 3,6 km/h (1 Bft) NW 317 ° 0 min 0,000 mm 0,0 UV-I 0 W/m² -3,7 °C 1,8 °C 4,8 km/h (1 Bft)
17.03.2019 04:16 1,6 °C 67 % 1007,1 hPa 0,0 mm 0,8 km/h (0 Bft) NW 317 ° 0 min 0,000 mm 0,0 UV-I 0 W/m² -3,9 °C 1,6 °C 3,2 km/h (1 Bft)
17.03.2019 04:17 1,5 °C 68 % 1007,2 hPa 0,0 mm 1,3 km/h (1 Bft) NW 317 ° 0 min 0,000 mm 0,0 UV-I 0 W/m² -3,7 °C 1,5 °C 3,2 km/h (1 Bft)
17.03.2019 04:18 1,6 °C 68 % 1007,1 hPa 0,0 mm 1,4 km/h (1 Bft) S-SW 209 ° 0 min 0,000 mm 0,0 UV-I 0 W/m² -3,7 °C 1,6 °C 4,8 km/h (1 Bft)
17.03.2019 04:19 1,6 °C 68 % 1007,1 hPa 0,0 mm 5,0 km/h (1 Bft) S-SO 151 ° 0 min 0,000 mm 0,0 UV-I 0 W/m² -3,7 °C 0,2 °C 6,4 km/h (2 Bft)
17.03.2019 04:20 1,8 °C 66 % 1007,1 hPa 0,0 mm 5,0 km/h (1 Bft) S 175 ° 0 min 0,000 mm 0,0 UV-I 0 W/m² -3,9 °C 0,5 °C 6,4 km/h (2 Bft)
17.03.2019 04:21 2,1 °C 66 % 1007,1 hPa 0,0 mm 6,8 km/h (2 Bft) S 180 ° 0 min 0,000 mm 0,0 UV-I 0 W/m² -3,6 °C 0,1 °C 9,7 km/h (2 Bft)
17.03.2019 04:22 2,3 °C 65 % 1007,0 hPa 0,0 mm 5,8 km/h (2 Bft) S-SO 157 ° 0 min 0,000 mm 0,0 UV-I 0 W/m² -3,6 °C 0,7 °C 8,0 km/h (2 Bft)
17.03.2019 04:23 2,6 °C 63 % 1007,0 hPa 0,0 mm 4,5 km/h (1 Bft) S-SO 158 ° 0 min 0,000 mm 0,0 UV-I 0 W/m² -3,7 °C 2,6 °C 8,0 km/h (2 Bft)
17.03.2019 04:24 3,0 °C 60 % 1007,0 hPa 0,0 mm 3,0 km/h (1 Bft) S-SO 158 ° 0 min 0,000 mm 0,0 UV-I 0 W/m² -4,0 °C 3,0 °C 4,8 km/h (1 Bft)
17.03.2019 04:25 3,3 °C 58 % 1006,9 hPa 0,0 mm 2,3 km/h (1 Bft) S-SO 158 ° 0 min 0,000 mm 0,0 UV-I 0 W/m² -4,2 °C 3,3 °C 3,2 km/h (1 Bft)
17.03.2019 04:26 3,3 °C 60 % 1007,0 hPa 0,0 mm 4,6 km/h (1 Bft) S-SO 158 ° 0 min 0,000 mm 0,0 UV-I 0 W/m² -3,7 °C 2,3 °C 8,0 km/h (2 Bft)
17.03.2019 04:27 3,1 °C 61 % 1007,0 hPa 0,0 mm 2,0 km/h (1 Bft) S-SO 158 ° 0 min 0,000 mm 0,0 UV-I 0 W/m² -3,7 °C 3,1 °C 3,2 km/h (1 Bft)
17.03.2019 04:28 2,7 °C 61 % 1006,9 hPa 0,0 mm 0,8 km/h (0 Bft) S-SO 158 ° 0 min 0,000 mm 0,0 UV-I 0 W/m² -4,1 °C 2,7 °C 3,2 km/h (1 Bft)
17.03.2019 04:29 2,3 °C 62 % 1007,0 hPa 0,0 mm 0,0 km/h (0 Bft) S-SO 158 ° 0 min 0,000 mm 0,0 UV-I 0 W/m² -4,2 °C 2,3 °C 0,0 km/h (0 Bft)
17.03.2019 04:30 2,2 °C 64 % 1006,9 hPa 0,0 mm 3,4 km/h (1 Bft) S-SO 158 ° 0 min 0,000 mm 0,0 UV-I 0 W/m² -3,9 °C 2,2 °C 4,8 km/h (1 Bft)
17.03.2019 04:31 2,1 °C 65 % 1006,9 hPa 0,0 mm 1,1 km/h (1 Bft) S-SO 158 ° 0 min 0,000 mm 0,0 UV-I 0 W/m² -3,8 °C 2,1 °C 3,2 km/h (1 Bft)
17.03.2019 04:32 2,0 °C 65 % 1006,9 hPa 0,0 mm 1,8 km/h (1 Bft) W-NW 293 ° 0 min 0,000 mm 0,0 UV-I 0 W/m² -3,9 °C 2,0 °C 4,8 km/h (1 Bft)
17.03.2019 04:33 1,8 °C 65 % 1006,9 hPa 0,0 mm 3,6 km/h (1 Bft) W-NW 293 ° 0 min 0,000 mm 0,0 UV-I 0 W/m² -4,1 °C 1,8 °C 6,4 km/h (2 Bft)
17.03.2019 04:34 1,7 °C 66 % 1006,9 hPa 0,0 mm 0,5 km/h (0 Bft) W-NW 293 ° 0 min 0,000 mm 0,0 UV-I 0 W/m² -4,0 °C 1,7 °C 1,6 km/h (1 Bft)
17.03.2019 04:35 1,6 °C 66 % 1006,9 hPa 0,0 mm 2,8 km/h (1 Bft) S 180 ° 0 min 0,000 mm 0,0 UV-I 0 W/m² -4,1 °C 1,6 °C 4,8 km/h (1 Bft)
17.03.2019 04:36 1,6 °C 67 % 1006,9 hPa 0,0 mm 2,5 km/h (1 Bft) S 180 ° 0 min 0,000 mm 0,0 UV-I 0 W/m² -3,9 °C 1,6 °C 3,2 km/h (1 Bft)
17.03.2019 04:37 1,7 °C 67 % 1006,8 hPa 0,0 mm 0,1 km/h (0 Bft) S 180 ° 0 min 0,000 mm 0,0 UV-I 0 W/m² -3,8 °C 1,7 °C 1,6 km/h (1 Bft)
17.03.2019 04:38 1,7 °C 67 % 1007,0 hPa 0,0 mm 0,0 km/h (0 Bft) S 180 ° 0 min 0,000 mm 0,0 UV-I 0 W/m² -3,8 °C 1,7 °C 0,0 km/h (0 Bft)
17.03.2019 04:39 1,7 °C 67 % 1007,0 hPa 0,0 mm 0,0 km/h (0 Bft) S 180 ° 0 min 0,000 mm 0,0 UV-I 0 W/m² -3,8 °C 1,7 °C 0,0 km/h (0 Bft)
17.03.2019 04:40 1,4 °C 67 % 1006,9 hPa 0,0 mm 2,1 km/h (1 Bft) S 182 ° 0 min 0,000 mm 0,0 UV-I 0 W/m² -4,0 °C 1,4 °C 4,8 km/h (1 Bft)
17.03.2019 04:41 1,3 °C 67 % 1006,9 hPa 0,0 mm 1,4 km/h (1 Bft) O-SO 121 ° 0 min 0,000 mm 0,0 UV-I 0 W/m² -4,1 °C 1,3 °C 4,8 km/h (1 Bft)
17.03.2019 04:42 1,2 °C 68 % 1006,8 hPa 0,0 mm 7,2 km/h (2 Bft) SO 144 ° 0 min 0,000 mm 0,0 UV-I 0 W/m² -4,0 °C -1,1 °C 11,3 km/h (2 Bft)
17.03.2019 04:43 1,3 °C 68 % 1006,8 hPa 0,0 mm 4,0 km/h (1 Bft) SO 144 ° 0 min 0,000 mm 0,0 UV-I 0 W/m² -3,9 °C 1,3 °C 6,4 km/h (2 Bft)
17.03.2019 04:44 1,8 °C 66 % 1006,8 hPa 0,0 mm 3,1 km/h (1 Bft) SO 144 ° 0 min 0,000 mm 0,0 UV-I 0 W/m² -3,9 °C 1,8 °C 4,8 km/h (1 Bft)
17.03.2019 04:45 2,3 °C 64 % 1006,8 hPa 0,0 mm 1,6 km/h (1 Bft) SO 144 ° 0 min 0,000 mm 0,0 UV-I 0 W/m² -3,8 °C 2,3 °C 3,2 km/h (1 Bft)
17.03.2019 04:46 2,6 °C 64 % 1006,7 hPa 0,0 mm 2,1 km/h (1 Bft) SO 144 ° 0 min 0,000 mm 0,0 UV-I 0 W/m² -3,5 °C 2,6 °C 3,2 km/h (1 Bft)
17.03.2019 04:47 2,8 °C 61 % 1006,8 hPa 0,0 mm 0,3 km/h (0 Bft) SO 144 ° 0 min 0,000 mm 0,0 UV-I 0 W/m² -4,0 °C 2,8 °C 1,6 km/h (1 Bft)
17.03.2019 04:48 2,9 °C 62 % 1006,8 hPa 0,0 mm 4,0 km/h (1 Bft) NW 312 ° 0 min 0,000 mm 0,0 UV-I 0 W/m² -3,6 °C 2,9 °C 6,4 km/h (2 Bft)
17.03.2019 04:49 2,7 °C 63 % 1006,8 hPa 0,0 mm 2,1 km/h (1 Bft) NW 312 ° 0 min 0,000 mm 0,0 UV-I 0 W/m² -3,6 °C 2,7 °C 3,2 km/h (1 Bft)
17.03.2019 04:50 2,3 °C 64 % 1006,8 hPa 0,0 mm 1,7 km/h (1 Bft) NW 312 ° 0 min 0,000 mm 0,0 UV-I 0 W/m² -3,8 °C 2,3 °C 3,2 km/h (1 Bft)
17.03.2019 04:51 2,1 °C 64 % 1006,8 hPa 0,0 mm 1,3 km/h (1 Bft) NW 312 ° 0 min 0,000 mm 0,0 UV-I 0 W/m² -4,0 °C 2,1 °C 3,2 km/h (1 Bft)
17.03.2019 04:52 1,9 °C 65 % 1006,8 hPa 0,0 mm 0,0 km/h (0 Bft) NW 312 ° 0 min 0,000 mm 0,0 UV-I 0 W/m² -4,0 °C 1,9 °C 0,0 km/h (0 Bft)
17.03.2019 04:53 1,7 °C 66 % 1006,9 hPa 0,0 mm 0,0 km/h (0 Bft) NW 312 ° 0 min 0,000 mm 0,0 UV-I 0 W/m² -4,0 °C 1,7 °C 0,0 km/h (0 Bft)
17.03.2019 04:54 1,6 °C 66 % 1006,8 hPa 0,0 mm 1,3 km/h (1 Bft) NW 312 ° 0 min 0,000 mm 0,0 UV-I 0 W/m² -4,1 °C 1,6 °C 3,2 km/h (1 Bft)
17.03.2019 04:55 1,4 °C 67 % 1006,9 hPa 0,0 mm 0,8 km/h (0 Bft) NW 312 ° 0 min 0,000 mm 0,0 UV-I 0 W/m² -4,0 °C 1,4 °C 3,2 km/h (1 Bft)
17.03.2019 04:56 1,4 °C 67 % 1006,9 hPa 0,0 mm 0,7 km/h (0 Bft) NW 312 ° 0 min 0,000 mm 0,0 UV-I 0 W/m² -4,0 °C 1,4 °C 3,2 km/h (1 Bft)
17.03.2019 04:57 1,5 °C 67 % 1006,9 hPa 0,0 mm 4,3 km/h (1 Bft) SO 128 ° 0 min 0,000 mm 0,0 UV-I 0 W/m² -3,9 °C 1,5 °C 8,0 km/h (2 Bft)
17.03.2019 04:58 1,6 °C 66 % 1006,9 hPa 0,0 mm 2,2 km/h (1 Bft) SO 128 ° 0 min 0,000 mm 0,0 UV-I 0 W/m² -4,1 °C 1,6 °C 4,8 km/h (1 Bft)
17.03.2019 04:59 1,8 °C 66 % 1006,8 hPa 0,0 mm 1,4 km/h (1 Bft) SO 128 ° 0 min 0,000 mm 0,0 UV-I 0 W/m² -3,9 °C 1,8 °C 3,2 km/h (1 Bft)
17.03.2019 05:00 1,9 °C 65 % 1006,9 hPa 0,0 mm 2,2 km/h (1 Bft) SO 128 ° 0 min 0,000 mm 0,0 UV-I 0 W/m² -4,0 °C 1,9 °C 3,2 km/h (1 Bft)
17.03.2019 05:01 2,0 °C 66 % 1006,9 hPa 0,0 mm 6,0 km/h (2 Bft) NW 323 ° 0 min 0,025 mm 0,0 UV-I 0 W/m² -3,7 °C 0,3 °C 9,7 km/h (2 Bft)
17.03.2019 05:02 1,9 °C 66 % 1006,9 hPa 0,0 mm 2,0 km/h (1 Bft) NW 323 ° 0 min 0,000 mm 0,0 UV-I 0 W/m² -3,8 °C 1,9 °C 4,8 km/h (1 Bft)
17.03.2019 05:03 1,7 °C 67 % 1006,9 hPa 0,0 mm 1,9 km/h (1 Bft) NW 323 ° 0 min 0,000 mm 0,0 UV-I 0 W/m² -3,8 °C 1,7 °C 4,8 km/h (1 Bft)
17.03.2019 05:04 1,7 °C 67 % 1006,9 hPa 0,0 mm 1,7 km/h (1 Bft) NW 323 ° 0 min 0,000 mm 0,0 UV-I 0 W/m² -3,8 °C 1,7 °C 4,8 km/h (1 Bft)
17.03.2019 05:05 1,6 °C 67 % 1007,0 hPa 0,0 mm 2,4 km/h (1 Bft) NW 323 ° 0 min 0,000 mm 0,0 UV-I 0 W/m² -3,9 °C 1,6 °C 3,2 km/h (1 Bft)
17.03.2019 05:06 1,5 °C 67 % 1007,0 hPa 0,0 mm 3,7 km/h (1 Bft) S-SO 159 ° 0 min 0,000 mm 0,0 UV-I 0 W/m² -3,9 °C 1,5 °C 8,0 km/h (2 Bft)
17.03.2019 05:07 1,4 °C 68 % 1006,9 hPa 0,0 mm 5,4 km/h (1 Bft) S-SO 153 ° 0 min 0,000 mm 0,0 UV-I 0 W/m² -3,8 °C -0,2 °C 9,7 km/h (2 Bft)
17.03.2019 05:08 1,4 °C 68 % 1006,9 hPa 0,0 mm 1,9 km/h (1 Bft) W-NW 292 ° 0 min 0,000 mm 0,0 UV-I 0 W/m² -3,8 °C 1,4 °C 4,8 km/h (1 Bft)
17.03.2019 05:09 1,3 °C 68 % 1006,8 hPa 0,0 mm 4,2 km/h (1 Bft) W-SW 257 ° 0 min 0,000 mm 0,0 UV-I 0 W/m² -3,9 °C 1,3 °C 6,4 km/h (2 Bft)
17.03.2019 05:10 1,3 °C 68 % 1006,9 hPa 0,0 mm 2,3 km/h (1 Bft) O-NO 71 ° 0 min 0,000 mm 0,0 UV-I 0 W/m² -3,9 °C 1,3 °C 4,8 km/h (1 Bft)
17.03.2019 05:11 1,2 °C 69 % 1006,9 hPa 0,0 mm 1,3 km/h (1 Bft) O-NO 71 ° 0 min 0,000 mm 0,0 UV-I 0 W/m² -3,8 °C 1,2 °C 3,2 km/h (1 Bft)
17.03.2019 05:12 1,1 °C 70 % 1007,0 hPa 0,0 mm 0,1 km/h (0 Bft) O-NO 71 ° 0 min 0,000 mm 0,0 UV-I 0 W/m² -3,7 °C 1,1 °C 1,6 km/h (1 Bft)
17.03.2019 05:13 0,9 °C 70 % 1006,9 hPa 0,0 mm 1,9 km/h (1 Bft) O-NO 71 ° 0 min 0,000 mm 0,0 UV-I 0 W/m² -3,9 °C 0,9 °C 3,2 km/h (1 Bft)
17.03.2019 05:14 0,8 °C 71 % 1006,9 hPa 0,0 mm 0,9 km/h (0 Bft) O-NO 71 ° 0 min 0,000 mm 0,0 UV-I 0 W/m² -3,8 °C 0,8 °C 3,2 km/h (1 Bft)
17.03.2019 05:15 0,8 °C 71 % 1006,9 hPa 0,0 mm 0,1 km/h (0 Bft) O-NO 71 ° 0 min 0,000 mm 0,0 UV-I 0 W/m² -3,8 °C 0,8 °C 1,6 km/h (1 Bft)
17.03.2019 05:16 0,8 °C 71 % 1006,9 hPa 0,0 mm 1,5 km/h (1 Bft) O-NO 71 ° 0 min 0,000 mm 0,0 UV-I 0 W/m² -3,8 °C 0,8 °C 3,2 km/h (1 Bft)
17.03.2019 05:17 0,9 °C 70 % 1006,9 hPa 0,0 mm 0,6 km/h (0 Bft) O-NO 71 ° 0 min 0,000 mm 0,0 UV-I 0 W/m² -3,9 °C 0,9 °C 3,2 km/h (1 Bft)
17.03.2019 05:18 1,1 °C 69 % 1006,9 hPa 0,0 mm 2,5 km/h (1 Bft) W-NW 301 ° 0 min 0,000 mm 0,0 UV-I 0 W/m² -3,9 °C 1,1 °C 11,3 km/h (2 Bft)
17.03.2019 05:19 1,2 °C 69 % 1006,9 hPa 0,0 mm 3,6 km/h (1 Bft) W 262 ° 0 min 0,000 mm 0,0 UV-I 0 W/m² -3,8 °C 1,2 °C 6,4 km/h (2 Bft)
17.03.2019 05:20 1,3 °C 68 % 1006,9 hPa 0,0 mm 0,1 km/h (0 Bft) W 262 ° 0 min 0,000 mm 0,0 UV-I 0 W/m² -3,9 °C 1,3 °C 1,6 km/h (1 Bft)
17.03.2019 05:21 1,3 °C 68 % 1006,8 hPa 0,0 mm 0,0 km/h (0 Bft) W 262 ° 0 min 0,000 mm 0,0 UV-I 0 W/m² -3,9 °C 1,3 °C 0,0 km/h (0 Bft)
17.03.2019 05:22 1,1 °C 69 % 1006,8 hPa 0,0 mm 4,5 km/h (1 Bft) SO 137 ° 0 min 0,000 mm 0,0 UV-I 0 W/m² -3,9 °C 1,1 °C 8,0 km/h (2 Bft)
17.03.2019 05:23 1,1 °C 69 % 1006,8 hPa 0,0 mm 2,3 km/h (1 Bft) SO 138 ° 0 min 0,000 mm 0,0 UV-I 0 W/m² -3,9 °C 1,1 °C 3,2 km/h (1 Bft)
17.03.2019 05:24 1,1 °C 69 % 1006,9 hPa 0,0 mm 0,9 km/h (0 Bft) SO 138 ° 0 min 0,000 mm 0,0 UV-I 0 W/m² -3,9 °C 1,1 °C 3,2 km/h (1 Bft)
17.03.2019 05:25 1,1 °C 69 % 1006,8 hPa 0,0 mm 1,7 km/h (1 Bft) SO 137 ° 0 min 0,000 mm 0,0 UV-I 0 W/m² -3,9 °C 1,1 °C 4,8 km/h (1 Bft)
17.03.2019 05:26 1,1 °C 69 % 1006,8 hPa 0,0 mm 0,5 km/h (0 Bft) SO 137 ° 0 min 0,000 mm 0,0 UV-I 0 W/m² -3,9 °C 1,1 °C 1,6 km/h (1 Bft)
17.03.2019 05:27 1,1 °C 69 % 1006,8 hPa 0,0 mm 0,9 km/h (0 Bft) SO 138 ° 0 min 0,000 mm 0,0 UV-I 0 W/m² -3,9 °C 1,1 °C 3,2 km/h (1 Bft)
17.03.2019 05:28 1,1 °C 69 % 1006,8 hPa 0,0 mm 2,7 km/h (1 Bft) SO 138 ° 0 min 0,000 mm 0,0 UV-I 0 W/m² -3,9 °C 1,1 °C 4,8 km/h (1 Bft)
17.03.2019 05:29 1,2 °C 69 % 1006,8 hPa 0,0 mm 0,7 km/h (0 Bft) SO 138 ° 0 min 0,000 mm 0,0 UV-I 0 W/m² -3,8 °C 1,2 °C 1,6 km/h (1 Bft)
17.03.2019 05:30 1,4 °C 68 % 1006,8 hPa 0,0 mm 0,0 km/h (0 Bft) SO 138 ° 0 min 0,000 mm 0,0 UV-I 0 W/m² -3,8 °C 1,4 °C 0,0 km/h (0 Bft)
17.03.2019 05:31 1,7 °C 68 % 1006,8 hPa 0,0 mm 0,0 km/h (0 Bft) SO 138 ° 0 min 0,000 mm 0,0 UV-I 0 W/m² -3,6 °C 1,7 °C 0,0 km/h (0 Bft)
17.03.2019 05:32 1,9 °C 67 % 1006,8 hPa 0,0 mm 1,5 km/h (1 Bft) S-SW 209 ° 0 min 0,000 mm 0,0 UV-I 0 W/m² -3,6 °C 1,9 °C 9,7 km/h (2 Bft)
17.03.2019 05:33 2,0 °C 66 % 1006,8 hPa 0,0 mm 4,3 km/h (1 Bft) S-SO 152 ° 0 min 0,000 mm 0,0 UV-I 0 W/m² -3,7 °C 2,0 °C 9,7 km/h (2 Bft)
17.03.2019 05:34 2,2 °C 66 % 1006,8 hPa 0,0 mm 3,1 km/h (1 Bft) SO 145 ° 0 min 0,000 mm 0,0 UV-I 0 W/m² -3,5 °C 2,2 °C 6,4 km/h (2 Bft)
17.03.2019 05:35 2,2 °C 66 % 1006,7 hPa 0,0 mm 0,1 km/h (0 Bft) SO 145 ° 0 min 0,000 mm 0,0 UV-I 0 W/m² -3,5 °C 2,2 °C 1,6 km/h (1 Bft)
17.03.2019 05:36 2,1 °C 66 % 1006,7 hPa 0,0 mm 0,0 km/h (0 Bft) SO 145 ° 0 min 0,000 mm 0,0 UV-I 0 W/m² -3,6 °C 2,1 °C 0,0 km/h (0 Bft)
17.03.2019 05:37 1,8 °C 67 % 1006,7 hPa 0,0 mm 0,3 km/h (0 Bft) SO 145 ° 0 min 0,000 mm 0,0 UV-I 0 W/m² -3,7 °C 1,8 °C 1,6 km/h (1 Bft)
17.03.2019 05:38 1,7 °C 67 % 1006,7 hPa 0,0 mm 0,4 km/h (0 Bft) SO 145 ° 0 min 0,000 mm 0,0 UV-I 0 W/m² -3,8 °C 1,7 °C 3,2 km/h (1 Bft)
17.03.2019 05:39 1,9 °C 66 % 1006,7 hPa 0,0 mm 6,2 km/h (2 Bft) S-SO 160 ° 0 min 0,000 mm 0,0 UV-I 0 W/m² -3,8 °C 0,1 °C 8,0 km/h (2 Bft)
17.03.2019 05:40 2,0 °C 66 % 1006,7 hPa 0,0 mm 3,9 km/h (1 Bft) S-SO 160 ° 0 min 0,000 mm 0,0 UV-I 0 W/m² -3,7 °C 2,0 °C 6,4 km/h (2 Bft)
17.03.2019 05:41 2,2 °C 66 % 1006,8 hPa 0,0 mm 0,9 km/h (0 Bft) S-SO 159 ° 0 min 0,000 mm 0,0 UV-I 0 W/m² -3,5 °C 2,2 °C 3,2 km/h (1 Bft)
17.03.2019 05:42 2,2 °C 66 % 1006,7 hPa 0,0 mm 1,1 km/h (1 Bft) S-SO 159 ° 0 min 0,000 mm 0,0 UV-I 0 W/m² -3,5 °C 2,2 °C 6,4 km/h (2 Bft)
17.03.2019 05:43 2,2 °C 65 % 1006,7 hPa 0,0 mm 0,2 km/h (0 Bft) S-SO 160 ° 0 min 0,000 mm 0,0 UV-I 0 W/m² -3,7 °C 2,2 °C 1,6 km/h (1 Bft)
17.03.2019 05:44 2,2 °C 65 % 1006,7 hPa 0,0 mm 0,7 km/h (0 Bft) S-SO 160 ° 0 min 0,000 mm 0,0 UV-I 0 W/m² -3,7 °C 2,2 °C 3,2 km/h (1 Bft)
17.03.2019 05:45 2,2 °C 65 % 1006,7 hPa 0,0 mm 1,6 km/h (1 Bft) S-SO 160 ° 0 min 0,000 mm 0,0 UV-I 0 W/m² -3,7 °C 2,2 °C 3,2 km/h (1 Bft)
17.03.2019 05:46 2,3 °C 64 % 1006,7 hPa 0,0 mm 1,2 km/h (1 Bft) S-SO 160 ° 0 min 0,000 mm 0,0 UV-I 0 W/m² -3,8 °C 2,3 °C 3,2 km/h (1 Bft)
17.03.2019 05:47 2,3 °C 65 % 1006,7 hPa 0,0 mm 0,0 km/h (0 Bft) S-SO 160 ° 0 min 0,000 mm 0,0 UV-I 0 W/m² -3,6 °C 2,3 °C 0,0 km/h (0 Bft)
17.03.2019 05:48 2,1 °C 65 % 1006,7 hPa 0,0 mm 0,9 km/h (0 Bft) S-SO 160 ° 0 min 0,000 mm 0,0 UV-I 0 W/m² -3,8 °C 2,1 °C 3,2 km/h (1 Bft)
17.03.2019 05:49 1,9 °C 66 % 1006,7 hPa 0,0 mm 1,5 km/h (1 Bft) S-SO 160 ° 0 min 0,000 mm 0,0 UV-I 0 W/m² -3,8 °C 1,9 °C 3,2 km/h (1 Bft)
17.03.2019 05:50 1,6 °C 66 % 1006,8 hPa 0,0 mm 4,7 km/h (1 Bft) S-SO 168 ° 0 min 0,000 mm 0,0 UV-I 0 W/m² -4,1 °C 0,4 °C 11,3 km/h (2 Bft)
17.03.2019 05:51 1,5 °C 67 % 1006,7 hPa 0,0 mm 6,4 km/h (2 Bft) SO 144 ° 0 min 0,000 mm 0,0 UV-I 0 W/m² -3,9 °C -0,4 °C 8,0 km/h (2 Bft)
17.03.2019 05:52 1,6 °C 68 % 1006,7 hPa 0,0 mm 2,7 km/h (1 Bft) SO 144 ° 0 min 0,000 mm 0,0 UV-I 0 W/m² -3,7 °C 1,6 °C 6,4 km/h (2 Bft)
17.03.2019 05:53 1,7 °C 67 % 1006,7 hPa 0,0 mm 1,8 km/h (1 Bft) SO 144 ° 0 min 0,000 mm 0,0 UV-I 0 W/m² -3,8 °C 1,7 °C 6,4 km/h (2 Bft)
17.03.2019 05:54 1,7 °C 67 % 1006,7 hPa 0,0 mm 4,2 km/h (1 Bft) NW 325 ° 0 min 0,000 mm 0,0 UV-I 0 W/m² -3,8 °C 1,7 °C 6,4 km/h (2 Bft)
17.03.2019 05:55 1,6 °C 67 % 1006,7 hPa 0,0 mm 2,4 km/h (1 Bft) SO 132 ° 0 min 0,000 mm 0,0 UV-I 0 W/m² -3,9 °C 1,6 °C 6,4 km/h (2 Bft)
17.03.2019 05:56 1,6 °C 67 % 1006,7 hPa 0,0 mm 6,6 km/h (2 Bft) SO 132 ° 0 min 0,000 mm 0,0 UV-I 0 W/m² -3,9 °C -0,4 °C 8,0 km/h (2 Bft)
17.03.2019 05:57 1,6 °C 66 % 1006,7 hPa 0,0 mm 3,1 km/h (1 Bft) SO 132 ° 0 min 0,000 mm 0,0 UV-I 0 W/m² -4,1 °C 1,6 °C 4,8 km/h (1 Bft)
17.03.2019 05:58 1,6 °C 67 % 1006,7 hPa 0,0 mm 2,8 km/h (1 Bft) SO 132 ° 0 min 0,000 mm 0,0 UV-I 0 W/m² -3,9 °C 1,6 °C 4,8 km/h (1 Bft)
17.03.2019 05:59 1,6 °C 67 % 1006,8 hPa 0,0 mm 3,4 km/h (1 Bft) SO 132 ° 0 min 0,000 mm 0,0 UV-I 0 W/m² -3,9 °C 1,6 °C 6,4 km/h (2 Bft)
17.03.2019 06:00 1,4 °C 66 % 1006,7 hPa 0,0 mm 5,4 km/h (1 Bft) SO 132 ° 0 min 0,025 mm 0,0 UV-I 0 W/m² -4,2 °C -0,2 °C 8,0 km/h (2 Bft)
17.03.2019 06:01 1,5 °C 66 % 1006,7 hPa 0,0 mm 3,9 km/h (1 Bft) SO 132 ° 0 min 0,000 mm 0,0 UV-I 0 W/m² -4,1 °C 1,5 °C 8,0 km/h (2 Bft)
17.03.2019 06:02 1,6 °C 67 % 1006,7 hPa 0,0 mm 4,0 km/h (1 Bft) NW 312 ° 0 min 0,000 mm 0,0 UV-I 0 W/m² -3,9 °C 1,6 °C 6,4 km/h (2 Bft)
17.03.2019 06:03 1,5 °C 67 % 1006,8 hPa 0,0 mm 1,5 km/h (1 Bft) NW 312 ° 0 min 0,000 mm 0,0 UV-I 0 W/m² -3,9 °C 1,5 °C 6,4 km/h (2 Bft)
17.03.2019 06:04 1,4 °C 67 % 1006,8 hPa 0,0 mm 2,8 km/h (1 Bft) NW 312 ° 0 min 0,000 mm 0,0 UV-I 0 W/m² -4,0 °C 1,4 °C 6,4 km/h (2 Bft)
17.03.2019 06:05 1,5 °C 67 % 1006,7 hPa 0,0 mm 3,2 km/h (1 Bft) NW 312 ° 0 min 0,000 mm 0,0 UV-I 0 W/m² -3,9 °C 1,5 °C 4,8 km/h (1 Bft)
17.03.2019 06:06 1,4 °C 67 % 1006,7 hPa 0,0 mm 2,5 km/h (1 Bft) NW 312 ° 0 min 0,000 mm 0,0 UV-I 0 W/m² -4,0 °C 1,4 °C 3,2 km/h (1 Bft)
17.03.2019 06:07 1,3 °C 67 % 1006,8 hPa 0,0 mm 1,0 km/h (0 Bft) NW 312 ° 0 min 0,000 mm 0,0 UV-I 0 W/m² -4,1 °C 1,3 °C 1,6 km/h (1 Bft)
17.03.2019 06:08 1,3 °C 67 % 1006,7 hPa 0,0 mm 3,4 km/h (1 Bft) NW 312 ° 0 min 0,000 mm 0,0 UV-I 0 W/m² -4,1 °C 1,3 °C 6,4 km/h (2 Bft)
17.03.2019 06:09 1,3 °C 67 % 1006,7 hPa 0,0 mm 4,4 km/h (1 Bft) NW 312 ° 0 min 0,000 mm 0,0 UV-I 0 W/m² -4,1 °C 1,3 °C 6,4 km/h (2 Bft)
17.03.2019 06:10 1,3 °C 67 % 1006,7 hPa 0,0 mm 2,2 km/h (1 Bft) NW 312 ° 0 min 0,000 mm 0,0 UV-I 0 W/m² -4,1 °C 1,3 °C 4,8 km/h (1 Bft)
17.03.2019 06:11 1,3 °C 67 % 1006,7 hPa 0,0 mm 1,8 km/h (1 Bft) NW 312 ° 0 min 0,000 mm 0,0 UV-I 0 W/m² -4,1 °C 1,3 °C 3,2 km/h (1 Bft)
17.03.2019 06:12 1,3 °C 67 % 1006,7 hPa 0,0 mm 1,4 km/h (1 Bft) NO 36 ° 0 min 0,000 mm 0,0 UV-I 0 W/m² -4,1 °C 1,3 °C 3,2 km/h (1 Bft)
17.03.2019 06:13 1,3 °C 67 % 1006,7 hPa 0,0 mm 1,7 km/h (1 Bft) NO 43 ° 0 min 0,000 mm 0,0 UV-I 0 W/m² -4,1 °C 1,3 °C 3,2 km/h (1 Bft)
17.03.2019 06:14 1,3 °C 68 % 1006,7 hPa 0,0 mm 0,1 km/h (0 Bft) NO 43 ° 0 min 0,000 mm 0,0 UV-I 0 W/m² -3,9 °C 1,3 °C 1,6 km/h (1 Bft)
17.03.2019 06:15 1,3 °C 68 % 1006,7 hPa 0,0 mm 1,5 km/h (1 Bft) NO 43 ° 0 min 0,000 mm 0,0 UV-I 0 W/m² -3,9 °C 1,3 °C 3,2 km/h (1 Bft)
17.03.2019 06:16 1,3 °C 67 % 1006,7 hPa 0,0 mm 0,1 km/h (0 Bft) NO 43 ° 0 min 0,000 mm 0,0 UV-I 0 W/m² -4,1 °C 1,3 °C 1,6 km/h (1 Bft)
17.03.2019 06:17 1,3 °C 67 % 1006,7 hPa 0,0 mm 5,7 km/h (1 Bft) S 187 ° 0 min 0,000 mm 0,0 UV-I 0 W/m² -4,1 °C -0,4 °C 12,9 km/h (3 Bft)
17.03.2019 06:18 1,4 °C 69 % 1006,8 hPa 0,0 mm 0,1 km/h (0 Bft) S 187 ° 0 min 0,000 mm 0,0 UV-I 0 W/m² -3,7 °C 1,4 °C 1,6 km/h (1 Bft)
17.03.2019 06:19 1,4 °C 69 % 1006,8 hPa 0,0 mm 0,0 km/h (0 Bft) S 187 ° 0 min 0,000 mm 0,0 UV-I 0 W/m² -3,7 °C 1,4 °C 0,0 km/h (0 Bft)
17.03.2019 06:20 1,4 °C 69 % 1006,7 hPa 0,0 mm 0,0 km/h (0 Bft) S 187 ° 0 min 0,000 mm 0,0 UV-I 0 W/m² -3,7 °C 1,4 °C 0,0 km/h (0 Bft)
17.03.2019 06:21 1,5 °C 68 % 1006,8 hPa 0,0 mm 2,0 km/h (1 Bft) S 189 ° 0 min 0,000 mm 0,0 UV-I 0 W/m² -3,7 °C 1,5 °C 4,8 km/h (1 Bft)
17.03.2019 06:22 1,7 °C 68 % 1006,8 hPa 0,0 mm 2,5 km/h (1 Bft) S 188 ° 0 min 0,000 mm 0,0 UV-I 0 W/m² -3,6 °C 1,7 °C 4,8 km/h (1 Bft)
17.03.2019 06:23 1,9 °C 67 % 1006,9 hPa 0,0 mm 4,7 km/h (1 Bft) S 188 ° 0 min 0,000 mm 0,0 UV-I 0 W/m² -3,6 °C 0,7 °C 6,4 km/h (2 Bft)
17.03.2019 06:24 2,1 °C 66 % 1006,8 hPa 0,0 mm 4,1 km/h (1 Bft) S 188 ° 0 min 0,000 mm 0,0 UV-I 0 W/m² -3,6 °C 2,1 °C 6,4 km/h (2 Bft)
17.03.2019 06:25 2,3 °C 65 % 1006,8 hPa 0,0 mm 3,7 km/h (1 Bft) S 188 ° 0 min 0,000 mm 0,0 UV-I 0 W/m² -3,6 °C 2,3 °C 4,8 km/h (1 Bft)
17.03.2019 06:26 2,4 °C 65 % 1006,8 hPa 0,0 mm 1,5 km/h (1 Bft) S 188 ° 0 min 0,000 mm 0,0 UV-I 0 W/m² -3,5 °C 2,4 °C 4,8 km/h (1 Bft)
17.03.2019 06:27 2,6 °C 64 % 1006,8 hPa 0,0 mm 0,0 km/h (0 Bft) S 188 ° 0 min 0,000 mm 0,0 UV-I 0 W/m² -3,5 °C 2,6 °C 0,0 km/h (0 Bft)
17.03.2019 06:28 2,4 °C 65 % 1006,8 hPa 0,0 mm 0,0 km/h (0 Bft) S 188 ° 0 min 0,000 mm 0,0 UV-I 0 W/m² -3,5 °C 2,4 °C 0,0 km/h (0 Bft)
17.03.2019 06:29 2,2 °C 65 % 1006,8 hPa 0,0 mm 0,0 km/h (0 Bft) S 188 ° 0 min 0,000 mm 0,0 UV-I 5 W/m² -3,7 °C 2,2 °C 0,0 km/h (0 Bft)
17.03.2019 06:30 1,9 °C 66 % 1006,8 hPa 0,0 mm 0,7 km/h (0 Bft) S 188 ° 0 min 0,000 mm 0,0 UV-I 5 W/m² -3,8 °C 1,9 °C 3,2 km/h (1 Bft)
17.03.2019 06:31 1,7 °C 66 % 1006,8 hPa 0,0 mm 1,6 km/h (1 Bft) S 188 ° 0 min 0,000 mm 0,0 UV-I 5 W/m² -4,0 °C 1,7 °C 3,2 km/h (1 Bft)
17.03.2019 06:32 1,5 °C 67 % 1006,8 hPa 0,0 mm 0,0 km/h (0 Bft) S 188 ° 0 min 0,000 mm 0,0 UV-I 5 W/m² -3,9 °C 1,5 °C 0,0 km/h (0 Bft)
17.03.2019 06:33 1,4 °C 67 % 1006,8 hPa 0,0 mm 0,9 km/h (0 Bft) S 188 ° 0 min 0,000 mm 0,0 UV-I 5 W/m² -4,0 °C 1,4 °C 3,2 km/h (1 Bft)
17.03.2019 06:34 1,3 °C 68 % 1006,7 hPa 0,0 mm 0,7 km/h (0 Bft) S 188 ° 0 min 0,000 mm 0,0 UV-I 7 W/m² -3,9 °C 1,3 °C 1,6 km/h (1 Bft)
17.03.2019 06:35 1,3 °C 68 % 1006,8 hPa 0,0 mm 2,0 km/h (1 Bft) S 169 ° 0 min 0,000 mm 0,0 UV-I 7 W/m² -3,9 °C 1,3 °C 8,0 km/h (2 Bft)
17.03.2019 06:36 1,5 °C 69 % 1006,7 hPa 0,0 mm 5,7 km/h (1 Bft) S-SO 159 ° 0 min 0,000 mm 0,0 UV-I 9 W/m² -3,6 °C -0,2 °C 8,0 km/h (2 Bft)
17.03.2019 06:37 1,9 °C 67 % 1006,7 hPa 0,0 mm 3,6 km/h (1 Bft) S-SO 159 ° 0 min 0,000 mm 0,0 UV-I 9 W/m² -3,6 °C 1,9 °C 6,4 km/h (2 Bft)
17.03.2019 06:38 2,3 °C 65 % 1006,7 hPa 0,0 mm 2,3 km/h (1 Bft) S-SO 152 ° 0 min 0,000 mm 0,0 UV-I 9 W/m² -3,6 °C 2,3 °C 8,0 km/h (2 Bft)
17.03.2019 06:39 2,7 °C 62 % 1006,6 hPa 0,0 mm 5,2 km/h (1 Bft) S-SO 153 ° 0 min 0,000 mm 0,0 UV-I 11 W/m² -3,8 °C 1,4 °C 8,0 km/h (2 Bft)
17.03.2019 06:40 3,1 °C 60 % 1006,6 hPa 0,0 mm 2,8 km/h (1 Bft) S-SO 153 ° 0 min 0,000 mm 0,0 UV-I 11 W/m² -3,9 °C 3,1 °C 4,8 km/h (1 Bft)
17.03.2019 06:41 3,4 °C 59 % 1006,6 hPa 0,0 mm 3,1 km/h (1 Bft) S-SO 153 ° 0 min 0,000 mm 0,0 UV-I 12 W/m² -3,8 °C 3,4 °C 6,4 km/h (2 Bft)
17.03.2019 06:42 3,7 °C 59 % 1006,6 hPa 0,0 mm 2,6 km/h (1 Bft) S-SO 153 ° 0 min 0,000 mm 0,0 UV-I 12 W/m² -3,6 °C 3,7 °C 4,8 km/h (1 Bft)
17.03.2019 06:43 3,9 °C 57 % 1006,5 hPa 0,0 mm 2,3 km/h (1 Bft) S-SO 153 ° 0 min 0,000 mm 0,0 UV-I 14 W/m² -3,8 °C 3,9 °C 3,2 km/h (1 Bft)
17.03.2019 06:44 4,2 °C 55 % 1006,6 hPa 0,0 mm 1,7 km/h (1 Bft) S-SO 153 ° 0 min 0,000 mm 0,0 UV-I 14 W/m² -4,0 °C 4,2 °C 3,2 km/h (1 Bft)
17.03.2019 06:45 4,2 °C 57 % 1006,6 hPa 0,0 mm 1,4 km/h (1 Bft) S-SO 153 ° 0 min 0,000 mm 0,0 UV-I 16 W/m² -3,5 °C 4,2 °C 3,2 km/h (1 Bft)
17.03.2019 06:46 4,1 °C 58 % 1006,5 hPa 0,0 mm 2,8 km/h (1 Bft) S-SO 153 ° 0 min 0,000 mm 0,0 UV-I 16 W/m² -3,4 °C 4,1 °C 3,2 km/h (1 Bft)
17.03.2019 06:47 4,2 °C 55 % 1006,5 hPa 0,0 mm 0,8 km/h (0 Bft) S-SO 153 ° 0 min 0,000 mm 0,0 UV-I 18 W/m² -4,0 °C 4,2 °C 3,2 km/h (1 Bft)
17.03.2019 06:48 4,3 °C 56 % 1006,5 hPa 0,0 mm 3,0 km/h (1 Bft) S-SO 153 ° 0 min 0,000 mm 0,0 UV-I 19 W/m² -3,7 °C 4,3 °C 6,4 km/h (2 Bft)
17.03.2019 06:49 4,4 °C 55 % 1006,5 hPa 0,0 mm 3,5 km/h (1 Bft) S-SO 153 ° 0 min 0,000 mm 0,0 UV-I 21 W/m² -3,8 °C 4,4 °C 4,8 km/h (1 Bft)
17.03.2019 06:50 4,6 °C 54 % 1006,4 hPa 0,0 mm 4,8 km/h (1 Bft) S-SO 153 ° 0 min 0,000 mm 0,0 UV-I 23 W/m² -3,9 °C 3,7 °C 6,4 km/h (2 Bft)
17.03.2019 06:51 4,7 °C 54 % 1006,4 hPa 0,0 mm 5,0 km/h (1 Bft) S-SO 153 ° 0 min 0,000 mm 0,0 UV-I 23 W/m² -3,8 °C 3,7 °C 6,4 km/h (2 Bft)
17.03.2019 06:52 4,7 °C 55 % 1006,5 hPa 0,0 mm 7,8 km/h (2 Bft) S-SO 162 ° 0 min 0,000 mm 0,0 UV-I 25 W/m² -3,6 °C 2,8 °C 12,9 km/h (3 Bft)
17.03.2019 06:53 4,7 °C 55 % 1006,4 hPa 0,0 mm 10,5 km/h (2 Bft) S-SW 194 ° 0 min 0,000 mm 0,0 UV-I 28 W/m² -3,6 °C 2,2 °C 16,1 km/h (3 Bft)
17.03.2019 06:54 4,7 °C 54 % 1006,4 hPa 0,0 mm 5,5 km/h (1 Bft) S 169 ° 0 min 0,000 mm 0,0 UV-I 28 W/m² -3,8 °C 3,6 °C 8,0 km/h (2 Bft)
17.03.2019 06:55 4,8 °C 53 % 1006,4 hPa 0,0 mm 1,7 km/h (1 Bft) S-SO 158 ° 0 min 0,000 mm 0,0 UV-I 30 W/m² -4,0 °C 4,8 °C 4,8 km/h (1 Bft)
17.03.2019 06:56 4,8 °C 53 % 1006,4 hPa 0,0 mm 3,6 km/h (1 Bft) S-SO 157 ° 0 min 0,000 mm 0,0 UV-I 32 W/m² -4,0 °C 4,8 °C 8,0 km/h (2 Bft)
17.03.2019 06:57 4,9 °C 52 % 1006,4 hPa 0,0 mm 1,9 km/h (1 Bft) S-SO 157 ° 0 min 0,000 mm 0,0 UV-I 32 W/m² -4,1 °C 4,9 °C 4,8 km/h (1 Bft)
17.03.2019 06:58 4,9 °C 51 % 1006,5 hPa 0,0 mm 3,7 km/h (1 Bft) SO 145 ° 0 min 0,000 mm 0,0 UV-I 33 W/m² -4,4 °C 4,9 °C 8,0 km/h (2 Bft)
17.03.2019 06:59 5,1 °C 53 % 1006,5 hPa 0,0 mm 3,5 km/h (1 Bft) SO 145 ° 0 min 0,000 mm 0,0 UV-I 35 W/m² -3,7 °C 5,1 °C 4,8 km/h (1 Bft)
17.03.2019 07:00 5,2 °C 51 % 1006,4 hPa 0,0 mm 1,7 km/h (1 Bft) O-SO 105 ° 0 min 0,000 mm 0,0 UV-I 37 W/m² -4,1 °C 5,2 °C 4,8 km/h (1 Bft)
17.03.2019 07:01 5,2 °C 51 % 1006,4 hPa 0,0 mm 0,1 km/h (0 Bft) O-SO 105 ° 0 min 0,026 mm 0,0 UV-I 37 W/m² -4,1 °C 5,2 °C 1,6 km/h (1 Bft)
17.03.2019 07:02 4,9 °C 55 % 1006,5 hPa 0,0 mm 0,0 km/h (0 Bft) O-SO 105 ° 0 min 0,000 mm 0,0 UV-I 39 W/m² -3,4 °C 4,9 °C 0,0 km/h (0 Bft)
17.03.2019 07:03 4,6 °C 57 % 1006,4 hPa 0,0 mm 1,6 km/h (1 Bft) O-SO 105 ° 0 min 0,000 mm 0,0 UV-I 39 W/m² -3,2 °C 4,6 °C 3,2 km/h (1 Bft)
17.03.2019 07:04 3,9 °C 58 % 1006,5 hPa 0,0 mm 3,8 km/h (1 Bft) O-SO 105 ° 0 min 0,000 mm 0,0 UV-I 40 W/m² -3,6 °C 3,9 °C 6,4 km/h (2 Bft)
17.03.2019 07:05 3,8 °C 58 % 1006,5 hPa 0,0 mm 1,9 km/h (1 Bft) O-SO 105 ° 0 min 0,000 mm 0,0 UV-I 40 W/m² -3,7 °C 3,8 °C 3,2 km/h (1 Bft)
17.03.2019 07:06 4,0 °C 57 % 1006,4 hPa 0,0 mm 2,3 km/h (1 Bft) O-SO 106 ° 0 min 0,000 mm 0,0 UV-I 40 W/m² -3,7 °C 4,0 °C 4,8 km/h (1 Bft)
17.03.2019 07:07 4,1 °C 56 % 1006,5 hPa 0,0 mm 0,7 km/h (0 Bft) O-SO 105 ° 0 min 0,000 mm 0,0 UV-I 42 W/m² -3,9 °C 4,1 °C 1,6 km/h (1 Bft)
17.03.2019 07:08 4,0 °C 59 % 1006,4 hPa 0,0 mm 0,0 km/h (0 Bft) O-SO 105 ° 0 min 0,000 mm 0,0 UV-I 42 W/m² -3,3 °C 4,0 °C 0,0 km/h (0 Bft)
17.03.2019 07:09 3,7 °C 60 % 1006,4 hPa 0,0 mm 0,0 km/h (0 Bft) O-SO 105 ° 0 min 0,000 mm 0,0 UV-I 42 W/m² -3,3 °C 3,7 °C 0,0 km/h (0 Bft)
17.03.2019 07:10 3,5 °C 60 % 1006,4 hPa 0,0 mm 2,1 km/h (1 Bft) O-SO 105 ° 0 min 0,000 mm 0,0 UV-I 44 W/m² -3,5 °C 3,5 °C 4,8 km/h (1 Bft)
17.03.2019 07:11 3,6 °C 60 % 1006,5 hPa 0,0 mm 3,2 km/h (1 Bft) SW 228 ° 0 min 0,000 mm 0,0 UV-I 46 W/m² -3,4 °C 3,6 °C 6,4 km/h (2 Bft)
17.03.2019 07:12 3,8 °C 58 % 1006,4 hPa 0,0 mm 4,2 km/h (1 Bft) S-SO 167 ° 0 min 0,000 mm 0,0 UV-I 47 W/m² -3,7 °C 3,8 °C 8,0 km/h (2 Bft)
17.03.2019 07:13 4,2 °C 58 % 1006,4 hPa 0,0 mm 2,9 km/h (1 Bft) S-SO 167 ° 0 min 0,000 mm 0,0 UV-I 49 W/m² -3,3 °C 4,2 °C 6,4 km/h (2 Bft)
17.03.2019 07:14 4,6 °C 55 % 1006,4 hPa 0,0 mm 3,0 km/h (1 Bft) S-SO 165 ° 0 min 0,000 mm 0,0 UV-I 49 W/m² -3,6 °C 4,6 °C 4,8 km/h (1 Bft)
17.03.2019 07:15 4,8 °C 54 % 1006,4 hPa 0,0 mm 4,1 km/h (1 Bft) S-SO 165 ° 0 min 0,000 mm 0,0 UV-I 49 W/m² -3,7 °C 4,8 °C 8,0 km/h (2 Bft)
17.03.2019 07:16 5,1 °C 53 % 1006,4 hPa 0,0 mm 3,1 km/h (1 Bft) S 175 ° 0 min 0,000 mm 0,0 UV-I 54 W/m² -3,7 °C 5,1 °C 6,4 km/h (2 Bft)
17.03.2019 07:17 5,2 °C 53 % 1006,4 hPa 0,0 mm 6,4 km/h (2 Bft) S-SO 159 ° 0 min 0,000 mm 0,0 UV-I 54 W/m² -3,6 °C 3,8 °C 8,0 km/h (2 Bft)
17.03.2019 07:18 5,3 °C 52 % 1006,3 hPa 0,0 mm 4,6 km/h (1 Bft) S-SO 157 ° 0 min 0,000 mm 0,0 UV-I 56 W/m² -3,7 °C 4,6 °C 9,7 km/h (2 Bft)
17.03.2019 07:19 5,4 °C 52 % 1006,4 hPa 0,0 mm 1,8 km/h (1 Bft) S-SO 157 ° 0 min 0,000 mm 0,0 UV-I 58 W/m² -3,7 °C 5,4 °C 3,2 km/h (1 Bft)
17.03.2019 07:20 5,5 °C 52 % 1006,5 hPa 0,0 mm 1,5 km/h (1 Bft) NW 324 ° 0 min 0,000 mm 0,0 UV-I 58 W/m² -3,6 °C 5,5 °C 4,8 km/h (1 Bft)
17.03.2019 07:21 5,3 °C 54 % 1006,5 hPa 0,0 mm 3,0 km/h (1 Bft) NO 39 ° 0 min 0,000 mm 0,0 UV-I 60 W/m² -3,2 °C 5,3 °C 6,4 km/h (2 Bft)
17.03.2019 07:22 4,9 °C 56 % 1006,5 hPa 0,0 mm 0,0 km/h (0 Bft) S-SW 212 ° 0 min 0,000 mm 0,0 UV-I 62 W/m² -3,1 °C 4,9 °C 0,0 km/h (0 Bft)
17.03.2019 07:23 4,5 °C 57 % 1006,5 hPa 0,0 mm 0,2 km/h (0 Bft) S-SW 212 ° 0 min 0,000 mm 0,0 UV-I 62 W/m² -3,3 °C 4,5 °C 1,6 km/h (1 Bft)
17.03.2019 07:24 4,2 °C 59 % 1006,5 hPa 0,0 mm 1,9 km/h (1 Bft) N 11 ° 0 min 0,000 mm 0,0 UV-I 62 W/m² -3,1 °C 4,2 °C 4,8 km/h (1 Bft)
17.03.2019 07:25 3,8 °C 60 % 1006,5 hPa 0,0 mm 2,7 km/h (1 Bft) NO 55 ° 0 min 0,000 mm 0,0 UV-I 63 W/m² -3,2 °C 3,8 °C 3,2 km/h (1 Bft)
17.03.2019 07:26 3,6 °C 61 % 1006,6 hPa 0,0 mm 3,4 km/h (1 Bft) NO 55 ° 0 min 0,000 mm 0,0 UV-I 63 W/m² -3,2 °C 3,6 °C 4,8 km/h (1 Bft)
17.03.2019 07:27 3,4 °C 61 % 1006,5 hPa 0,0 mm 0,1 km/h (0 Bft) NO 55 ° 0 min 0,000 mm 0,0 UV-I 65 W/m² -3,4 °C 3,4 °C 1,6 km/h (1 Bft)
17.03.2019 07:28 3,4 °C 61 % 1006,5 hPa 0,0 mm 0,4 km/h (0 Bft) NO 55 ° 0 min 0,000 mm 0,0 UV-I 67 W/m² -3,4 °C 3,4 °C 1,6 km/h (1 Bft)
17.03.2019 07:29 3,3 °C 62 % 1006,6 hPa 0,0 mm 2,4 km/h (1 Bft) NO 55 ° 0 min 0,000 mm 0,0 UV-I 67 W/m² -3,3 °C 3,3 °C 4,8 km/h (1 Bft)
17.03.2019 07:30 3,3 °C 62 % 1006,6 hPa 0,0 mm 3,6 km/h (1 Bft) NO 55 ° 0 min 0,000 mm 0,0 UV-I 69 W/m² -3,3 °C 3,3 °C 4,8 km/h (1 Bft)
17.03.2019 07:31 3,2 °C 62 % 1006,6 hPa 0,0 mm 1,9 km/h (1 Bft) NO 55 ° 0 min 0,000 mm 0,0 UV-I 69 W/m² -3,4 °C 3,2 °C 4,8 km/h (1 Bft)
17.03.2019 07:32 3,1 °C 63 % 1006,6 hPa 0,0 mm 1,1 km/h (1 Bft) NO 55 ° 0 min 0,000 mm 0,0 UV-I 70 W/m² -3,2 °C 3,1 °C 3,2 km/h (1 Bft)
17.03.2019 07:33 3,0 °C 63 % 1006,7 hPa 0,0 mm 2,1 km/h (1 Bft) NO 55 ° 0 min 0,000 mm 0,0 UV-I 70 W/m² -3,3 °C 3,0 °C 3,2 km/h (1 Bft)
17.03.2019 07:34 3,0 °C 64 % 1006,7 hPa 0,0 mm 1,5 km/h (1 Bft) NO 55 ° 0 min 0,000 mm 0,0 UV-I 72 W/m² -3,1 °C 3,0 °C 4,8 km/h (1 Bft)
17.03.2019 07:35 3,1 °C 63 % 1006,6 hPa 0,0 mm 2,9 km/h (1 Bft) NO 55 ° 0 min 0,000 mm 0,0 UV-I 72 W/m² -3,2 °C 3,1 °C 4,8 km/h (1 Bft)
17.03.2019 07:36 3,2 °C 63 % 1006,6 hPa 0,0 mm 2,1 km/h (1 Bft) NO 55 ° 0 min 0,000 mm 0,0 UV-I 72 W/m² -3,1 °C 3,2 °C 3,2 km/h (1 Bft)
17.03.2019 07:37 3,2 °C 63 % 1006,6 hPa 0,0 mm 3,1 km/h (1 Bft) NO 55 ° 0 min 0,000 mm 0,0 UV-I 74 W/m² -3,1 °C 3,2 °C 4,8 km/h (1 Bft)
17.03.2019 07:38 3,3 °C 62 % 1006,6 hPa 0,0 mm 1,9 km/h (1 Bft) NO 55 ° 0 min 0,000 mm 0,5 UV-I 74 W/m² -3,3 °C 3,3 °C 3,2 km/h (1 Bft)
17.03.2019 07:39 3,3 °C 63 % 1006,6 hPa 0,0 mm 0,0 km/h (0 Bft) NO 55 ° 0 min 0,000 mm 0,5 UV-I 74 W/m² -3,1 °C 3,3 °C 0,0 km/h (0 Bft)
17.03.2019 07:40 3,2 °C 64 % 1006,6 hPa 0,0 mm 0,0 km/h (0 Bft) NO 55 ° 0 min 0,000 mm 0,5 UV-I 76 W/m² -2,9 °C 3,2 °C 0,0 km/h (0 Bft)
17.03.2019 07:41 3,2 °C 63 % 1006,6 hPa 0,0 mm 0,0 km/h (0 Bft) NO 55 ° 0 min 0,000 mm 0,5 UV-I 76 W/m² -3,1 °C 3,2 °C 0,0 km/h (0 Bft)
17.03.2019 07:42 3,2 °C 62 % 1006,6 hPa 0,0 mm 0,0 km/h (0 Bft) NO 55 ° 0 min 0,000 mm 0,5 UV-I 76 W/m² -3,4 °C 3,2 °C 0,0 km/h (0 Bft)
17.03.2019 07:43 3,3 °C 62 % 1006,5 hPa 0,0 mm 0,0 km/h (0 Bft) NO 55 ° 0 min 0,000 mm 0,5 UV-I 77 W/m² -3,3 °C 3,3 °C 0,0 km/h (0 Bft)
17.03.2019 07:44 3,4 °C 63 % 1006,5 hPa 0,0 mm 0,3 km/h (0 Bft) NO 55 ° 0 min 0,000 mm 0,5 UV-I 77 W/m² -3,0 °C 3,4 °C 3,2 km/h (1 Bft)
17.03.2019 07:45 3,5 °C 62 % 1006,5 hPa 0,0 mm 1,2 km/h (1 Bft) NO 55 ° 0 min 0,000 mm 0,5 UV-I 77 W/m² -3,1 °C 3,5 °C 3,2 km/h (1 Bft)
17.03.2019 07:46 3,5 °C 62 % 1006,6 hPa 0,0 mm 0,0 km/h (0 Bft) NO 55 ° 0 min 0,000 mm 0,5 UV-I 77 W/m² -3,1 °C 3,5 °C 0,0 km/h (0 Bft)
17.03.2019 07:47 3,4 °C 62 % 1006,6 hPa 0,0 mm 0,2 km/h (0 Bft) NO 55 ° 0 min 0,000 mm 0,5 UV-I 79 W/m² -3,2 °C 3,4 °C 1,6 km/h (1 Bft)
17.03.2019 07:48 3,6 °C 61 % 1006,6 hPa 0,0 mm 2,6 km/h (1 Bft) NO 55 ° 0 min 0,000 mm 0,5 UV-I 79 W/m² -3,2 °C 3,6 °C 3,2 km/h (1 Bft)
17.03.2019 07:49 3,7 °C 61 % 1006,6 hPa 0,0 mm 1,4 km/h (1 Bft) NO 55 ° 0 min 0,000 mm 0,6 UV-I 79 W/m² -3,1 °C 3,7 °C 3,2 km/h (1 Bft)
17.03.2019 07:50 3,8 °C 62 % 1006,6 hPa 0,0 mm 1,1 km/h (1 Bft) NO 55 ° 0 min 0,000 mm 0,6 UV-I 79 W/m² -2,8 °C 3,8 °C 1,6 km/h (1 Bft)
17.03.2019 07:51 3,9 °C 63 % 1006,6 hPa 0,0 mm 6,2 km/h (2 Bft) S-SW 198 ° 0 min 0,000 mm 0,6 UV-I 79 W/m² -2,5 °C 2,4 °C 9,7 km/h (2 Bft)
17.03.2019 07:52 4,2 °C 61 % 1006,6 hPa 0,0 mm 4,3 km/h (1 Bft) S 179 ° 0 min 0,000 mm 0,6 UV-I 79 W/m² -2,6 °C 4,2 °C 8,0 km/h (2 Bft)
17.03.2019 07:53 4,4 °C 60 % 1006,6 hPa 0,0 mm 2,2 km/h (1 Bft) S 179 ° 0 min 0,000 mm 0,6 UV-I 79 W/m² -2,7 °C 4,4 °C 3,2 km/h (1 Bft)
17.03.2019 07:54 4,6 °C 61 % 1006,6 hPa 0,0 mm 1,9 km/h (1 Bft) S 179 ° 0 min 0,000 mm 0,6 UV-I 81 W/m² -2,3 °C 4,6 °C 4,8 km/h (1 Bft)
17.03.2019 07:55 4,8 °C 58 % 1006,5 hPa 0,0 mm 2,5 km/h (1 Bft) S 179 ° 0 min 0,000 mm 0,6 UV-I 81 W/m² -2,7 °C 4,8 °C 3,2 km/h (1 Bft)
17.03.2019 07:56 5,0 °C 58 % 1006,5 hPa 0,0 mm 3,0 km/h (1 Bft) S 179 ° 0 min 0,000 mm 0,6 UV-I 79 W/m² -2,6 °C 5,0 °C 6,4 km/h (2 Bft)
17.03.2019 07:57 5,2 °C 57 % 1006,5 hPa 0,0 mm 3,1 km/h (1 Bft) S 179 ° 0 min 0,000 mm 0,6 UV-I 81 W/m² -2,6 °C 5,2 °C 4,8 km/h (1 Bft)
17.03.2019 07:58 5,4 °C 56 % 1006,4 hPa 0,0 mm 2,0 km/h (1 Bft) S 179 ° 0 min 0,000 mm 0,7 UV-I 79 W/m² -2,7 °C 5,4 °C 3,2 km/h (1 Bft)
17.03.2019 07:59 5,6 °C 55 % 1006,4 hPa 0,0 mm 0,7 km/h (0 Bft) S 179 ° 0 min 0,000 mm 0,7 UV-I 81 W/m² -2,7 °C 5,6 °C 1,6 km/h (1 Bft)
17.03.2019 08:00 5,8 °C 54 % 1006,4 hPa 0,0 mm 0,0 km/h (0 Bft) S 179 ° 0 min 0,025 mm 0,7 UV-I 79 W/m² -2,8 °C 5,8 °C 0,0 km/h (0 Bft)
17.03.2019 08:01 5,9 °C 56 % 1006,4 hPa 0,0 mm 0,0 km/h (0 Bft) S 179 ° 0 min 0,000 mm 0,7 UV-I 79 W/m² -2,2 °C 5,9 °C 0,0 km/h (0 Bft)
17.03.2019 08:02 5,7 °C 57 % 1006,4 hPa 0,0 mm 0,0 km/h (0 Bft) S 179 ° 0 min 0,000 mm 0,7 UV-I 79 W/m² -2,1 °C 5,7 °C 0,0 km/h (0 Bft)
17.03.2019 08:03 5,3 °C 59 % 1006,4 hPa 0,0 mm 0,0 km/h (0 Bft) S 179 ° 0 min 0,000 mm 0,7 UV-I 81 W/m² -2,0 °C 5,3 °C 0,0 km/h (0 Bft)
17.03.2019 08:04 5,0 °C 60 % 1006,5 hPa 0,0 mm 0,7 km/h (0 Bft) S 179 ° 0 min 0,000 mm 0,7 UV-I 83 W/m² -2,1 °C 5,0 °C 1,6 km/h (1 Bft)
17.03.2019 08:05 4,7 °C 60 % 1006,5 hPa 0,0 mm 1,1 km/h (1 Bft) S 179 ° 0 min 0,000 mm 0,7 UV-I 83 W/m² -2,4 °C 4,7 °C 1,6 km/h (1 Bft)
17.03.2019 08:06 4,5 °C 62 % 1006,5 hPa 0,0 mm 0,9 km/h (0 Bft) S 179 ° 0 min 0,000 mm 0,7 UV-I 83 W/m² -2,1 °C 4,5 °C 1,6 km/h (1 Bft)
17.03.2019 08:07 4,4 °C 62 % 1006,5 hPa 0,0 mm 0,0 km/h (0 Bft) S 179 ° 0 min 0,000 mm 0,8 UV-I 83 W/m² -2,2 °C 4,4 °C 0,0 km/h (0 Bft)
17.03.2019 08:08 4,3 °C 63 % 1006,5 hPa 0,0 mm 0,0 km/h (0 Bft) S 179 ° 0 min 0,000 mm 0,8 UV-I 84 W/m² -2,1 °C 4,3 °C 0,0 km/h (0 Bft)
17.03.2019 08:09 4,3 °C 63 % 1006,5 hPa 0,0 mm 0,0 km/h (0 Bft) S 179 ° 0 min 0,000 mm 0,8 UV-I 93 W/m² -2,1 °C 4,3 °C 0,0 km/h (0 Bft)
17.03.2019 08:10 4,3 °C 63 % 1006,5 hPa 0,0 mm 0,0 km/h (0 Bft) S 179 ° 0 min 0,000 mm 0,8 UV-I 100 W/m² -2,1 °C 4,3 °C 0,0 km/h (0 Bft)
17.03.2019 08:11 4,2 °C 63 % 1006,5 hPa 0,0 mm 0,0 km/h (0 Bft) S 179 ° 0 min 0,000 mm 0,8 UV-I 105 W/m² -2,2 °C 4,2 °C 0,0 km/h (0 Bft)
17.03.2019 08:12 4,2 °C 63 % 1006,5 hPa 0,0 mm 0,7 km/h (0 Bft) S 179 ° 0 min 0,000 mm 0,8 UV-I 111 W/m² -2,2 °C 4,2 °C 4,8 km/h (1 Bft)
17.03.2019 08:13 4,3 °C 62 % 1006,5 hPa 0,0 mm 3,1 km/h (1 Bft) S 179 ° 0 min 0,000 mm 0,9 UV-I 109 W/m² -2,3 °C 4,3 °C 4,8 km/h (1 Bft)
17.03.2019 08:14 4,4 °C 63 % 1006,5 hPa 0,0 mm 0,6 km/h (0 Bft) S 179 ° 0 min 0,000 mm 0,9 UV-I 109 W/m² -2,0 °C 4,4 °C 1,6 km/h (1 Bft)
17.03.2019 08:15 4,6 °C 62 % 1006,5 hPa 0,0 mm 0,2 km/h (0 Bft) S 179 ° 0 min 0,000 mm 0,9 UV-I 118 W/m² -2,0 °C 4,6 °C 1,6 km/h (1 Bft)
17.03.2019 08:16 4,8 °C 62 % 1006,4 hPa 0,0 mm 0,1 km/h (0 Bft) S 179 ° 0 min 0,000 mm 0,9 UV-I 127 W/m² -1,9 °C 4,8 °C 1,6 km/h (1 Bft)
17.03.2019 08:17 5,2 °C 60 % 1006,4 hPa 0,0 mm 2,7 km/h (1 Bft) S 179 ° 0 min 0,000 mm 0,9 UV-I 135 W/m² -1,9 °C 5,2 °C 4,8 km/h (1 Bft)
17.03.2019 08:18 5,6 °C 56 % 1006,5 hPa 0,0 mm 0,3 km/h (0 Bft) S 179 ° 0 min 0,000 mm 0,9 UV-I 130 W/m² -2,5 °C 5,6 °C 1,6 km/h (1 Bft)
17.03.2019 08:19 5,9 °C 56 % 1006,4 hPa 0,0 mm 2,6 km/h (1 Bft) S 179 ° 0 min 0,000 mm 0,9 UV-I 125 W/m² -2,2 °C 5,9 °C 4,8 km/h (1 Bft)
17.03.2019 08:20 6,1 °C 57 % 1006,4 hPa 0,0 mm 3,7 km/h (1 Bft) S 179 ° 0 min 0,000 mm 0,9 UV-I 127 W/m² -1,8 °C 6,1 °C 4,8 km/h (1 Bft)
17.03.2019 08:21 6,2 °C 56 % 1006,5 hPa 0,0 mm 2,6 km/h (1 Bft) S 179 ° 0 min 0,000 mm 0,9 UV-I 127 W/m² -1,9 °C 6,2 °C 4,8 km/h (1 Bft)
17.03.2019 08:22 6,6 °C 54 % 1006,4 hPa 0,0 mm 4,2 km/h (1 Bft) S 179 ° 0 min 0,000 mm 1,0 UV-I 128 W/m² -2,0 °C 6,6 °C 4,8 km/h (1 Bft)
17.03.2019 08:23 6,9 °C 51 % 1006,4 hPa 0,0 mm 1,9 km/h (1 Bft) S 179 ° 0 min 0,000 mm 1,0 UV-I 132 W/m² -2,5 °C 6,9 °C 3,2 km/h (1 Bft)
17.03.2019 08:24 7,2 °C 54 % 1006,4 hPa 0,0 mm 4,0 km/h (1 Bft) N 355 ° 0 min 0,000 mm 1,0 UV-I 134 W/m² -1,5 °C 7,2 °C 4,8 km/h (1 Bft)
17.03.2019 08:25 7,1 °C 54 % 1006,5 hPa 0,0 mm 0,2 km/h (0 Bft) N 355 ° 0 min 0,000 mm 1,0 UV-I 135 W/m² -1,6 °C 7,1 °C 1,6 km/h (1 Bft)
17.03.2019 08:26 6,9 °C 55 % 1006,5 hPa 0,0 mm 3,0 km/h (1 Bft) O-NO 73 ° 0 min 0,000 mm 1,0 UV-I 132 W/m² -1,5 °C 6,9 °C 6,4 km/h (2 Bft)
17.03.2019 08:27 6,8 °C 54 % 1006,5 hPa 0,0 mm 4,7 km/h (1 Bft) O-SO 113 ° 0 min 0,000 mm 1,0 UV-I 148 W/m² -1,8 °C 6,2 °C 6,4 km/h (2 Bft)
17.03.2019 08:28 6,8 °C 55 % 1006,5 hPa 0,0 mm 3,2 km/h (1 Bft) O-SO 113 ° 0 min 0,000 mm 1,0 UV-I 174 W/m² -1,6 °C 6,8 °C 4,8 km/h (1 Bft)
17.03.2019 08:29 7,1 °C 55 % 1006,5 hPa 0,0 mm 1,4 km/h (1 Bft) O-SO 113 ° 0 min 0,000 mm 1,1 UV-I 186 W/m² -1,3 °C 7,1 °C 3,2 km/h (1 Bft)
17.03.2019 08:30 7,2 °C 57 % 1006,5 hPa 0,0 mm 1,9 km/h (1 Bft) NO 47 ° 0 min 0,000 mm 1,1 UV-I 193 W/m² -0,7 °C 7,2 °C 3,2 km/h (1 Bft)
17.03.2019 08:31 7,2 °C 57 % 1006,6 hPa 0,0 mm 1,0 km/h (0 Bft) N-NW 344 ° 0 min 0,000 mm 1,1 UV-I 192 W/m² -0,7 °C 7,2 °C 3,2 km/h (1 Bft)
17.03.2019 08:32 7,0 °C 57 % 1006,6 hPa 0,0 mm 1,1 km/h (1 Bft) SW 223 ° 0 min 0,000 mm 1,1 UV-I 183 W/m² -0,9 °C 7,0 °C 4,8 km/h (1 Bft)
17.03.2019 08:33 7,1 °C 54 % 1006,6 hPa 0,0 mm 3,5 km/h (1 Bft) S-SW 203 ° 0 min 0,000 mm 1,1 UV-I 160 W/m² -1,6 °C 7,1 °C 8,0 km/h (2 Bft)
17.03.2019 08:34 7,1 °C 54 % 1006,6 hPa 0,0 mm 2,9 km/h (1 Bft) S-SW 203 ° 0 min 0,000 mm 1,1 UV-I 160 W/m² -1,6 °C 7,1 °C 3,2 km/h (1 Bft)
17.03.2019 08:35 7,3 °C 54 % 1006,6 hPa 0,0 mm 2,2 km/h (1 Bft) S-SW 203 ° 0 min 0,000 mm 1,1 UV-I 155 W/m² -1,4 °C 7,3 °C 3,2 km/h (1 Bft)
17.03.2019 08:36 7,4 °C 53 % 1006,5 hPa 0,0 mm 3,4 km/h (1 Bft) S-SW 202 ° 0 min 0,000 mm 1,1 UV-I 162 W/m² -1,5 °C 7,4 °C 4,8 km/h (1 Bft)
17.03.2019 08:37 7,5 °C 53 % 1006,5 hPa 0,0 mm 3,1 km/h (1 Bft) S-SW 202 ° 0 min 0,000 mm 1,1 UV-I 169 W/m² -1,4 °C 7,5 °C 4,8 km/h (1 Bft)
17.03.2019 08:38 7,6 °C 52 % 1006,5 hPa 0,0 mm 3,4 km/h (1 Bft) S-SW 202 ° 0 min 0,000 mm 1,1 UV-I 178 W/m² -1,6 °C 7,6 °C 4,8 km/h (1 Bft)
17.03.2019 08:39 7,7 °C 53 % 1006,4 hPa 0,0 mm 4,0 km/h (1 Bft) S-SW 202 ° 0 min 0,000 mm 1,2 UV-I 185 W/m² -1,3 °C 7,7 °C 6,4 km/h (2 Bft)
17.03.2019 08:40 7,8 °C 55 % 1006,4 hPa 0,0 mm 4,4 km/h (1 Bft) S-SW 202 ° 0 min 0,000 mm 1,2 UV-I 193 W/m² -0,7 °C 7,8 °C 6,4 km/h (2 Bft)
17.03.2019 08:41 7,9 °C 51 % 1006,4 hPa 0,0 mm 2,0 km/h (1 Bft) S-SW 202 ° 0 min 0,000 mm 1,2 UV-I 213 W/m² -1,6 °C 7,9 °C 3,2 km/h (1 Bft)
17.03.2019 08:42 8,0 °C 51 % 1006,4 hPa 0,0 mm 0,4 km/h (0 Bft) S-SW 202 ° 0 min 0,000 mm 1,2 UV-I 200 W/m² -1,5 °C 8,0 °C 3,2 km/h (1 Bft)
17.03.2019 08:43 8,1 °C 51 % 1006,4 hPa 0,0 mm 0,5 km/h (0 Bft) S-SW 202 ° 0 min 0,000 mm 1,3 UV-I 199 W/m² -1,4 °C 8,1 °C 1,6 km/h (1 Bft)
17.03.2019 08:44 8,2 °C 49 % 1006,4 hPa 0,0 mm 0,0 km/h (0 Bft) S-SW 202 ° 0 min 0,000 mm 1,3 UV-I 230 W/m² -1,9 °C 8,2 °C 0,0 km/h (0 Bft)
17.03.2019 08:45 8,3 °C 48 % 1006,4 hPa 0,0 mm 0,0 km/h (0 Bft) S-SW 202 ° 0 min 0,000 mm 1,3 UV-I 232 W/m² -2,1 °C 8,3 °C 0,0 km/h (0 Bft)
17.03.2019 08:46 8,2 °C 51 % 1006,5 hPa 0,0 mm 0,4 km/h (0 Bft) W-NW 282 ° 0 min 0,000 mm 1,3 UV-I 202 W/m² -1,3 °C 8,2 °C 3,2 km/h (1 Bft)
17.03.2019 08:47 8,2 °C 53 % 1006,5 hPa 0,0 mm 2,5 km/h (1 Bft) W-NW 282 ° 0 min 0,000 mm 1,3 UV-I 188 W/m² -0,8 °C 8,2 °C 4,8 km/h (1 Bft)
17.03.2019 08:48 8,1 °C 53 % 1006,5 hPa 0,0 mm 0,1 km/h (0 Bft) W-NW 282 ° 0 min 0,000 mm 1,3 UV-I 199 W/m² -0,9 °C 8,1 °C 1,6 km/h (1 Bft)
17.03.2019 08:49 7,9 °C 53 % 1006,5 hPa 0,0 mm 0,0 km/h (0 Bft) W-NW 282 ° 0 min 0,000 mm 1,3 UV-I 197 W/m² -1,1 °C 7,9 °C 0,0 km/h (0 Bft)
17.03.2019 08:50 7,9 °C 53 % 1006,4 hPa 0,0 mm 0,0 km/h (0 Bft) W-NW 282 ° 0 min 0,000 mm 1,3 UV-I 181 W/m² -1,1 °C 7,9 °C 0,0 km/h (0 Bft)
17.03.2019 08:51 8,0 °C 52 % 1006,4 hPa 0,0 mm 0,0 km/h (0 Bft) W-NW 282 ° 0 min 0,000 mm 1,3 UV-I 204 W/m² -1,2 °C 8,0 °C 0,0 km/h (0 Bft)
17.03.2019 08:52 8,0 °C 53 % 1006,4 hPa 0,0 mm 0,0 km/h (0 Bft) W-NW 282 ° 0 min 0,000 mm 1,3 UV-I 214 W/m² -1,0 °C 8,0 °C 0,0 km/h (0 Bft)
17.03.2019 08:53 8,0 °C 55 % 1006,4 hPa 0,0 mm 0,0 km/h (0 Bft) W-NW 282 ° 0 min 0,000 mm 1,4 UV-I 221 W/m² -0,5 °C 8,0 °C 0,0 km/h (0 Bft)
17.03.2019 08:54 8,1 °C 55 % 1006,4 hPa 0,0 mm 0,1 km/h (0 Bft) W-NW 282 ° 0 min 0,000 mm 1,4 UV-I 243 W/m² -0,4 °C 8,1 °C 1,6 km/h (1 Bft)
17.03.2019 08:55 8,2 °C 57 % 1006,4 hPa 0,0 mm 1,0 km/h (0 Bft) W-NW 282 ° 0 min 0,000 mm 1,4 UV-I 244 W/m² 0,2 °C 8,2 °C 1,6 km/h (1 Bft)
17.03.2019 08:56 8,3 °C 55 % 1006,4 hPa 0,0 mm 0,0 km/h (0 Bft) W-NW 282 ° 0 min 0,000 mm 1,4 UV-I 234 W/m² -0,2 °C 8,3 °C 0,0 km/h (0 Bft)
17.03.2019 08:57 8,3 °C 54 % 1006,4 hPa 0,0 mm 1,0 km/h (0 Bft) W-NW 282 ° 0 min 0,000 mm 1,4 UV-I 216 W/m² -0,5 °C 8,3 °C 3,2 km/h (1 Bft)
17.03.2019 08:58 8,3 °C 54 % 1006,4 hPa 0,0 mm 3,8 km/h (1 Bft) W-NW 282 ° 0 min 0,000 mm 1,3 UV-I 193 W/m² -0,5 °C 8,3 °C 4,8 km/h (1 Bft)
17.03.2019 08:59 8,3 °C 53 % 1006,3 hPa 0,0 mm 2,9 km/h (1 Bft) W-NW 282 ° 0 min 0,000 mm 1,4 UV-I 220 W/m² -0,7 °C 8,3 °C 3,2 km/h (1 Bft)
17.03.2019 09:00 8,4 °C 49 % 1006,3 hPa 0,0 mm 4,3 km/h (1 Bft) S-SW 212 ° 0 min 0,076 mm 1,5 UV-I 250 W/m² -1,7 °C 8,4 °C 6,4 km/h (2 Bft)
17.03.2019 09:01 8,7 °C 50 % 1006,3 hPa 0,0 mm 3,1 km/h (1 Bft) S-SW 200 ° 0 min 0,000 mm 1,6 UV-I 290 W/m² -1,1 °C 8,7 °C 6,4 km/h (2 Bft)
17.03.2019 09:02 9,1 °C 46 % 1006,4 hPa 0,0 mm 1,5 km/h (1 Bft) S-SW 200 ° 0 min 0,000 mm 1,7 UV-I 357 W/m² -1,9 °C 9,1 °C 3,2 km/h (1 Bft)
17.03.2019 09:03 9,2 °C 51 % 1006,3 hPa 0,0 mm 2,0 km/h (1 Bft) W-SW 258 ° 0 min 0,000 mm 1,7 UV-I 339 W/m² -0,4 °C 9,2 °C 4,8 km/h (1 Bft)
17.03.2019 09:04 8,9 °C 53 % 1006,3 hPa 0,0 mm 1,7 km/h (1 Bft) W-SW 258 ° 0 min 0,000 mm 1,8 UV-I 357 W/m² -0,1 °C 8,9 °C 4,8 km/h (1 Bft)
17.03.2019 09:05 8,8 °C 53 % 1006,4 hPa 0,0 mm 0,5 km/h (0 Bft) W-SW 258 ° 0 min 0,000 mm 1,8 UV-I 345 W/m² -0,2 °C 8,8 °C 1,6 km/h (1 Bft)
17.03.2019 09:06 8,8 °C 53 % 1006,3 hPa 0,0 mm 2,1 km/h (1 Bft) W-SW 257 ° 0 min 0,000 mm 1,8 UV-I 357 W/m² -0,2 °C 8,8 °C 3,2 km/h (1 Bft)
17.03.2019 09:07 8,9 °C 49 % 1006,3 hPa 0,0 mm 1,9 km/h (1 Bft) W-SW 257 ° 0 min 0,000 mm 1,8 UV-I 353 W/m² -1,2 °C 8,9 °C 3,2 km/h (1 Bft)
17.03.2019 09:08 9,1 °C 49 % 1006,2 hPa 0,0 mm 2,5 km/h (1 Bft) W-SW 257 ° 0 min 0,000 mm 1,8 UV-I 359 W/m² -1,0 °C 9,1 °C 4,8 km/h (1 Bft)
17.03.2019 09:09 9,4 °C 46 % 1006,3 hPa 0,0 mm 6,5 km/h (2 Bft) S-SW 203 ° 0 min 0,000 mm 1,9 UV-I 396 W/m² -1,6 °C 8,7 °C 9,7 km/h (2 Bft)
17.03.2019 09:10 9,7 °C 44 % 1006,3 hPa 0,0 mm 3,8 km/h (1 Bft) S-SW 202 ° 0 min 0,000 mm 2,0 UV-I 415 W/m² -2,0 °C 9,7 °C 6,4 km/h (2 Bft)
17.03.2019 09:11 9,9 °C 45 % 1006,2 hPa 0,0 mm 4,1 km/h (1 Bft) S-SW 202 ° 0 min 0,000 mm 2,0 UV-I 417 W/m² -1,5 °C 9,9 °C 6,4 km/h (2 Bft)
17.03.2019 09:12 10,1 °C 45 % 1006,2 hPa 0,0 mm 6,2 km/h (2 Bft) S 190 ° 0 min 0,000 mm 2,0 UV-I 406 W/m² -1,3 °C 10,1 °C 8,0 km/h (2 Bft)
17.03.2019 09:13 10,2 °C 44 % 1006,3 hPa 0,0 mm 7,2 km/h (2 Bft) S-SW 192 ° 0 min 0,000 mm 2,0 UV-I 436 W/m² -1,5 °C 10,2 °C 9,7 km/h (2 Bft)
17.03.2019 09:14 10,3 °C 41 % 1006,3 hPa 0,0 mm 3,6 km/h (1 Bft) S-SW 195 ° 0 min 0,000 mm 2,1 UV-I 434 W/m² -2,4 °C 10,3 °C 4,8 km/h (1 Bft)
17.03.2019 09:15 10,6 °C 43 % 1006,2 hPa 0,0 mm 5,2 km/h (1 Bft) S-SW 200 ° 0 min 0,000 mm 2,1 UV-I 411 W/m² -1,4 °C 10,6 °C 8,0 km/h (2 Bft)
17.03.2019 09:16 10,8 °C 41 % 1006,3 hPa 0,0 mm 2,6 km/h (1 Bft) S-SW 200 ° 0 min 0,000 mm 2,0 UV-I 364 W/m² -1,9 °C 10,8 °C 4,8 km/h (1 Bft)
17.03.2019 09:17 11,0 °C 42 % 1006,3 hPa 0,0 mm 1,3 km/h (1 Bft) S-SW 200 ° 0 min 0,000 mm 1,9 UV-I 322 W/m² -1,4 °C 11,0 °C 4,8 km/h (1 Bft)
17.03.2019 09:18 11,2 °C 43 % 1006,3 hPa 0,0 mm 1,3 km/h (1 Bft) S-SW 201 ° 0 min 0,000 mm 1,9 UV-I 325 W/m² -0,9 °C 11,2 °C 3,2 km/h (1 Bft)
17.03.2019 09:19 11,3 °C 43 % 1006,3 hPa 0,0 mm 1,8 km/h (1 Bft) N-NW 344 ° 0 min 0,000 mm 1,8 UV-I 292 W/m² -0,8 °C 11,3 °C 3,2 km/h (1 Bft)
17.03.2019 09:20 11,3 °C 49 % 1006,4 hPa 0,0 mm 2,5 km/h (1 Bft) N-NW 344 ° 0 min 0,000 mm 1,8 UV-I 272 W/m² 1,0 °C 11,3 °C 4,8 km/h (1 Bft)
17.03.2019 09:21 11,2 °C 43 % 1006,3 hPa 0,0 mm 0,1 km/h (0 Bft) N-NW 344 ° 0 min 0,000 mm 1,7 UV-I 260 W/m² -0,9 °C 11,2 °C 1,6 km/h (1 Bft)
17.03.2019 09:22 11,1 °C 42 % 1006,2 hPa 0,0 mm 0,9 km/h (0 Bft) N-NW 344 ° 0 min 0,000 mm 1,8 UV-I 267 W/m² -1,3 °C 11,1 °C 1,6 km/h (1 Bft)
17.03.2019 09:23 11,1 °C 43 % 1006,3 hPa 0,0 mm 0,2 km/h (0 Bft) N-NW 344 ° 0 min 0,000 mm 1,8 UV-I 274 W/m² -1,0 °C 11,1 °C 1,6 km/h (1 Bft)
17.03.2019 09:24 11,2 °C 41 % 1006,2 hPa 0,0 mm 0,2 km/h (0 Bft) N-NW 344 ° 0 min 0,000 mm 1,8 UV-I 287 W/m² -1,6 °C 11,2 °C 1,6 km/h (1 Bft)
17.03.2019 09:25 11,4 °C 39 % 1006,3 hPa 0,0 mm 2,7 km/h (1 Bft) S-SW 194 ° 0 min 0,000 mm 1,9 UV-I 355 W/m² -2,0 °C 11,4 °C 6,4 km/h (2 Bft)
17.03.2019 09:26 11,6 °C 39 % 1006,3 hPa 0,0 mm 2,2 km/h (1 Bft) S-SW 194 ° 0 min 0,000 mm 2,1 UV-I 399 W/m² -1,9 °C 11,6 °C 4,8 km/h (1 Bft)
17.03.2019 09:27 11,7 °C 41 % 1006,3 hPa 0,0 mm 2,3 km/h (1 Bft) S-SW 195 ° 0 min 0,000 mm 2,1 UV-I 410 W/m² -1,1 °C 11,7 °C 3,2 km/h (1 Bft)
17.03.2019 09:28 11,9 °C 41 % 1006,4 hPa 0,0 mm 1,3 km/h (1 Bft) S-SW 195 ° 0 min 0,000 mm 2,1 UV-I 387 W/m² -0,9 °C 11,9 °C 3,2 km/h (1 Bft)
17.03.2019 09:29 12,1 °C 44 % 1006,3 hPa 0,0 mm 3,0 km/h (1 Bft) S-SW 207 ° 0 min 0,000 mm 2,2 UV-I 399 W/m² 0,2 °C 12,1 °C 4,8 km/h (1 Bft)
17.03.2019 09:30 11,8 °C 45 % 1006,3 hPa 0,0 mm 0,6 km/h (0 Bft) S-SW 207 ° 0 min 0,000 mm 2,2 UV-I 406 W/m² 0,3 °C 11,8 °C 1,6 km/h (1 Bft)
17.03.2019 09:31 11,8 °C 39 % 1006,3 hPa 0,0 mm 0,0 km/h (0 Bft) S-SW 207 ° 0 min 0,000 mm 2,3 UV-I 425 W/m² -1,7 °C 11,8 °C 0,0 km/h (0 Bft)
17.03.2019 09:32 11,8 °C 38 % 1006,3 hPa 0,0 mm 0,0 km/h (0 Bft) S-SW 207 ° 0 min 0,000 mm 2,3 UV-I 425 W/m² -2,0 °C 11,8 °C 0,0 km/h (0 Bft)
17.03.2019 09:33 11,8 °C 38 % 1006,3 hPa 0,0 mm 1,3 km/h (1 Bft) S-SW 207 ° 0 min 0,000 mm 2,3 UV-I 431 W/m² -2,0 °C 11,8 °C 3,2 km/h (1 Bft)
17.03.2019 09:34 11,8 °C 46 % 1006,3 hPa 0,0 mm 1,0 km/h (0 Bft) S-SW 207 ° 0 min 0,000 mm 2,3 UV-I 422 W/m² 0,6 °C 11,8 °C 3,2 km/h (1 Bft)
17.03.2019 09:35 11,7 °C 46 % 1006,3 hPa 0,0 mm 2,0 km/h (1 Bft) S-SW 207 ° 0 min 0,000 mm 2,3 UV-I 380 W/m² 0,5 °C 11,7 °C 3,2 km/h (1 Bft)
17.03.2019 09:36 11,9 °C 43 % 1006,2 hPa 0,0 mm 2,0 km/h (1 Bft) S-SW 207 ° 0 min 0,000 mm 2,1 UV-I 352 W/m² -0,3 °C 11,9 °C 3,2 km/h (1 Bft)
17.03.2019 09:37 12,1 °C 37 % 1006,2 hPa 0,0 mm 0,3 km/h (0 Bft) S-SW 207 ° 0 min 0,000 mm 2,1 UV-I 367 W/m² -2,1 °C 12,1 °C 1,6 km/h (1 Bft)
17.03.2019 09:38 12,2 °C 37 % 1006,2 hPa 0,0 mm 0,0 km/h (0 Bft) S-SW 207 ° 0 min 0,000 mm 2,2 UV-I 334 W/m² -2,0 °C 12,2 °C 0,0 km/h (0 Bft)
17.03.2019 09:39 12,3 °C 40 % 1006,3 hPa 0,0 mm 0,0 km/h (0 Bft) S-SW 207 ° 0 min 0,000 mm 2,1 UV-I 294 W/m² -0,9 °C 12,3 °C 0,0 km/h (0 Bft)
17.03.2019 09:40 12,5 °C 35 % 1006,3 hPa 0,0 mm 2,2 km/h (1 Bft) S-SW 207 ° 0 min 0,000 mm 2,1 UV-I 327 W/m² -2,5 °C 12,5 °C 3,2 km/h (1 Bft)
17.03.2019 09:41 12,6 °C 35 % 1006,3 hPa 0,0 mm 2,1 km/h (1 Bft) SW 234 ° 0 min 0,000 mm 2,2 UV-I 348 W/m² -2,4 °C 12,6 °C 4,8 km/h (1 Bft)
17.03.2019 09:42 12,7 °C 34 % 1006,2 hPa 0,0 mm 0,0 km/h (0 Bft) SW 234 ° 0 min 0,000 mm 2,3 UV-I 360 W/m² -2,7 °C 12,7 °C 0,0 km/h (0 Bft)
17.03.2019 09:43 12,8 °C 34 % 1006,2 hPa 0,0 mm 5,2 km/h (1 Bft) W 264 ° 0 min 0,000 mm 2,2 UV-I 297 W/m² -2,7 °C 12,8 °C 9,7 km/h (2 Bft)
17.03.2019 09:44 12,9 °C 34 % 1006,2 hPa 0,0 mm 7,2 km/h (2 Bft) W-NW 298 ° 0 min 0,000 mm 2,2 UV-I 315 W/m² -2,6 °C 12,9 °C 9,7 km/h (2 Bft)
17.03.2019 09:45 13,1 °C 34 % 1006,2 hPa 0,0 mm 7,0 km/h (2 Bft) W-NW 288 ° 0 min 0,000 mm 2,3 UV-I 366 W/m² -2,4 °C 13,1 °C 14,5 km/h (3 Bft)
17.03.2019 09:46 13,3 °C 34 % 1006,2 hPa 0,0 mm 6,7 km/h (2 Bft) W 268 ° 0 min 0,000 mm 2,3 UV-I 394 W/m² -2,2 °C 13,3 °C 12,9 km/h (3 Bft)
17.03.2019 09:47 13,4 °C 33 % 1006,2 hPa 0,0 mm 3,8 km/h (1 Bft) NW 304 ° 0 min 0,000 mm 2,4 UV-I 413 W/m² -2,5 °C 13,4 °C 6,4 km/h (2 Bft)
17.03.2019 09:48 13,6 °C 32 % 1006,2 hPa 0,0 mm 5,0 km/h (1 Bft) W-NW 289 ° 0 min 0,000 mm 2,4 UV-I 323 W/m² -2,8 °C 13,6 °C 11,3 km/h (2 Bft)
17.03.2019 09:49 13,7 °C 32 % 1006,2 hPa 0,0 mm 7,2 km/h (2 Bft) SW 232 ° 0 min 0,000 mm 2,3 UV-I 276 W/m² -2,7 °C 13,7 °C 11,3 km/h (2 Bft)
17.03.2019 09:50 13,8 °C 31 % 1006,1 hPa 0,0 mm 13,4 km/h (3 Bft) W 274 ° 0 min 0,000 mm 2,1 UV-I 279 W/m² -3,0 °C 13,8 °C 22,5 km/h (4 Bft)
17.03.2019 09:51 13,8 °C 28 % 1006,2 hPa 0,0 mm 9,9 km/h (2 Bft) NW 321 ° 0 min 0,000 mm 2,2 UV-I 285 W/m² -4,4 °C 13,8 °C 14,5 km/h (3 Bft)
17.03.2019 09:52 13,9 °C 30 % 1006,1 hPa 0,0 mm 8,9 km/h (2 Bft) W-SW 242 ° 0 min 0,000 mm 2,3 UV-I 285 W/m² -3,4 °C 13,9 °C 16,1 km/h (3 Bft)
17.03.2019 09:53 14,1 °C 28 % 1006,1 hPa 0,0 mm 9,7 km/h (2 Bft) W-NW 288 ° 0 min 0,000 mm 2,6 UV-I 420 W/m² -4,1 °C 14,1 °C 17,7 km/h (3 Bft)
17.03.2019 09:54 14,1 °C 27 % 1006,1 hPa 0,0 mm 11,4 km/h (2 Bft) W 275 ° 0 min 0,000 mm 2,6 UV-I 466 W/m² -4,6 °C 14,1 °C 17,7 km/h (3 Bft)
17.03.2019 09:55 14,1 °C 28 % 1006,1 hPa 0,0 mm 11,6 km/h (2 Bft) SW 233 ° 0 min 0,000 mm 2,7 UV-I 369 W/m² -4,1 °C 14,1 °C 19,3 km/h (3 Bft)
17.03.2019 09:56 14,2 °C 27 % 1006,1 hPa 0,0 mm 14,5 km/h (3 Bft) NW 311 ° 0 min 0,000 mm 2,7 UV-I 490 W/m² -4,5 °C 14,2 °C 19,3 km/h (3 Bft)
17.03.2019 09:57 14,2 °C 26 % 1006,1 hPa 0,0 mm 15,5 km/h (3 Bft) W 273 ° 0 min 0,000 mm 2,8 UV-I 524 W/m² -5,0 °C 14,2 °C 25,7 km/h (4 Bft)
17.03.2019 09:58 14,2 °C 28 % 1006,1 hPa 0,0 mm 14,6 km/h (3 Bft) W 265 ° 0 min 0,000 mm 2,8 UV-I 543 W/m² -4,0 °C 14,2 °C 24,1 km/h (4 Bft)
17.03.2019 09:59 14,3 °C 27 % 1006,1 hPa 0,0 mm 12,2 km/h (2 Bft) W 281 ° 0 min 0,000 mm 2,8 UV-I 524 W/m² -4,4 °C 14,3 °C 16,1 km/h (3 Bft)
17.03.2019 10:00 14,3 °C 26 % 1006,1 hPa 0,0 mm 12,8 km/h (3 Bft) W 277 ° 0 min 0,000 mm 2,8 UV-I 485 W/m² -4,9 °C 14,3 °C 17,7 km/h (3 Bft)
17.03.2019 10:01 14,3 °C 28 % 1006,1 hPa 0,0 mm 8,6 km/h (2 Bft) W-SW 245 ° 0 min 0,229 mm 2,8 UV-I 485 W/m² -3,9 °C 14,3 °C 12,9 km/h (3 Bft)
17.03.2019 10:02 14,3 °C 28 % 1006,1 hPa 0,0 mm 12,4 km/h (3 Bft) W-NW 282 ° 0 min 0,000 mm 2,8 UV-I 529 W/m² -3,9 °C 14,3 °C 19,3 km/h (3 Bft)
17.03.2019 10:03 14,4 °C 28 % 1006,1 hPa 0,0 mm 10,1 km/h (2 Bft) S-SW 212 ° 0 min 0,000 mm 2,9 UV-I 527 W/m² -3,9 °C 14,4 °C 12,9 km/h (3 Bft)
17.03.2019 10:04 14,4 °C 29 % 1006,1 hPa 0,0 mm 8,0 km/h (2 Bft) W-SW 253 ° 0 min 0,000 mm 2,9 UV-I 527 W/m² -3,4 °C 14,4 °C 14,5 km/h (3 Bft)
17.03.2019 10:05 14,4 °C 26 % 1006,1 hPa 0,0 mm 13,0 km/h (3 Bft) W 275 ° 0 min 0,000 mm 2,9 UV-I 508 W/m² -4,8 °C 14,4 °C 16,1 km/h (3 Bft)
17.03.2019 10:06 14,5 °C 27 % 1006,0 hPa 0,0 mm 15,8 km/h (3 Bft) W 270 ° 0 min 0,000 mm 3,1 UV-I 540 W/m² -4,3 °C 14,5 °C 20,9 km/h (4 Bft)
17.03.2019 10:07 14,5 °C 27 % 1006,0 hPa 0,0 mm 15,0 km/h (3 Bft) W 273 ° 0 min 0,000 mm 3,0 UV-I 503 W/m² -4,3 °C 14,5 °C 22,5 km/h (4 Bft)
17.03.2019 10:08 14,5 °C 27 % 1006,1 hPa 0,0 mm 14,5 km/h (3 Bft) W-NW 287 ° 0 min 0,000 mm 2,9 UV-I 538 W/m² -4,3 °C 14,5 °C 20,9 km/h (4 Bft)
17.03.2019 10:09 14,6 °C 27 % 1006,0 hPa 0,0 mm 11,7 km/h (2 Bft) W 259 ° 0 min 0,000 mm 3,0 UV-I 534 W/m² -4,2 °C 14,6 °C 22,5 km/h (4 Bft)
17.03.2019 10:10 14,6 °C 28 % 1006,0 hPa 0,0 mm 14,5 km/h (3 Bft) W-SW 244 ° 0 min 0,000 mm 3,0 UV-I 554 W/m² -3,7 °C 14,6 °C 20,9 km/h (4 Bft)
17.03.2019 10:11 14,6 °C 26 % 1006,0 hPa 0,0 mm 17,0 km/h (3 Bft) W 261 ° 0 min 0,000 mm 2,9 UV-I 510 W/m² -4,7 °C 14,6 °C 24,1 km/h (4 Bft)
17.03.2019 10:12 14,6 °C 27 % 1006,0 hPa 0,0 mm 12,2 km/h (2 Bft) W-SW 245 ° 0 min 0,000 mm 2,8 UV-I 575 W/m² -4,2 °C 14,6 °C 19,3 km/h (3 Bft)
17.03.2019 10:13 14,6 °C 28 % 1006,1 hPa 0,0 mm 11,9 km/h (2 Bft) W-SW 249 ° 0 min 0,000 mm 3,1 UV-I 589 W/m² -3,7 °C 14,6 °C 20,9 km/h (4 Bft)
17.03.2019 10:14 14,6 °C 28 % 1006,0 hPa 0,0 mm 13,0 km/h (3 Bft) W-NW 288 ° 0 min 0,000 mm 3,1 UV-I 578 W/m² -3,7 °C 14,6 °C 19,3 km/h (3 Bft)
17.03.2019 10:15 14,6 °C 27 % 1006,0 hPa 0,0 mm 12,6 km/h (3 Bft) W-SW 241 ° 0 min 0,000 mm 2,9 UV-I 494 W/m² -4,2 °C 14,6 °C 16,1 km/h (3 Bft)
17.03.2019 10:16 14,6 °C 28 % 1006,0 hPa 0,0 mm 8,6 km/h (2 Bft) W 261 ° 0 min 0,000 mm 3,1 UV-I 529 W/m² -3,7 °C 14,6 °C 16,1 km/h (3 Bft)
17.03.2019 10:17 14,6 °C 27 % 1006,0 hPa 0,0 mm 15,8 km/h (3 Bft) W 263 ° 0 min 0,000 mm 3,2 UV-I 591 W/m² -4,2 °C 14,6 °C 22,5 km/h (4 Bft)
17.03.2019 10:18 14,6 °C 29 % 1006,0 hPa 0,0 mm 10,7 km/h (2 Bft) W 281 ° 1 min 0,000 mm 3,3 UV-I 610 W/m² -3,2 °C 14,6 °C 17,7 km/h (3 Bft)
17.03.2019 10:19 14,7 °C 30 % 1006,0 hPa 0,0 mm 15,4 km/h (3 Bft) W-SW 257 ° 1 min 0,000 mm 3,3 UV-I 621 W/m² -2,7 °C 14,7 °C 22,5 km/h (4 Bft)
17.03.2019 10:20 14,7 °C 27 % 1006,0 hPa 0,0 mm 15,0 km/h (3 Bft) W 261 ° 0 min 0,000 mm 3,3 UV-I 598 W/m² -4,1 °C 14,7 °C 19,3 km/h (3 Bft)
17.03.2019 10:21 14,7 °C 28 % 1006,0 hPa 0,0 mm 18,1 km/h (3 Bft) W 266 ° 1 min 0,000 mm 3,3 UV-I 619 W/m² -3,6 °C 14,7 °C 24,1 km/h (4 Bft)
17.03.2019 10:22 14,7 °C 27 % 1005,9 hPa 0,0 mm 12,3 km/h (3 Bft) W 281 ° 1 min 0,000 mm 3,3 UV-I 612 W/m² -4,1 °C 14,7 °C 19,3 km/h (3 Bft)
17.03.2019 10:23 14,7 °C 28 % 1006,0 hPa 0,0 mm 16,6 km/h (3 Bft) W-SW 258 ° 0 min 0,000 mm 3,3 UV-I 598 W/m² -3,6 °C 14,7 °C 20,9 km/h (4 Bft)
17.03.2019 10:24 14,7 °C 28 % 1006,0 hPa 0,0 mm 14,8 km/h (3 Bft) W-NW 284 ° 0 min 0,000 mm 3,2 UV-I 584 W/m² -3,6 °C 14,7 °C 24,1 km/h (4 Bft)
17.03.2019 10:25 14,7 °C 28 % 1005,9 hPa 0,0 mm 12,9 km/h (3 Bft) W 279 ° 0 min 0,000 mm 3,3 UV-I 573 W/m² -3,6 °C 14,7 °C 17,7 km/h (3 Bft)
17.03.2019 10:26 14,7 °C 29 % 1005,9 hPa 0,0 mm 12,6 km/h (3 Bft) W-NW 292 ° 1 min 0,000 mm 3,4 UV-I 621 W/m² -3,1 °C 14,7 °C 22,5 km/h (4 Bft)
17.03.2019 10:27 14,8 °C 28 % 1005,9 hPa 0,0 mm 13,0 km/h (3 Bft) W-NW 302 ° 1 min 0,000 mm 3,3 UV-I 605 W/m² -3,5 °C 14,8 °C 19,3 km/h (3 Bft)
17.03.2019 10:28 14,7 °C 29 % 1005,8 hPa 0,0 mm 8,6 km/h (2 Bft) W-NW 298 ° 0 min 0,000 mm 3,3 UV-I 589 W/m² -3,1 °C 14,7 °C 16,1 km/h (3 Bft)
17.03.2019 10:29 14,7 °C 30 % 1005,9 hPa 0,0 mm 11,9 km/h (2 Bft) W 273 ° 0 min 0,000 mm 3,3 UV-I 584 W/m² -2,7 °C 14,7 °C 17,7 km/h (3 Bft)
17.03.2019 10:30 14,8 °C 29 % 1005,8 hPa 0,0 mm 19,0 km/h (3 Bft) W-SW 247 ° 1 min 0,000 mm 3,3 UV-I 621 W/m² -3,0 °C 14,8 °C 27,4 km/h (4 Bft)
17.03.2019 10:31 14,8 °C 28 % 1005,9 hPa 0,0 mm 15,6 km/h (3 Bft) W-SW 254 ° 0 min 0,000 mm 3,3 UV-I 599 W/m² -3,5 °C 14,8 °C 27,4 km/h (4 Bft)
17.03.2019 10:32 14,7 °C 28 % 1005,8 hPa 0,0 mm 11,1 km/h (2 Bft) W 262 ° 0 min 0,000 mm 3,3 UV-I 598 W/m² -3,6 °C 14,7 °C 16,1 km/h (3 Bft)
17.03.2019 10:33 14,8 °C 29 % 1005,8 hPa 0,0 mm 13,8 km/h (3 Bft) S-SW 208 ° 1 min 0,000 mm 3,4 UV-I 629 W/m² -3,0 °C 14,8 °C 19,3 km/h (3 Bft)
17.03.2019 10:34 14,8 °C 28 % 1005,8 hPa 0,0 mm 14,6 km/h (3 Bft) S-SW 212 ° 1 min 0,000 mm 3,5 UV-I 621 W/m² -3,5 °C 14,8 °C 20,9 km/h (4 Bft)
17.03.2019 10:35 14,8 °C 31 % 1005,8 hPa 0,0 mm 16,0 km/h (3 Bft) SW 216 ° 1 min 0,000 mm 3,5 UV-I 633 W/m² -2,2 °C 14,8 °C 24,1 km/h (4 Bft)
17.03.2019 10:36 14,8 °C 29 % 1005,8 hPa 0,0 mm 17,9 km/h (3 Bft) W 267 ° 1 min 0,000 mm 3,5 UV-I 635 W/m² -3,0 °C 14,8 °C 24,1 km/h (4 Bft)
17.03.2019 10:37 14,8 °C 30 % 1005,7 hPa 0,0 mm 15,6 km/h (3 Bft) NW 325 ° 1 min 0,000 mm 3,3 UV-I 635 W/m² -2,6 °C 14,8 °C 20,9 km/h (4 Bft)
17.03.2019 10:38 14,8 °C 30 % 1005,7 hPa 0,0 mm 16,6 km/h (3 Bft) W 275 ° 1 min 0,000 mm 3,5 UV-I 624 W/m² -2,6 °C 14,8 °C 22,5 km/h (4 Bft)
17.03.2019 10:39 14,9 °C 29 % 1005,7 hPa 0,0 mm 12,7 km/h (3 Bft) NW 304 ° 1 min 0,000 mm 3,4 UV-I 621 W/m² -3,0 °C 14,9 °C 20,9 km/h (4 Bft)
17.03.2019 10:40 14,9 °C 31 % 1005,7 hPa 0,0 mm 10,7 km/h (2 Bft) W-SW 254 ° 1 min 0,000 mm 3,5 UV-I 631 W/m² -2,1 °C 14,9 °C 20,9 km/h (4 Bft)
17.03.2019 10:41 15,0 °C 29 % 1005,7 hPa 0,0 mm 11,1 km/h (2 Bft) W 261 ° 1 min 0,000 mm 3,6 UV-I 642 W/m² -2,9 °C 15,0 °C 19,3 km/h (3 Bft)
17.03.2019 10:42 15,0 °C 30 % 1005,7 hPa 0,0 mm 11,8 km/h (2 Bft) NW 313 ° 1 min 0,000 mm 3,4 UV-I 631 W/m² -2,4 °C 15,0 °C 17,7 km/h (3 Bft)
17.03.2019 10:43 15,1 °C 30 % 1005,7 hPa 0,0 mm 12,2 km/h (2 Bft) W 269 ° 1 min 0,000 mm 3,5 UV-I 606 W/m² -2,3 °C 15,1 °C 17,7 km/h (3 Bft)
17.03.2019 10:44 15,1 °C 30 % 1005,6 hPa 0,0 mm 6,2 km/h (2 Bft) W-SW 255 ° 1 min 0,000 mm 3,7 UV-I 652 W/m² -2,3 °C 15,1 °C 14,5 km/h (3 Bft)
17.03.2019 10:45 15,1 °C 32 % 1005,6 hPa 0,0 mm 12,9 km/h (3 Bft) W-SW 251 ° 1 min 0,000 mm 3,5 UV-I 619 W/m² -1,5 °C 15,1 °C 17,7 km/h (3 Bft)
17.03.2019 10:46 15,2 °C 30 % 1005,6 hPa 0,0 mm 13,6 km/h (3 Bft) W-SW 248 ° 0 min 0,000 mm 3,4 UV-I 563 W/m² -2,2 °C 15,2 °C 19,3 km/h (3 Bft)
17.03.2019 10:47 15,2 °C 29 % 1005,6 hPa 0,0 mm 17,9 km/h (3 Bft) W 271 ° 1 min 0,000 mm 3,7 UV-I 664 W/m² -2,7 °C 15,2 °C 25,7 km/h (4 Bft)
17.03.2019 10:48 15,2 °C 30 % 1005,6 hPa 0,0 mm 10,5 km/h (2 Bft) W 266 ° 1 min 0,000 mm 3,7 UV-I 664 W/m² -2,2 °C 15,2 °C 14,5 km/h (3 Bft)
17.03.2019 10:49 15,2 °C 32 % 1005,6 hPa 0,0 mm 10,2 km/h (2 Bft) W 274 ° 1 min 0,000 mm 3,8 UV-I 682 W/m² -1,4 °C 15,2 °C 16,1 km/h (3 Bft)
17.03.2019 10:50 15,4 °C 31 % 1005,5 hPa 0,0 mm 12,6 km/h (3 Bft) W 263 ° 1 min 0,000 mm 3,7 UV-I 664 W/m² -1,6 °C 15,4 °C 19,3 km/h (3 Bft)
17.03.2019 10:51 15,5 °C 32 % 1005,6 hPa 0,0 mm 13,3 km/h (3 Bft) W-SW 252 ° 1 min 0,000 mm 3,7 UV-I 608 W/m² -1,1 °C 15,5 °C 22,5 km/h (4 Bft)
17.03.2019 10:52 15,6 °C 31 % 1005,5 hPa 0,0 mm 12,8 km/h (3 Bft) NW 312 ° 1 min 0,000 mm 3,7 UV-I 640 W/m² -1,5 °C 15,6 °C 17,7 km/h (3 Bft)
17.03.2019 10:53 15,5 °C 30 % 1005,5 hPa 0,0 mm 15,5 km/h (3 Bft) W-NW 295 ° 0 min 0,000 mm 3,6 UV-I 570 W/m² -2,0 °C 15,5 °C 24,1 km/h (4 Bft)
17.03.2019 10:54 15,5 °C 29 % 1005,4 hPa 0,0 mm 17,4 km/h (3 Bft) NW 316 ° 1 min 0,000 mm 3,5 UV-I 624 W/m² -2,4 °C 15,5 °C 27,4 km/h (4 Bft)
17.03.2019 10:55 15,4 °C 30 % 1005,4 hPa 0,0 mm 12,3 km/h (3 Bft) W-NW 284 ° 1 min 0,000 mm 3,7 UV-I 624 W/m² -2,1 °C 15,4 °C 24,1 km/h (4 Bft)
17.03.2019 10:56 15,4 °C 29 % 1005,4 hPa 0,0 mm 12,7 km/h (3 Bft) N-NW 327 ° 1 min 0,000 mm 3,8 UV-I 636 W/m² -2,5 °C 15,4 °C 22,5 km/h (4 Bft)
17.03.2019 10:57 15,4 °C 30 % 1005,4 hPa 0,0 mm 14,4 km/h (3 Bft) W 277 ° 1 min 0,000 mm 3,7 UV-I 657 W/m² -2,1 °C 15,4 °C 20,9 km/h (4 Bft)
17.03.2019 10:58 15,4 °C 30 % 1005,4 hPa 0,0 mm 9,1 km/h (2 Bft) W-NW 296 ° 0 min 0,000 mm 3,5 UV-I 584 W/m² -2,1 °C 15,4 °C 17,7 km/h (3 Bft)
17.03.2019 10:59 15,5 °C 30 % 1005,4 hPa 0,0 mm 10,6 km/h (2 Bft) W-NW 292 ° 0 min 0,000 mm 3,5 UV-I 513 W/m² -2,0 °C 15,5 °C 17,7 km/h (3 Bft)
17.03.2019 11:00 15,6 °C 31 % 1005,4 hPa 0,0 mm 13,0 km/h (3 Bft) W 278 ° 1 min 0,432 mm 3,8 UV-I 649 W/m² -1,5 °C 15,6 °C 19,3 km/h (3 Bft)
17.03.2019 11:01 15,6 °C 30 % 1005,2 hPa 0,0 mm 15,3 km/h (3 Bft) W-NW 294 ° 1 min 0,000 mm 3,8 UV-I 654 W/m² -1,9 °C 15,6 °C 20,9 km/h (4 Bft)
17.03.2019 11:02 15,5 °C 28 % 1005,2 hPa 0,0 mm 13,6 km/h (3 Bft) W-NW 284 ° 1 min 0,000 mm 3,8 UV-I 664 W/m² -2,9 °C 15,5 °C 20,9 km/h (4 Bft)
17.03.2019 11:03 15,4 °C 30 % 1005,3 hPa 0,0 mm 13,8 km/h (3 Bft) W-SW 250 ° 1 min 0,000 mm 3,8 UV-I 645 W/m² -2,1 °C 15,4 °C 17,7 km/h (3 Bft)
17.03.2019 11:04 15,4 °C 29 % 1005,3 hPa 0,0 mm 11,3 km/h (2 Bft) W 274 ° 0 min 0,000 mm 3,5 UV-I 555 W/m² -2,5 °C 15,4 °C 14,5 km/h (3 Bft)
17.03.2019 11:05 15,5 °C 30 % 1005,3 hPa 0,0 mm 9,8 km/h (2 Bft) W 261 ° 1 min 0,000 mm 3,8 UV-I 700 W/m² -2,0 °C 15,5 °C 16,1 km/h (3 Bft)
17.03.2019 11:06 15,6 °C 30 % 1005,3 hPa 0,0 mm 16,4 km/h (3 Bft) W-NW 294 ° 1 min 0,000 mm 4,0 UV-I 693 W/m² -1,9 °C 15,6 °C 25,7 km/h (4 Bft)
17.03.2019 11:07 15,6 °C 29 % 1005,3 hPa 0,0 mm 10,2 km/h (2 Bft) W-SW 245 ° 1 min 0,000 mm 3,8 UV-I 675 W/m² -2,4 °C 15,6 °C 14,5 km/h (3 Bft)
17.03.2019 11:08 15,7 °C 30 % 1005,3 hPa 0,0 mm 8,9 km/h (2 Bft) W 263 ° 1 min 0,000 mm 3,9 UV-I 643 W/m² -1,8 °C 15,7 °C 14,5 km/h (3 Bft)
17.03.2019 11:09 15,7 °C 28 % 1005,3 hPa 0,0 mm 15,7 km/h (3 Bft) W-SW 255 ° 1 min 0,000 mm 4,0 UV-I 684 W/m² -2,7 °C 15,7 °C 20,9 km/h (4 Bft)
17.03.2019 11:10 15,7 °C 28 % 1005,2 hPa 0,0 mm 8,6 km/h (2 Bft) W-NW 288 ° 1 min 0,000 mm 4,0 UV-I 689 W/m² -2,7 °C 15,7 °C 17,7 km/h (3 Bft)
17.03.2019 11:11 15,7 °C 29 % 1005,2 hPa 0,0 mm 12,1 km/h (2 Bft) W 264 ° 1 min 0,000 mm 3,9 UV-I 694 W/m² -2,3 °C 15,7 °C 24,1 km/h (4 Bft)
17.03.2019 11:12 15,7 °C 29 % 1005,2 hPa 0,0 mm 12,8 km/h (3 Bft) W-NW 285 ° 1 min 0,000 mm 3,8 UV-I 694 W/m² -2,3 °C 15,7 °C 19,3 km/h (3 Bft)
17.03.2019 11:13 15,7 °C 29 % 1005,2 hPa 0,0 mm 12,7 km/h (3 Bft) W 281 ° 1 min 0,000 mm 3,9 UV-I 606 W/m² -2,3 °C 15,7 °C 17,7 km/h (3 Bft)
17.03.2019 11:14 15,7 °C 29 % 1005,2 hPa 0,0 mm 13,8 km/h (3 Bft) W 260 ° 1 min 0,000 mm 3,9 UV-I 642 W/m² -2,3 °C 15,7 °C 17,7 km/h (3 Bft)
17.03.2019 11:15 15,8 °C 29 % 1005,1 hPa 0,0 mm 11,1 km/h (2 Bft) W-SW 250 ° 1 min 0,000 mm 3,9 UV-I 656 W/m² -2,2 °C 15,8 °C 14,5 km/h (3 Bft)
17.03.2019 11:16 15,8 °C 30 % 1005,2 hPa 0,0 mm 12,0 km/h (2 Bft) W 259 ° 0 min 0,000 mm 3,8 UV-I 591 W/m² -1,7 °C 15,8 °C 19,3 km/h (3 Bft)
17.03.2019 11:17 15,8 °C 28 % 1005,1 hPa 0,0 mm 17,0 km/h (3 Bft) W-NW 300 ° 0 min 0,000 mm 3,6 UV-I 563 W/m² -2,7 °C 15,8 °C 22,5 km/h (4 Bft)
17.03.2019 11:18 15,7 °C 27 % 1005,1 hPa 0,0 mm 15,2 km/h (3 Bft) W 271 ° 0 min 0,000 mm 3,4 UV-I 489 W/m² -3,2 °C 15,7 °C 24,1 km/h (4 Bft)
17.03.2019 11:19 15,6 °C 27 % 1005,1 hPa 0,0 mm 12,8 km/h (3 Bft) NW 315 ° 0 min 0,000 mm 3,7 UV-I 531 W/m² -3,3 °C 15,6 °C 22,5 km/h (4 Bft)
17.03.2019 11:20 15,6 °C 28 % 1005,1 hPa 0,0 mm 6,5 km/h (2 Bft) W-NW 293 ° 0 min 0,000 mm 3,6 UV-I 592 W/m² -2,8 °C 15,6 °C 12,9 km/h (3 Bft)
17.03.2019 11:21 15,6 °C 30 % 1005,1 hPa 0,0 mm 9,2 km/h (2 Bft) W-NW 298 ° 1 min 0,000 mm 3,8 UV-I 617 W/m² -1,9 °C 15,6 °C 14,5 km/h (3 Bft)
17.03.2019 11:22 15,7 °C 30 % 1005,0 hPa 0,0 mm 9,9 km/h (2 Bft) W 273 ° 1 min 0,000 mm 4,0 UV-I 671 W/m² -1,8 °C 15,7 °C 17,7 km/h (3 Bft)
17.03.2019 11:23 15,7 °C 29 % 1005,0 hPa 0,0 mm 7,3 km/h (2 Bft) W-NW 294 ° 0 min 0,000 mm 3,5 UV-I 596 W/m² -2,3 °C 15,7 °C 12,9 km/h (3 Bft)
17.03.2019 11:24 15,8 °C 31 % 1004,9 hPa 0,0 mm 13,0 km/h (3 Bft) W-SW 255 ° 1 min 0,000 mm 3,8 UV-I 622 W/m² -1,3 °C 15,8 °C 16,1 km/h (3 Bft)
17.03.2019 11:25 15,8 °C 30 % 1005,0 hPa 0,0 mm 9,7 km/h (2 Bft) W-SW 257 ° 0 min 0,000 mm 3,8 UV-I 599 W/m² -1,7 °C 15,8 °C 12,9 km/h (3 Bft)
17.03.2019 11:26 15,9 °C 28 % 1005,0 hPa 0,0 mm 6,6 km/h (2 Bft) W-NW 287 ° 1 min 0,000 mm 4,0 UV-I 661 W/m² -2,6 °C 15,9 °C 11,3 km/h (2 Bft)
17.03.2019 11:27 15,9 °C 30 % 1004,9 hPa 0,0 mm 7,2 km/h (2 Bft) W-NW 282 ° 1 min 0,000 mm 4,0 UV-I 668 W/m² -1,6 °C 15,9 °C 14,5 km/h (3 Bft)
17.03.2019 11:28 15,9 °C 30 % 1004,9 hPa 0,0 mm 11,9 km/h (2 Bft) W-NW 290 ° 1 min 0,000 mm 4,0 UV-I 680 W/m² -1,6 °C 15,9 °C 16,1 km/h (3 Bft)
17.03.2019 11:29 15,9 °C 29 % 1004,9 hPa 0,0 mm 9,9 km/h (2 Bft) NW 315 ° 1 min 0,000 mm 4,0 UV-I 668 W/m² -2,1 °C 15,9 °C 14,5 km/h (3 Bft)
17.03.2019 11:30 16,0 °C 28 % 1004,9 hPa 0,0 mm 10,3 km/h (2 Bft) W-NW 286 ° 1 min 0,000 mm 4,1 UV-I 673 W/m² -2,5 °C 16,0 °C 30,6 km/h (5 Bft)
17.03.2019 11:31 15,9 °C 28 % 1004,9 hPa 0,0 mm 14,7 km/h (3 Bft) W 264 ° 1 min 0,000 mm 4,1 UV-I 677 W/m² -2,6 °C 15,9 °C 24,1 km/h (4 Bft)
17.03.2019 11:32 15,9 °C 28 % 1004,9 hPa 0,0 mm 8,3 km/h (2 Bft) NW 308 ° 1 min 0,000 mm 4,0 UV-I 670 W/m² -2,6 °C 15,9 °C 12,9 km/h (3 Bft)
17.03.2019 11:33 15,9 °C 28 % 1004,9 hPa 0,0 mm 13,5 km/h (3 Bft) W-NW 294 ° 1 min 0,000 mm 4,0 UV-I 657 W/m² -2,6 °C 15,9 °C 22,5 km/h (4 Bft)
17.03.2019 11:34 15,9 °C 28 % 1004,8 hPa 0,0 mm 11,9 km/h (2 Bft) W 271 ° 1 min 0,000 mm 4,1 UV-I 621 W/m² -2,6 °C 15,9 °C 16,1 km/h (3 Bft)
17.03.2019 11:35 15,8 °C 27 % 1004,9 hPa 0,0 mm 12,7 km/h (3 Bft) W-SW 250 ° 1 min 0,000 mm 3,8 UV-I 659 W/m² -3,1 °C 15,8 °C 16,1 km/h (3 Bft)
17.03.2019 11:36 15,8 °C 28 % 1004,9 hPa 0,0 mm 12,8 km/h (3 Bft) W-NW 299 ° 1 min 0,000 mm 4,0 UV-I 668 W/m² -2,7 °C 15,8 °C 16,1 km/h (3 Bft)
17.03.2019 11:37 15,8 °C 28 % 1004,9 hPa 0,0 mm 9,7 km/h (2 Bft) W-NW 284 ° 1 min 0,000 mm 3,7 UV-I 668 W/m² -2,7 °C 15,8 °C 17,7 km/h (3 Bft)
17.03.2019 11:38 15,9 °C 28 % 1004,9 hPa 0,0 mm 10,5 km/h (2 Bft) W-NW 291 ° 1 min 0,000 mm 4,1 UV-I 668 W/m² -2,6 °C 15,9 °C 19,3 km/h (3 Bft)
17.03.2019 11:39 15,8 °C 28 % 1004,9 hPa 0,0 mm 15,2 km/h (3 Bft) W-SW 252 ° 1 min 0,000 mm 4,0 UV-I 619 W/m² -2,7 °C 15,8 °C 20,9 km/h (4 Bft)
17.03.2019 11:40 15,9 °C 28 % 1004,8 hPa 0,0 mm 9,4 km/h (2 Bft) NW 313 ° 0 min 0,000 mm 3,9 UV-I 591 W/m² -2,6 °C 15,9 °C 12,9 km/h (3 Bft)
17.03.2019 11:41 15,9 °C 28 % 1004,9 hPa 0,0 mm 7,1 km/h (2 Bft) W 261 ° 1 min 0,000 mm 4,1 UV-I 680 W/m² -2,6 °C 15,9 °C 12,9 km/h (3 Bft)
17.03.2019 11:42 15,9 °C 26 % 1004,8 hPa 0,0 mm 12,5 km/h (3 Bft) W 270 ° 1 min 0,000 mm 4,1 UV-I 689 W/m² -3,6 °C 15,9 °C 19,3 km/h (3 Bft)
17.03.2019 11:43 15,9 °C 29 % 1004,8 hPa 0,0 mm 12,0 km/h (2 Bft) W 271 ° 1 min 0,000 mm 4,1 UV-I 694 W/m² -2,1 °C 15,9 °C 16,1 km/h (3 Bft)
17.03.2019 11:44 16,0 °C 28 % 1004,7 hPa 0,0 mm 13,5 km/h (3 Bft) W-NW 286 ° 1 min 0,000 mm 4,1 UV-I 677 W/m² -2,5 °C 16,0 °C 19,3 km/h (3 Bft)
17.03.2019 11:45 16,0 °C 28 % 1004,7 hPa 0,0 mm 8,8 km/h (2 Bft) W 281 ° 1 min 0,000 mm 4,1 UV-I 673 W/m² -2,5 °C 16,0 °C 14,5 km/h (3 Bft)
17.03.2019 11:46 16,2 °C 29 % 1004,7 hPa 0,0 mm 6,5 km/h (2 Bft) W-NW 300 ° 1 min 0,000 mm 4,1 UV-I 656 W/m² -1,8 °C 16,2 °C 12,9 km/h (3 Bft)
17.03.2019 11:47 16,2 °C 29 % 1004,7 hPa 0,0 mm 6,1 km/h (2 Bft) W-NW 302 ° 1 min 0,000 mm 4,1 UV-I 680 W/m² -1,8 °C 16,2 °C 8,0 km/h (2 Bft)
17.03.2019 11:48 16,3 °C 31 % 1004,7 hPa 0,0 mm 10,1 km/h (2 Bft) W 273 ° 1 min 0,000 mm 4,2 UV-I 691 W/m² -0,8 °C 16,3 °C 17,7 km/h (3 Bft)
17.03.2019 11:49 16,4 °C 29 % 1004,7 hPa 0,0 mm 6,3 km/h (2 Bft) W 265 ° 1 min 0,000 mm 4,2 UV-I 679 W/m² -1,7 °C 16,4 °C 11,3 km/h (2 Bft)
17.03.2019 11:50 16,4 °C 28 % 1004,7 hPa 0,0 mm 7,3 km/h (2 Bft) NW 308 ° 1 min 0,000 mm 4,1 UV-I 638 W/m² -2,1 °C 16,4 °C 12,9 km/h (3 Bft)
17.03.2019 11:51 16,4 °C 30 % 1004,7 hPa 0,0 mm 7,8 km/h (2 Bft) W 265 ° 1 min 0,000 mm 4,1 UV-I 657 W/m² -1,2 °C 16,4 °C 11,3 km/h (2 Bft)
17.03.2019 11:52 16,5 °C 29 % 1004,7 hPa 0,0 mm 10,1 km/h (2 Bft) W-SW 250 ° 1 min 0,000 mm 4,1 UV-I 645 W/m² -1,6 °C 16,5 °C 14,5 km/h (3 Bft)
17.03.2019 11:53 16,6 °C 30 % 1004,7 hPa 0,0 mm 5,6 km/h (1 Bft) W 262 ° 1 min 0,000 mm 4,3 UV-I 645 W/m² -1,0 °C 16,6 °C 11,3 km/h (2 Bft)
17.03.2019 11:54 16,5 °C 28 % 1004,6 hPa 0,0 mm 6,4 km/h (2 Bft) N-NW 346 ° 1 min 0,000 mm 4,2 UV-I 628 W/m² -2,1 °C 16,5 °C 12,9 km/h (3 Bft)
17.03.2019 11:55 16,5 °C 29 % 1004,6 hPa 0,0 mm 11,7 km/h (2 Bft) W-NW 297 ° 1 min 0,000 mm 4,3 UV-I 698 W/m² -1,6 °C 16,5 °C 16,1 km/h (3 Bft)
17.03.2019 11:56 16,4 °C 27 % 1004,7 hPa 0,0 mm 8,9 km/h (2 Bft) W-NW 283 ° 1 min 0,000 mm 4,1 UV-I 686 W/m² -2,6 °C 16,4 °C 16,1 km/h (3 Bft)
17.03.2019 11:57 16,4 °C 29 % 1004,7 hPa 0,0 mm 12,2 km/h (2 Bft) W-NW 285 ° 1 min 0,000 mm 4,2 UV-I 626 W/m² -1,7 °C 16,4 °C 17,7 km/h (3 Bft)
17.03.2019 11:58 16,3 °C 29 % 1004,7 hPa 0,0 mm 10,3 km/h (2 Bft) W-NW 298 ° 1 min 0,000 mm 4,1 UV-I 664 W/m² -1,8 °C 16,3 °C 16,1 km/h (3 Bft)
17.03.2019 11:59 16,3 °C 28 % 1004,7 hPa 0,0 mm 11,8 km/h (2 Bft) NW 319 ° 1 min 0,000 mm 4,2 UV-I 675 W/m² -2,2 °C 16,3 °C 16,1 km/h (3 Bft)
17.03.2019 12:00 16,2 °C 29 % 1004,7 hPa 0,0 mm 7,0 km/h (2 Bft) W-NW 292 ° 1 min 0,000 mm 4,2 UV-I 671 W/m² -1,8 °C 16,2 °C 11,3 km/h (2 Bft)
17.03.2019 12:01 16,2 °C 29 % 1004,6 hPa 0,0 mm 7,4 km/h (2 Bft) W-SW 257 ° 1 min 0,432 mm 4,2 UV-I 684 W/m² -1,8 °C 16,2 °C 12,9 km/h (3 Bft)
17.03.2019 12:02 16,3 °C 30 % 1004,6 hPa 0,0 mm 10,6 km/h (2 Bft) NW 305 ° 1 min 0,000 mm 4,3 UV-I 693 W/m² -1,3 °C 16,3 °C 17,7 km/h (3 Bft)
17.03.2019 12:03 16,3 °C 28 % 1004,6 hPa 0,0 mm 12,1 km/h (2 Bft) W-NW 297 ° 1 min 0,000 mm 4,1 UV-I 668 W/m² -2,2 °C 16,3 °C 17,7 km/h (3 Bft)
17.03.2019 12:04 16,3 °C 28 % 1004,7 hPa 0,0 mm 10,3 km/h (2 Bft) W-NW 302 ° 1 min 0,000 mm 4,3 UV-I 691 W/m² -2,2 °C 16,3 °C 12,9 km/h (3 Bft)
17.03.2019 12:05 16,3 °C 28 % 1004,6 hPa 0,0 mm 11,8 km/h (2 Bft) NW 315 ° 1 min 0,000 mm 4,2 UV-I 696 W/m² -2,2 °C 16,3 °C 16,1 km/h (3 Bft)
17.03.2019 12:06 16,2 °C 28 % 1004,7 hPa 0,0 mm 9,5 km/h (2 Bft) W 279 ° 1 min 0,000 mm 4,2 UV-I 675 W/m² -2,3 °C 16,2 °C 16,1 km/h (3 Bft)
17.03.2019 12:07 16,2 °C 28 % 1004,7 hPa 0,0 mm 12,8 km/h (3 Bft) W-SW 243 ° 1 min 0,000 mm 4,3 UV-I 710 W/m² -2,3 °C 16,2 °C 16,1 km/h (3 Bft)
17.03.2019 12:08 16,2 °C 30 % 1004,6 hPa 0,0 mm 7,5 km/h (2 Bft) NW 314 ° 1 min 0,000 mm 4,3 UV-I 708 W/m² -1,4 °C 16,2 °C 12,9 km/h (3 Bft)
17.03.2019 12:09 16,3 °C 30 % 1004,5 hPa 0,0 mm 5,1 km/h (1 Bft) W 270 ° 1 min 0,000 mm 4,3 UV-I 703 W/m² -1,3 °C 16,3 °C 8,0 km/h (2 Bft)
17.03.2019 12:10 16,3 °C 31 % 1004,5 hPa 0,0 mm 5,8 km/h (2 Bft) W-SW 240 ° 1 min 0,000 mm 4,3 UV-I 703 W/m² -0,8 °C 16,3 °C 19,3 km/h (3 Bft)
17.03.2019 12:11 16,3 °C 28 % 1004,5 hPa 0,0 mm 15,5 km/h (3 Bft) W-NW 289 ° 1 min 0,000 mm 4,3 UV-I 664 W/m² -2,2 °C 16,3 °C 22,5 km/h (4 Bft)
17.03.2019 12:12 16,3 °C 28 % 1004,5 hPa 0,0 mm 12,1 km/h (2 Bft) W 264 ° 1 min 0,000 mm 4,2 UV-I 679 W/m² -2,2 °C 16,3 °C 19,3 km/h (3 Bft)
17.03.2019 12:13 16,3 °C 28 % 1004,6 hPa 0,0 mm 12,3 km/h (3 Bft) W-SW 247 ° 1 min 0,000 mm 4,3 UV-I 693 W/m² -2,2 °C 16,3 °C 17,7 km/h (3 Bft)
17.03.2019 12:14 16,3 °C 28 % 1004,5 hPa 0,0 mm 12,4 km/h (3 Bft) W 278 ° 1 min 0,000 mm 4,2 UV-I 663 W/m² -2,2 °C 16,3 °C 17,7 km/h (3 Bft)
17.03.2019 12:15 16,3 °C 28 % 1004,5 hPa 0,0 mm 5,9 km/h (2 Bft) N-NW 337 ° 1 min 0,000 mm 4,2 UV-I 694 W/m² -2,2 °C 16,3 °C 12,9 km/h (3 Bft)
17.03.2019 12:16 16,4 °C 29 % 1004,5 hPa 0,0 mm 8,5 km/h (2 Bft) NW 311 ° 1 min 0,000 mm 4,3 UV-I 707 W/m² -1,7 °C 16,4 °C 12,9 km/h (3 Bft)
17.03.2019 12:17 16,4 °C 30 % 1004,4 hPa 0,0 mm 8,3 km/h (2 Bft) NW 308 ° 1 min 0,000 mm 4,4 UV-I 703 W/m² -1,2 °C 16,4 °C 14,5 km/h (3 Bft)
17.03.2019 12:18 16,5 °C 30 % 1004,4 hPa 0,0 mm 8,8 km/h (2 Bft) W-NW 285 ° 1 min 0,000 mm 4,4 UV-I 701 W/m² -1,1 °C 16,5 °C 12,9 km/h (3 Bft)
17.03.2019 12:19 16,6 °C 28 % 1004,4 hPa 0,0 mm 9,1 km/h (2 Bft) W-SW 253 ° 1 min 0,000 mm 4,3 UV-I 693 W/m² -2,0 °C 16,6 °C 19,3 km/h (3 Bft)
17.03.2019 12:20 16,5 °C 27 % 1004,5 hPa 0,0 mm 10,9 km/h (2 Bft) W-NW 288 ° 1 min 0,000 mm 4,3 UV-I 680 W/m² -2,5 °C 16,5 °C 19,3 km/h (3 Bft)
17.03.2019 12:21 16,5 °C 29 % 1004,5 hPa 0,0 mm 10,3 km/h (2 Bft) W 281 ° 1 min 0,000 mm 4,4 UV-I 728 W/m² -1,6 °C 16,5 °C 16,1 km/h (3 Bft)
17.03.2019 12:22 16,5 °C 28 % 1004,4 hPa 0,0 mm 7,4 km/h (2 Bft) N-NW 335 ° 1 min 0,000 mm 4,5 UV-I 735 W/m² -2,1 °C 16,5 °C 14,5 km/h (3 Bft)
17.03.2019 12:23 16,4 °C 29 % 1004,3 hPa 0,0 mm 5,2 km/h (1 Bft) W-NW 293 ° 1 min 0,000 mm 4,2 UV-I 707 W/m² -1,7 °C 16,4 °C 8,0 km/h (2 Bft)
17.03.2019 12:24 16,5 °C 28 % 1004,3 hPa 0,0 mm 12,0 km/h (2 Bft) W-SW 256 ° 1 min 0,000 mm 4,5 UV-I 733 W/m² -2,1 °C 16,5 °C 14,5 km/h (3 Bft)
17.03.2019 12:25 16,5 °C 29 % 1004,3 hPa 0,0 mm 7,0 km/h (2 Bft) W-NW 287 ° 1 min 0,000 mm 4,5 UV-I 731 W/m² -1,6 °C 16,5 °C 12,9 km/h (3 Bft)
17.03.2019 12:26 16,6 °C 29 % 1004,3 hPa 0,0 mm 7,2 km/h (2 Bft) W-SW 254 ° 1 min 0,000 mm 4,5 UV-I 729 W/m² -1,5 °C 16,6 °C 12,9 km/h (3 Bft)
17.03.2019 12:27 16,6 °C 28 % 1004,3 hPa 0,0 mm 10,3 km/h (2 Bft) W-NW 292 ° 1 min 0,000 mm 4,5 UV-I 728 W/m² -2,0 °C 16,6 °C 19,3 km/h (3 Bft)
17.03.2019 12:28 16,6 °C 27 % 1004,3 hPa 0,0 mm 10,1 km/h (2 Bft) W-NW 294 ° 1 min 0,000 mm 4,4 UV-I 694 W/m² -2,5 °C 16,6 °C 12,9 km/h (3 Bft)
17.03.2019 12:29 16,5 °C 29 % 1004,3 hPa 0,0 mm 9,3 km/h (2 Bft) W-NW 302 ° 1 min 0,000 mm 4,0 UV-I 694 W/m² -1,6 °C 16,5 °C 16,1 km/h (3 Bft)
17.03.2019 12:30 16,5 °C 26 % 1004,2 hPa 0,0 mm 12,5 km/h (3 Bft) NW 317 ° 1 min 0,000 mm 4,3 UV-I 694 W/m² -3,1 °C 16,5 °C 20,9 km/h (4 Bft)
17.03.2019 12:31 16,5 °C 28 % 1004,3 hPa 0,0 mm 11,3 km/h (2 Bft) W-NW 298 ° 1 min 0,000 mm 4,3 UV-I 710 W/m² -2,1 °C 16,5 °C 20,9 km/h (4 Bft)
17.03.2019 12:32 16,6 °C 28 % 1004,2 hPa 0,0 mm 5,7 km/h (1 Bft) NW 311 ° 1 min 0,000 mm 4,4 UV-I 701 W/m² -2,0 °C 16,6 °C 9,7 km/h (2 Bft)
17.03.2019 12:33 16,7 °C 29 % 1004,2 hPa 0,0 mm 4,6 km/h (1 Bft) W-NW 298 ° 1 min 0,000 mm 4,5 UV-I 701 W/m² -1,4 °C 16,7 °C 6,4 km/h (2 Bft)
17.03.2019 12:34 16,8 °C 28 % 1004,2 hPa 0,0 mm 7,5 km/h (2 Bft) NW 317 ° 1 min 0,000 mm 4,5 UV-I 675 W/m² -1,8 °C 16,8 °C 11,3 km/h (2 Bft)
17.03.2019 12:35 16,8 °C 30 % 1004,2 hPa 0,0 mm 7,4 km/h (2 Bft) W-NW 300 ° 1 min 0,000 mm 4,4 UV-I 701 W/m² -0,9 °C 16,8 °C 16,1 km/h (3 Bft)
17.03.2019 12:36 16,7 °C 30 % 1004,2 hPa 0,0 mm 9,0 km/h (2 Bft) W-NW 302 ° 1 min 0,000 mm 4,5 UV-I 724 W/m² -0,9 °C 16,7 °C 14,5 km/h (3 Bft)
17.03.2019 12:37 16,6 °C 29 % 1004,2 hPa 0,0 mm 10,0 km/h (2 Bft) W-NW 295 ° 1 min 0,000 mm 4,4 UV-I 726 W/m² -1,5 °C 16,6 °C 17,7 km/h (3 Bft)
17.03.2019 12:38 16,6 °C 30 % 1004,1 hPa 0,0 mm 8,5 km/h (2 Bft) NW 306 ° 1 min 0,000 mm 4,4 UV-I 726 W/m² -1,0 °C 16,6 °C 14,5 km/h (3 Bft)
17.03.2019 12:39 16,6 °C 30 % 1004,1 hPa 0,0 mm 8,5 km/h (2 Bft) NW 313 ° 1 min 0,000 mm 4,4 UV-I 708 W/m² -1,0 °C 16,6 °C 14,5 km/h (3 Bft)
17.03.2019 12:40 16,5 °C 30 % 1004,2 hPa 0,0 mm 10,8 km/h (2 Bft) W-NW 302 ° 1 min 0,000 mm 4,4 UV-I 684 W/m² -1,1 °C 16,5 °C 14,5 km/h (3 Bft)
17.03.2019 12:41 16,4 °C 30 % 1004,2 hPa 0,0 mm 6,1 km/h (2 Bft) NW 320 ° 1 min 0,000 mm 4,4 UV-I 714 W/m² -1,2 °C 16,4 °C 9,7 km/h (2 Bft)
17.03.2019 12:42 16,4 °C 31 % 1004,2 hPa 0,0 mm 6,6 km/h (2 Bft) NW 304 ° 1 min 0,000 mm 4,3 UV-I 696 W/m² -0,8 °C 16,4 °C 9,7 km/h (2 Bft)
17.03.2019 12:43 16,6 °C 30 % 1004,1 hPa 0,0 mm 3,3 km/h (1 Bft) NW 320 ° 1 min 0,000 mm 4,3 UV-I 626 W/m² -1,0 °C 16,6 °C 6,4 km/h (2 Bft)
17.03.2019 12:44 16,6 °C 33 % 1004,1 hPa 0,0 mm 7,3 km/h (2 Bft) NW 314 ° 0 min 0,000 mm 4,5 UV-I 548 W/m² 0,3 °C 16,6 °C 9,7 km/h (2 Bft)
17.03.2019 12:45 16,7 °C 32 % 1004,1 hPa 0,0 mm 5,8 km/h (2 Bft) N 355 ° 0 min 0,000 mm 4,2 UV-I 548 W/m² -0,1 °C 16,7 °C 9,7 km/h (2 Bft)
17.03.2019 12:46 16,8 °C 31 % 1004,1 hPa 0,0 mm 4,7 km/h (1 Bft) NW 319 ° 0 min 0,000 mm 4,1 UV-I 585 W/m² -0,4 °C 16,8 °C 6,4 km/h (2 Bft)
17.03.2019 12:47 16,7 °C 30 % 1004,1 hPa 0,0 mm 8,8 km/h (2 Bft) W 262 ° 0 min 0,000 mm 4,2 UV-I 563 W/m² -0,9 °C 16,7 °C 12,9 km/h (3 Bft)
17.03.2019 12:48 16,6 °C 30 % 1004,1 hPa 0,0 mm 13,3 km/h (3 Bft) NW 311 ° 1 min 0,000 mm 3,8 UV-I 601 W/m² -1,0 °C 16,6 °C 17,7 km/h (3 Bft)
17.03.2019 12:49 16,4 °C 30 % 1004,1 hPa 0,0 mm 10,6 km/h (2 Bft) W-NW 288 ° 1 min 0,000 mm 4,0 UV-I 647 W/m² -1,2 °C 16,4 °C 16,1 km/h (3 Bft)
17.03.2019 12:50 16,4 °C 30 % 1004,1 hPa 0,0 mm 6,8 km/h (2 Bft) NW 304 ° 0 min 0,000 mm 4,3 UV-I 591 W/m² -1,2 °C 16,4 °C 9,7 km/h (2 Bft)
17.03.2019 12:51 16,3 °C 30 % 1004,1 hPa 0,0 mm 4,6 km/h (1 Bft) NW 317 ° 1 min 0,000 mm 4,4 UV-I 717 W/m² -1,3 °C 16,3 °C 8,0 km/h (2 Bft)
17.03.2019 12:52 16,3 °C 31 % 1004,1 hPa 0,0 mm 5,6 km/h (1 Bft) NW 316 ° 1 min 0,000 mm 4,0 UV-I 631 W/m² -0,8 °C 16,3 °C 8,0 km/h (2 Bft)
17.03.2019 12:53 16,4 °C 31 % 1004,1 hPa 0,0 mm 9,1 km/h (2 Bft) NW 309 ° 1 min 0,000 mm 4,3 UV-I 645 W/m² -0,8 °C 16,4 °C 14,5 km/h (3 Bft)
17.03.2019 12:54 16,4 °C 32 % 1004,1 hPa 0,0 mm 8,2 km/h (2 Bft) NW 306 ° 1 min 0,000 mm 4,5 UV-I 742 W/m² -0,3 °C 16,4 °C 12,9 km/h (3 Bft)
17.03.2019 12:55 16,4 °C 32 % 1004,1 hPa 0,0 mm 13,6 km/h (3 Bft) N-NW 331 ° 1 min 0,000 mm 4,5 UV-I 731 W/m² -0,3 °C 16,4 °C 17,7 km/h (3 Bft)
17.03.2019 12:56 16,4 °C 31 % 1004,2 hPa 0,0 mm 11,5 km/h (2 Bft) NW 315 ° 1 min 0,000 mm 4,3 UV-I 652 W/m² -0,8 °C 16,4 °C 16,1 km/h (3 Bft)
17.03.2019 12:57 16,4 °C 32 % 1004,1 hPa 0,0 mm 6,6 km/h (2 Bft) NW 324 ° 1 min 0,000 mm 4,3 UV-I 701 W/m² -0,3 °C 16,4 °C 11,3 km/h (2 Bft)
17.03.2019 12:58 16,4 °C 29 % 1004,1 hPa 0,0 mm 9,0 km/h (2 Bft) W 281 ° 1 min 0,000 mm 4,4 UV-I 729 W/m² -1,7 °C 16,4 °C 12,9 km/h (3 Bft)
17.03.2019 12:59 16,4 °C 32 % 1004,1 hPa 0,0 mm 10,9 km/h (2 Bft) NW 307 ° 1 min 0,000 mm 4,3 UV-I 693 W/m² -0,3 °C 16,4 °C 14,5 km/h (3 Bft)
17.03.2019 13:00 16,4 °C 32 % 1004,1 hPa 0,0 mm 10,9 km/h (2 Bft) NW 326 ° 1 min 0,000 mm 4,4 UV-I 710 W/m² -0,3 °C 16,4 °C 16,1 km/h (3 Bft)
17.03.2019 13:01 16,4 °C 31 % 1004,1 hPa 0,0 mm 7,2 km/h (2 Bft) NW 321 ° 1 min 0,457 mm 4,4 UV-I 722 W/m² -0,8 °C 16,4 °C 14,5 km/h (3 Bft)
17.03.2019 13:02 16,3 °C 31 % 1004,0 hPa 0,0 mm 10,9 km/h (2 Bft) NW 323 ° 1 min 0,000 mm 4,1 UV-I 680 W/m² -0,8 °C 16,3 °C 16,1 km/h (3 Bft)
17.03.2019 13:03 16,3 °C 32 % 1004,1 hPa 0,0 mm 6,7 km/h (2 Bft) NW 312 ° 1 min 0,000 mm 4,4 UV-I 715 W/m² -0,4 °C 16,3 °C 11,3 km/h (2 Bft)
17.03.2019 13:04 16,4 °C 33 % 1004,0 hPa 0,0 mm 12,3 km/h (3 Bft) W-NW 286 ° 1 min 0,000 mm 4,3 UV-I 703 W/m² 0,1 °C 16,4 °C 17,7 km/h (3 Bft)
17.03.2019 13:05 16,4 °C 34 % 1004,1 hPa 0,0 mm 17,1 km/h (3 Bft) W-NW 294 ° 1 min 0,000 mm 4,3 UV-I 705 W/m² 0,5 °C 16,4 °C 25,7 km/h (4 Bft)
17.03.2019 13:06 16,5 °C 31 % 1004,1 hPa 0,0 mm 9,9 km/h (2 Bft) NW 309 ° 1 min 0,000 mm 4,4 UV-I 712 W/m² -0,7 °C 16,5 °C 17,7 km/h (3 Bft)
17.03.2019 13:07 16,5 °C 33 % 1004,1 hPa 0,0 mm 9,2 km/h (2 Bft) NW 310 ° 1 min 0,000 mm 4,4 UV-I 717 W/m² 0,2 °C 16,5 °C 14,5 km/h (3 Bft)
17.03.2019 13:08 16,4 °C 31 % 1004,1 hPa 0,0 mm 13,7 km/h (3 Bft) N-NW 336 ° 1 min 0,000 mm 4,4 UV-I 717 W/m² -0,8 °C 16,4 °C 19,3 km/h (3 Bft)
17.03.2019 13:09 16,3 °C 31 % 1004,1 hPa 0,0 mm 12,0 km/h (2 Bft) W 267 ° 1 min 0,000 mm 4,3 UV-I 714 W/m² -0,8 °C 16,3 °C 16,1 km/h (3 Bft)
17.03.2019 13:10 16,3 °C 32 % 1004,0 hPa 0,0 mm 4,8 km/h (1 Bft) W-NW 299 ° 1 min 0,000 mm 4,3 UV-I 710 W/m² -0,4 °C 16,3 °C 9,7 km/h (2 Bft)
17.03.2019 13:11 16,3 °C 31 % 1004,0 hPa 0,0 mm 5,0 km/h (1 Bft) W-NW 282 ° 1 min 0,000 mm 4,3 UV-I 710 W/m² -0,8 °C 16,3 °C 11,3 km/h (2 Bft)
17.03.2019 13:12 16,3 °C 32 % 1003,9 hPa 0,0 mm 7,4 km/h (2 Bft) NW 317 ° 1 min 0,000 mm 4,3 UV-I 710 W/m² -0,4 °C 16,3 °C 14,5 km/h (3 Bft)
17.03.2019 13:13 16,3 °C 31 % 1003,9 hPa 0,0 mm 7,3 km/h (2 Bft) NW 317 ° 1 min 0,000 mm 4,3 UV-I 707 W/m² -0,8 °C 16,3 °C 9,7 km/h (2 Bft)
17.03.2019 13:14 16,3 °C 33 % 1004,0 hPa 0,0 mm 12,8 km/h (3 Bft) NW 319 ° 1 min 0,000 mm 4,3 UV-I 707 W/m² 0,0 °C 16,3 °C 17,7 km/h (3 Bft)
17.03.2019 13:15 16,4 °C 36 % 1003,9 hPa 0,0 mm 8,0 km/h (2 Bft) W-NW 294 ° 1 min 0,000 mm 4,3 UV-I 700 W/m² 1,3 °C 16,4 °C 14,5 km/h (3 Bft)
17.03.2019 13:16 16,4 °C 31 % 1003,9 hPa 0,0 mm 8,4 km/h (2 Bft) NW 315 ° 1 min 0,000 mm 4,3 UV-I 701 W/m² -0,8 °C 16,4 °C 17,7 km/h (3 Bft)
17.03.2019 13:17 16,4 °C 33 % 1003,9 hPa 0,0 mm 12,1 km/h (2 Bft) N-NW 331 ° 1 min 0,000 mm 4,1 UV-I 712 W/m² 0,1 °C 16,4 °C 16,1 km/h (3 Bft)
17.03.2019 13:18 16,5 °C 32 % 1003,9 hPa 0,0 mm 11,8 km/h (2 Bft) W-NW 288 ° 1 min 0,000 mm 4,3 UV-I 705 W/m² -0,2 °C 16,5 °C 14,5 km/h (3 Bft)
17.03.2019 13:19 16,5 °C 32 % 1003,9 hPa 0,0 mm 8,2 km/h (2 Bft) W 275 ° 1 min 0,000 mm 4,3 UV-I 701 W/m² -0,2 °C 16,5 °C 14,5 km/h (3 Bft)
17.03.2019 13:20 16,4 °C 31 % 1003,9 hPa 0,0 mm 12,1 km/h (2 Bft) W-NW 303 ° 1 min 0,000 mm 4,3 UV-I 696 W/m² -0,8 °C 16,4 °C 17,7 km/h (3 Bft)
17.03.2019 13:21 16,4 °C 32 % 1003,9 hPa 0,0 mm 13,7 km/h (3 Bft) W 261 ° 1 min 0,000 mm 4,2 UV-I 696 W/m² -0,3 °C 16,4 °C 19,3 km/h (3 Bft)
17.03.2019 13:22 16,3 °C 30 % 1003,9 hPa 0,0 mm 12,7 km/h (3 Bft) W-SW 254 ° 1 min 0,000 mm 3,9 UV-I 696 W/m² -1,3 °C 16,3 °C 14,5 km/h (3 Bft)
17.03.2019 13:23 16,3 °C 31 % 1003,9 hPa 0,0 mm 8,8 km/h (2 Bft) N-NW 336 ° 1 min 0,000 mm 3,2 UV-I 696 W/m² -0,8 °C 16,3 °C 12,9 km/h (3 Bft)
17.03.2019 13:24 16,2 °C 32 % 1003,8 hPa 0,0 mm 13,9 km/h (3 Bft) NW 325 ° 0 min 0,000 mm 3,3 UV-I 401 W/m² -0,5 °C 16,2 °C 19,3 km/h (3 Bft)
17.03.2019 13:25 16,1 °C 32 % 1003,9 hPa 0,0 mm 9,2 km/h (2 Bft) W-NW 298 ° 0 min 0,000 mm 4,2 UV-I 401 W/m² -0,6 °C 16,1 °C 14,5 km/h (3 Bft)
17.03.2019 13:26 16,2 °C 33 % 1003,8 hPa 0,0 mm 9,9 km/h (2 Bft) W-NW 290 ° 0 min 0,000 mm 4,1 UV-I 401 W/m² -0,1 °C 16,2 °C 17,7 km/h (3 Bft)
17.03.2019 13:27 16,2 °C 32 % 1003,9 hPa 0,0 mm 15,6 km/h (3 Bft) W 268 ° 1 min 0,000 mm 4,2 UV-I 689 W/m² -0,5 °C 16,2 °C 22,5 km/h (4 Bft)
17.03.2019 13:28 16,2 °C 31 % 1003,9 hPa 0,0 mm 7,1 km/h (2 Bft) W 276 ° 1 min 0,000 mm 4,2 UV-I 691 W/m² -0,9 °C 16,2 °C 12,9 km/h (3 Bft)
17.03.2019 13:29 16,1 °C 31 % 1003,8 hPa 0,0 mm 9,4 km/h (2 Bft) W-NW 300 ° 1 min 0,000 mm 4,2 UV-I 696 W/m² -1,0 °C 16,1 °C 14,5 km/h (3 Bft)
17.03.2019 13:30 16,1 °C 32 % 1003,7 hPa 0,0 mm 7,3 km/h (2 Bft) NW 315 ° 1 min 0,000 mm 4,2 UV-I 714 W/m² -0,6 °C 16,1 °C 11,3 km/h (2 Bft)
17.03.2019 13:31 16,2 °C 33 % 1003,8 hPa 0,0 mm 8,2 km/h (2 Bft) NW 314 ° 1 min 0,000 mm 4,2 UV-I 615 W/m² -0,1 °C 16,2 °C 14,5 km/h (3 Bft)
17.03.2019 13:32 16,2 °C 33 % 1003,7 hPa 0,0 mm 12,5 km/h (3 Bft) W-NW 300 ° 0 min 0,000 mm 3,8 UV-I 578 W/m² -0,1 °C 16,2 °C 17,7 km/h (3 Bft)
17.03.2019 13:33 16,2 °C 30 % 1003,7 hPa 0,0 mm 9,0 km/h (2 Bft) W-NW 296 ° 0 min 0,000 mm 3,6 UV-I 578 W/m² -1,4 °C 16,2 °C 14,5 km/h (3 Bft)
17.03.2019 13:34 16,1 °C 32 % 1003,8 hPa 0,0 mm 13,3 km/h (3 Bft) W-NW 294 ° 0 min 0,000 mm 4,1 UV-I 578 W/m² -0,6 °C 16,1 °C 17,7 km/h (3 Bft)
17.03.2019 13:35 16,1 °C 33 % 1003,8 hPa 0,0 mm 8,4 km/h (2 Bft) NW 317 ° 1 min 0,000 mm 4,1 UV-I 696 W/m² -0,2 °C 16,1 °C 14,5 km/h (3 Bft)
17.03.2019 13:36 16,2 °C 32 % 1003,7 hPa 0,0 mm 8,2 km/h (2 Bft) W-SW 257 ° 1 min 0,000 mm 4,1 UV-I 673 W/m² -0,5 °C 16,2 °C 16,1 km/h (3 Bft)
17.03.2019 13:37 16,2 °C 30 % 1003,7 hPa 0,0 mm 3,6 km/h (1 Bft) W 263 ° 1 min 0,000 mm 4,1 UV-I 680 W/m² -1,4 °C 16,2 °C 11,3 km/h (2 Bft)
17.03.2019 13:38 16,2 °C 31 % 1003,6 hPa 0,0 mm 4,3 km/h (1 Bft) W 281 ° 1 min 0,000 mm 4,1 UV-I 675 W/m² -0,9 °C 16,2 °C 9,7 km/h (2 Bft)
17.03.2019 13:39 16,3 °C 35 % 1003,7 hPa 0,0 mm 11,2 km/h (2 Bft) W-SW 246 ° 1 min 0,000 mm 4,1 UV-I 673 W/m² 0,8 °C 16,3 °C 17,7 km/h (3 Bft)
17.03.2019 13:40 16,4 °C 33 % 1003,7 hPa 0,0 mm 8,8 km/h (2 Bft) W 268 ° 1 min 0,000 mm 4,0 UV-I 671 W/m² 0,1 °C 16,4 °C 14,5 km/h (3 Bft)
17.03.2019 13:41 16,4 °C 30 % 1003,7 hPa 0,0 mm 7,7 km/h (2 Bft) W 272 ° 1 min 0,000 mm 4,0 UV-I 668 W/m² -1,2 °C 16,4 °C 12,9 km/h (3 Bft)
17.03.2019 13:42 16,4 °C 31 % 1003,8 hPa 0,0 mm 6,6 km/h (2 Bft) W-NW 287 ° 1 min 0,000 mm 4,0 UV-I 666 W/m² -0,8 °C 16,4 °C 11,3 km/h (2 Bft)
17.03.2019 13:43 16,4 °C 33 % 1003,7 hPa 0,0 mm 9,8 km/h (2 Bft) W-NW 289 ° 1 min 0,000 mm 4,0 UV-I 666 W/m² 0,1 °C 16,4 °C 14,5 km/h (3 Bft)
17.03.2019 13:44 16,4 °C 31 % 1003,7 hPa 0,0 mm 9,5 km/h (2 Bft) W-NW 302 ° 1 min 0,000 mm 4,0 UV-I 671 W/m² -0,8 °C 16,4 °C 14,5 km/h (3 Bft)
17.03.2019 13:45 16,3 °C 30 % 1003,6 hPa 0,0 mm 13,9 km/h (3 Bft) W-NW 290 ° 1 min 0,000 mm 4,0 UV-I 675 W/m² -1,3 °C 16,3 °C 19,3 km/h (3 Bft)
17.03.2019 13:46 16,3 °C 30 % 1003,6 hPa 0,0 mm 13,4 km/h (3 Bft) W-NW 300 ° 1 min 0,000 mm 3,7 UV-I 675 W/m² -1,3 °C 16,3 °C 19,3 km/h (3 Bft)
17.03.2019 13:47 16,2 °C 32 % 1003,6 hPa 0,0 mm 6,5 km/h (2 Bft) NW 314 ° 1 min 0,000 mm 4,0 UV-I 675 W/m² -0,5 °C 16,2 °C 9,7 km/h (2 Bft)
17.03.2019 13:48 16,2 °C 32 % 1003,6 hPa 0,0 mm 11,7 km/h (2 Bft) W 275 ° 1 min 0,000 mm 4,0 UV-I 663 W/m² -0,5 °C 16,2 °C 20,9 km/h (4 Bft)
17.03.2019 13:49 16,2 °C 31 % 1003,6 hPa 0,0 mm 14,7 km/h (3 Bft) W 265 ° 1 min 0,000 mm 4,0 UV-I 643 W/m² -0,9 °C 16,2 °C 20,9 km/h (4 Bft)
17.03.2019 13:50 16,2 °C 32 % 1003,7 hPa 0,0 mm 15,8 km/h (3 Bft) W-NW 293 ° 1 min 0,000 mm 3,9 UV-I 661 W/m² -0,5 °C 16,2 °C 20,9 km/h (4 Bft)
17.03.2019 13:51 16,2 °C 30 % 1003,6 hPa 0,0 mm 9,9 km/h (2 Bft) W-NW 296 ° 1 min 0,000 mm 3,9 UV-I 654 W/m² -1,4 °C 16,2 °C 19,3 km/h (3 Bft)
17.03.2019 13:52 16,2 °C 32 % 1003,5 hPa 0,0 mm 5,4 km/h (1 Bft) NW 304 ° 1 min 0,000 mm 3,9 UV-I 652 W/m² -0,5 °C 16,2 °C 8,0 km/h (2 Bft)
17.03.2019 13:53 16,2 °C 30 % 1003,6 hPa 0,0 mm 11,5 km/h (2 Bft) W-NW 288 ° 1 min 0,000 mm 3,9 UV-I 626 W/m² -1,4 °C 16,2 °C 16,1 km/h (3 Bft)
17.03.2019 13:54 16,2 °C 30 % 1003,7 hPa 0,0 mm 8,0 km/h (2 Bft) W 267 ° 1 min 0,000 mm 3,9 UV-I 647 W/m² -1,4 °C 16,2 °C 17,7 km/h (3 Bft)
17.03.2019 13:55 16,2 °C 31 % 1003,7 hPa 0,0 mm 15,3 km/h (3 Bft) W-NW 295 ° 1 min 0,000 mm 3,9 UV-I 645 W/m² -0,9 °C 16,2 °C 22,5 km/h (4 Bft)
17.03.2019 13:56 16,2 °C 31 % 1003,7 hPa 0,0 mm 14,3 km/h (3 Bft) W-NW 288 ° 1 min 0,000 mm 3,8 UV-I 647 W/m² -0,9 °C 16,2 °C 19,3 km/h (3 Bft)
17.03.2019 13:57 16,1 °C 31 % 1003,7 hPa 0,0 mm 15,1 km/h (3 Bft) W 266 ° 1 min 0,000 mm 3,8 UV-I 636 W/m² -1,0 °C 16,1 °C 17,7 km/h (3 Bft)
17.03.2019 13:58 16,1 °C 32 % 1003,5 hPa 0,0 mm 8,9 km/h (2 Bft) N-NW 330 ° 1 min 0,000 mm 3,8 UV-I 638 W/m² -0,6 °C 16,1 °C 16,1 km/h (3 Bft)
17.03.2019 13:59 16,1 °C 32 % 1003,4 hPa 0,0 mm 12,9 km/h (3 Bft) N-NO 18 ° 1 min 0,000 mm 3,8 UV-I 638 W/m² -0,6 °C 16,1 °C 17,7 km/h (3 Bft)
17.03.2019 14:00 16,0 °C 31 % 1003,3 hPa 0,0 mm 8,6 km/h (2 Bft) N-NW 333 ° 1 min 0,000 mm 3,8 UV-I 636 W/m² -1,1 °C 16,0 °C 14,5 km/h (3 Bft)
17.03.2019 14:01 16,2 °C 34 % 1003,4 hPa 0,0 mm 11,5 km/h (2 Bft) NW 313 ° 1 min 0,457 mm 3,8 UV-I 633 W/m² 0,3 °C 16,2 °C 17,7 km/h (3 Bft)
17.03.2019 14:02 16,3 °C 34 % 1003,4 hPa 0,0 mm 10,6 km/h (2 Bft) N-NW 331 ° 1 min 0,000 mm 3,7 UV-I 635 W/m² 0,4 °C 16,3 °C 14,5 km/h (3 Bft)
17.03.2019 14:03 16,4 °C 31 % 1003,5 hPa 0,0 mm 8,0 km/h (2 Bft) W 264 ° 1 min 0,000 mm 3,7 UV-I 631 W/m² -0,8 °C 16,4 °C 14,5 km/h (3 Bft)
17.03.2019 14:04 16,3 °C 31 % 1003,5 hPa 0,0 mm 6,4 km/h (2 Bft) W-NW 286 ° 1 min 0,000 mm 3,7 UV-I 633 W/m² -0,8 °C 16,3 °C 16,1 km/h (3 Bft)
17.03.2019 14:05 16,3 °C 32 % 1003,4 hPa 0,0 mm 11,5 km/h (2 Bft) W-NW 302 ° 1 min 0,000 mm 3,7 UV-I 636 W/m² -0,4 °C 16,3 °C 16,1 km/h (3 Bft)
17.03.2019 14:06 16,3 °C 32 % 1003,4 hPa 0,0 mm 10,2 km/h (2 Bft) W-NW 284 ° 1 min 0,000 mm 3,7 UV-I 626 W/m² -0,4 °C 16,3 °C 16,1 km/h (3 Bft)
17.03.2019 14:07 16,3 °C 33 % 1003,4 hPa 0,0 mm 9,2 km/h (2 Bft) W 265 ° 1 min 0,000 mm 3,7 UV-I 631 W/m² 0,0 °C 16,3 °C 16,1 km/h (3 Bft)
17.03.2019 14:08 16,2 °C 33 % 1003,4 hPa 0,0 mm 12,3 km/h (3 Bft) W-NW 284 ° 1 min 0,000 mm 3,7 UV-I 631 W/m² -0,1 °C 16,2 °C 16,1 km/h (3 Bft)
17.03.2019 14:09 16,2 °C 30 % 1003,5 hPa 0,0 mm 9,4 km/h (2 Bft) N-NW 338 ° 1 min 0,000 mm 3,6 UV-I 626 W/m² -1,4 °C 16,2 °C 14,5 km/h (3 Bft)
17.03.2019 14:10 16,2 °C 32 % 1003,5 hPa 0,0 mm 6,5 km/h (2 Bft) NW 317 ° 1 min 0,000 mm 3,6 UV-I 624 W/m² -0,5 °C 16,2 °C 11,3 km/h (2 Bft)
17.03.2019 14:11 16,2 °C 32 % 1003,5 hPa 0,0 mm 7,9 km/h (2 Bft) NW 317 ° 1 min 0,000 mm 3,6 UV-I 622 W/m² -0,5 °C 16,2 °C 14,5 km/h (3 Bft)
17.03.2019 14:12 16,3 °C 30 % 1003,4 hPa 0,0 mm 6,9 km/h (2 Bft) NW 309 ° 1 min 0,000 mm 3,6 UV-I 621 W/m² -1,3 °C 16,3 °C 12,9 km/h (3 Bft)
17.03.2019 14:13 16,3 °C 31 % 1003,4 hPa 0,0 mm 9,1 km/h (2 Bft) W 273 ° 1 min 0,000 mm 3,6 UV-I 617 W/m² -0,8 °C 16,3 °C 19,3 km/h (3 Bft)
17.03.2019 14:14 16,3 °C 32 % 1003,4 hPa 0,0 mm 8,0 km/h (2 Bft) NW 311 ° 1 min 0,000 mm 3,6 UV-I 617 W/m² -0,4 °C 16,3 °C 12,9 km/h (3 Bft)
17.03.2019 14:15 16,3 °C 33 % 1003,4 hPa 0,0 mm 13,6 km/h (3 Bft) W 268 ° 1 min 0,000 mm 3,6 UV-I 613 W/m² 0,0 °C 16,3 °C 20,9 km/h (4 Bft)
17.03.2019 14:16 16,3 °C 31 % 1003,4 hPa 0,0 mm 15,2 km/h (3 Bft) W 261 ° 1 min 0,000 mm 3,5 UV-I 615 W/m² -0,8 °C 16,3 °C 24,1 km/h (4 Bft)
17.03.2019 14:17 16,3 °C 31 % 1003,4 hPa 0,0 mm 15,6 km/h (3 Bft) NW 310 ° 0 min 0,000 mm 3,5 UV-I 592 W/m² -0,8 °C 16,3 °C 22,5 km/h (4 Bft)
17.03.2019 14:18 16,2 °C 31 % 1003,4 hPa 0,0 mm 9,2 km/h (2 Bft) W 271 ° 1 min 0,000 mm 3,4 UV-I 619 W/m² -0,9 °C 16,2 °C 14,5 km/h (3 Bft)
17.03.2019 14:19 16,2 °C 31 % 1003,4 hPa 0,0 mm 12,6 km/h (3 Bft) W-NW 294 ° 1 min 0,000 mm 3,5 UV-I 610 W/m² -0,9 °C 16,2 °C 16,1 km/h (3 Bft)
17.03.2019 14:20 16,2 °C 30 % 1003,4 hPa 0,0 mm 16,5 km/h (3 Bft) W-NW 292 ° 1 min 0,000 mm 3,5 UV-I 608 W/m² -1,4 °C 16,2 °C 24,1 km/h (4 Bft)
17.03.2019 14:21 16,1 °C 30 % 1003,4 hPa 0,0 mm 11,9 km/h (2 Bft) W 280 ° 1 min 0,000 mm 3,4 UV-I 606 W/m² -1,5 °C 16,1 °C 20,9 km/h (4 Bft)
17.03.2019 14:22 16,1 °C 30 % 1003,4 hPa 0,0 mm 14,0 km/h (3 Bft) NW 321 ° 1 min 0,000 mm 3,4 UV-I 605 W/m² -1,5 °C 16,1 °C 19,3 km/h (3 Bft)
17.03.2019 14:23 16,1 °C 32 % 1003,4 hPa 0,0 mm 15,0 km/h (3 Bft) NW 321 ° 1 min 0,000 mm 3,4 UV-I 603 W/m² -0,6 °C 16,1 °C 19,3 km/h (3 Bft)
17.03.2019 14:24 16,1 °C 32 % 1003,4 hPa 0,0 mm 11,5 km/h (2 Bft) N-NW 329 ° 0 min 0,000 mm 3,3 UV-I 594 W/m² -0,6 °C 16,1 °C 17,7 km/h (3 Bft)
17.03.2019 14:25 16,2 °C 32 % 1003,5 hPa 0,0 mm 12,9 km/h (3 Bft) N 351 ° 0 min 0,000 mm 3,3 UV-I 578 W/m² -0,5 °C 16,2 °C 17,7 km/h (3 Bft)
17.03.2019 14:26 16,2 °C 32 % 1003,4 hPa 0,0 mm 5,6 km/h (1 Bft) W-NW 294 ° 0 min 0,000 mm 3,3 UV-I 570 W/m² -0,5 °C 16,2 °C 11,3 km/h (2 Bft)
17.03.2019 14:27 16,2 °C 31 % 1003,4 hPa 0,0 mm 12,2 km/h (2 Bft) N-NW 342 ° 0 min 0,000 mm 3,3 UV-I 587 W/m² -0,9 °C 16,2 °C 17,7 km/h (3 Bft)
17.03.2019 14:28 16,3 °C 34 % 1003,4 hPa 0,0 mm 12,1 km/h (2 Bft) W-SW 246 ° 0 min 0,000 mm 3,3 UV-I 592 W/m² 0,4 °C 16,3 °C 16,1 km/h (3 Bft)
17.03.2019 14:29 16,4 °C 32 % 1003,5 hPa 0,0 mm 16,4 km/h (3 Bft) W-SW 255 ° 0 min 0,000 mm 3,3 UV-I 592 W/m² -0,3 °C 16,4 °C 20,9 km/h (4 Bft)
17.03.2019 14:30 16,4 °C 29 % 1003,4 hPa 0,0 mm 13,7 km/h (3 Bft) W 269 ° 0 min 0,000 mm 3,3 UV-I 587 W/m² -1,7 °C 16,4 °C 20,9 km/h (4 Bft)
17.03.2019 14:31 16,3 °C 30 % 1003,4 hPa 0,0 mm 9,6 km/h (2 Bft) W 281 ° 0 min 0,000 mm 3,1 UV-I 575 W/m² -1,3 °C 16,3 °C 16,1 km/h (3 Bft)
17.03.2019 14:32 16,2 °C 30 % 1003,3 hPa 0,0 mm 9,7 km/h (2 Bft) W-NW 291 ° 0 min 0,000 mm 3,2 UV-I 582 W/m² -1,4 °C 16,2 °C 12,9 km/h (3 Bft)
17.03.2019 14:33 16,2 °C 30 % 1003,4 hPa 0,0 mm 8,8 km/h (2 Bft) NW 310 ° 0 min 0,000 mm 3,2 UV-I 584 W/m² -1,4 °C 16,2 °C 12,9 km/h (3 Bft)
17.03.2019 14:34 16,2 °C 31 % 1003,4 hPa 0,0 mm 10,1 km/h (2 Bft) NW 314 ° 0 min 0,000 mm 3,2 UV-I 580 W/m² -0,9 °C 16,2 °C 16,1 km/h (3 Bft)
17.03.2019 14:35 16,1 °C 32 % 1003,4 hPa 0,0 mm 9,8 km/h (2 Bft) N-NW 338 ° 0 min 0,000 mm 3,2 UV-I 575 W/m² -0,6 °C 16,1 °C 14,5 km/h (3 Bft)
17.03.2019 14:36 16,2 °C 31 % 1003,4 hPa 0,0 mm 9,0 km/h (2 Bft) W-NW 287 ° 0 min 0,000 mm 3,2 UV-I 573 W/m² -0,9 °C 16,2 °C 12,9 km/h (3 Bft)
17.03.2019 14:37 16,2 °C 31 % 1003,4 hPa 0,0 mm 10,8 km/h (2 Bft) W-NW 299 ° 0 min 0,000 mm 3,1 UV-I 571 W/m² -0,9 °C 16,2 °C 16,1 km/h (3 Bft)
17.03.2019 14:38 16,2 °C 31 % 1003,4 hPa 0,0 mm 8,5 km/h (2 Bft) NW 310 ° 0 min 0,000 mm 3,1 UV-I 568 W/m² -0,9 °C 16,2 °C 16,1 km/h (3 Bft)
17.03.2019 14:39 16,2 °C 30 % 1003,4 hPa 0,0 mm 12,8 km/h (3 Bft) NW 316 ° 0 min 0,000 mm 3,1 UV-I 568 W/m² -1,4 °C 16,2 °C 17,7 km/h (3 Bft)
17.03.2019 14:40 16,2 °C 32 % 1003,4 hPa 0,0 mm 14,4 km/h (3 Bft) NW 323 ° 0 min 0,000 mm 3,1 UV-I 568 W/m² -0,5 °C 16,2 °C 19,3 km/h (3 Bft)
17.03.2019 14:41 16,3 °C 33 % 1003,4 hPa 0,0 mm 11,6 km/h (2 Bft) NW 313 ° 0 min 0,000 mm 3,1 UV-I 563 W/m² 0,0 °C 16,3 °C 16,1 km/h (3 Bft)
17.03.2019 14:42 16,3 °C 33 % 1003,4 hPa 0,0 mm 9,7 km/h (2 Bft) NW 326 ° 0 min 0,000 mm 3,1 UV-I 559 W/m² 0,0 °C 16,3 °C 17,7 km/h (3 Bft)
17.03.2019 14:43 16,2 °C 32 % 1003,4 hPa 0,0 mm 12,0 km/h (2 Bft) W-NW 293 ° 0 min 0,000 mm 3,0 UV-I 557 W/m² -0,5 °C 16,2 °C 17,7 km/h (3 Bft)
17.03.2019 14:44 16,2 °C 30 % 1003,4 hPa 0,0 mm 11,3 km/h (2 Bft) NW 313 ° 0 min 0,000 mm 3,0 UV-I 557 W/m² -1,4 °C 16,2 °C 16,1 km/h (3 Bft)
17.03.2019 14:45 16,2 °C 31 % 1003,4 hPa 0,0 mm 12,4 km/h (3 Bft) W-NW 294 ° 0 min 0,000 mm 3,0 UV-I 555 W/m² -0,9 °C 16,2 °C 17,7 km/h (3 Bft)
17.03.2019 14:46 16,2 °C 32 % 1003,4 hPa 0,0 mm 12,0 km/h (2 Bft) W-SW 251 ° 0 min 0,000 mm 3,0 UV-I 552 W/m² -0,5 °C 16,2 °C 14,5 km/h (3 Bft)
17.03.2019 14:47 16,2 °C 31 % 1003,4 hPa 0,0 mm 13,5 km/h (3 Bft) W 272 ° 0 min 0,000 mm 3,0 UV-I 548 W/m² -0,9 °C 16,2 °C 17,7 km/h (3 Bft)
17.03.2019 14:48 16,2 °C 30 % 1003,4 hPa 0,0 mm 12,9 km/h (3 Bft) W-NW 292 ° 0 min 0,000 mm 2,9 UV-I 548 W/m² -1,4 °C 16,2 °C 19,3 km/h (3 Bft)
17.03.2019 14:49 16,2 °C 30 % 1003,5 hPa 0,0 mm 8,7 km/h (2 Bft) NW 304 ° 0 min 0,000 mm 2,9 UV-I 547 W/m² -1,4 °C 16,2 °C 14,5 km/h (3 Bft)
17.03.2019 14:50 16,2 °C 31 % 1003,4 hPa 0,0 mm 8,9 km/h (2 Bft) W-NW 288 ° 0 min 0,000 mm 2,9 UV-I 547 W/m² -0,9 °C 16,2 °C 16,1 km/h (3 Bft)
17.03.2019 14:51 16,2 °C 32 % 1003,3 hPa 0,0 mm 11,5 km/h (2 Bft) NW 311 ° 0 min 0,000 mm 2,8 UV-I 529 W/m² -0,5 °C 16,2 °C 19,3 km/h (3 Bft)
17.03.2019 14:52 16,1 °C 30 % 1003,3 hPa 0,0 mm 8,8 km/h (2 Bft) W-NW 291 ° 0 min 0,000 mm 2,9 UV-I 541 W/m² -1,5 °C 16,1 °C 12,9 km/h (3 Bft)
17.03.2019 14:53 16,1 °C 32 % 1003,4 hPa 0,0 mm 12,8 km/h (3 Bft) NW 323 ° 0 min 0,000 mm 2,8 UV-I 536 W/m² -0,6 °C 16,1 °C 19,3 km/h (3 Bft)
17.03.2019 14:54 16,1 °C 32 % 1003,4 hPa 0,0 mm 11,5 km/h (2 Bft) W-NW 288 ° 0 min 0,000 mm 2,8 UV-I 534 W/m² -0,6 °C 16,1 °C 19,3 km/h (3 Bft)
17.03.2019 14:55 16,2 °C 33 % 1003,4 hPa 0,0 mm 12,6 km/h (3 Bft) NW 304 ° 0 min 0,000 mm 2,8 UV-I 533 W/m² -0,1 °C 16,2 °C 17,7 km/h (3 Bft)
17.03.2019 14:56 16,2 °C 31 % 1003,4 hPa 0,0 mm 17,2 km/h (3 Bft) W-NW 284 ° 0 min 0,000 mm 2,8 UV-I 529 W/m² -0,9 °C 16,2 °C 27,4 km/h (4 Bft)
17.03.2019 14:57 16,1 °C 30 % 1003,4 hPa 0,0 mm 12,1 km/h (2 Bft) W-SW 248 ° 0 min 0,000 mm 2,8 UV-I 527 W/m² -1,5 °C 16,1 °C 24,1 km/h (4 Bft)
17.03.2019 14:58 16,1 °C 31 % 1003,4 hPa 0,0 mm 13,5 km/h (3 Bft) W-NW 286 ° 0 min 0,000 mm 2,7 UV-I 527 W/m² -1,0 °C 16,1 °C 20,9 km/h (4 Bft)
17.03.2019 14:59 16,1 °C 30 % 1003,4 hPa 0,0 mm 10,5 km/h (2 Bft) W 267 ° 0 min 0,000 mm 2,7 UV-I 522 W/m² -1,5 °C 16,1 °C 16,1 km/h (3 Bft)
17.03.2019 15:00 16,0 °C 31 % 1003,4 hPa 0,0 mm 15,6 km/h (3 Bft) W-NW 284 ° 0 min 0,000 mm 2,7 UV-I 522 W/m² -1,1 °C 16,0 °C 22,5 km/h (4 Bft)
17.03.2019 15:01 16,0 °C 30 % 1003,4 hPa 0,0 mm 12,9 km/h (3 Bft) W-NW 299 ° 0 min 0,406 mm 2,6 UV-I 506 W/m² -1,6 °C 16,0 °C 17,7 km/h (3 Bft)
17.03.2019 15:02 16,0 °C 31 % 1003,4 hPa 0,0 mm 10,0 km/h (2 Bft) W 280 ° 0 min 0,000 mm 2,7 UV-I 520 W/m² -1,1 °C 16,0 °C 12,9 km/h (3 Bft)
17.03.2019 15:03 16,0 °C 31 % 1003,4 hPa 0,0 mm 14,1 km/h (3 Bft) W-NW 299 ° 0 min 0,000 mm 2,6 UV-I 515 W/m² -1,1 °C 16,0 °C 19,3 km/h (3 Bft)
17.03.2019 15:04 16,1 °C 32 % 1003,4 hPa 0,0 mm 11,5 km/h (2 Bft) W-SW 254 ° 0 min 0,000 mm 2,5 UV-I 515 W/m² -0,6 °C 16,1 °C 17,7 km/h (3 Bft)
17.03.2019 15:05 16,1 °C 31 % 1003,4 hPa 0,0 mm 12,2 km/h (2 Bft) W 277 ° 0 min 0,000 mm 2,6 UV-I 508 W/m² -1,0 °C 16,1 °C 16,1 km/h (3 Bft)
17.03.2019 15:06 16,1 °C 31 % 1003,4 hPa 0,0 mm 6,8 km/h (2 Bft) N-NW 338 ° 0 min 0,000 mm 2,6 UV-I 508 W/m² -1,0 °C 16,1 °C 14,5 km/h (3 Bft)
17.03.2019 15:07 16,1 °C 31 % 1003,4 hPa 0,0 mm 13,3 km/h (3 Bft) W 277 ° 0 min 0,000 mm 2,6 UV-I 504 W/m² -1,0 °C 16,1 °C 17,7 km/h (3 Bft)
17.03.2019 15:08 16,1 °C 31 % 1003,4 hPa 0,0 mm 13,4 km/h (3 Bft) W 263 ° 0 min 0,000 mm 2,6 UV-I 503 W/m² -1,0 °C 16,1 °C 19,3 km/h (3 Bft)
17.03.2019 15:09 16,0 °C 31 % 1003,4 hPa 0,0 mm 17,0 km/h (3 Bft) W-NW 286 ° 0 min 0,000 mm 2,5 UV-I 501 W/m² -1,1 °C 16,0 °C 22,5 km/h (4 Bft)
17.03.2019 15:10 16,0 °C 30 % 1003,4 hPa 0,0 mm 12,6 km/h (3 Bft) W 271 ° 0 min 0,000 mm 2,5 UV-I 499 W/m² -1,6 °C 16,0 °C 17,7 km/h (3 Bft)
17.03.2019 15:11 15,9 °C 31 % 1003,4 hPa 0,0 mm 13,8 km/h (3 Bft) NW 306 ° 0 min 0,000 mm 2,5 UV-I 494 W/m² -1,2 °C 15,9 °C 17,7 km/h (3 Bft)
17.03.2019 15:12 16,0 °C 32 % 1003,4 hPa 0,0 mm 10,7 km/h (2 Bft) W-NW 288 ° 0 min 0,000 mm 2,5 UV-I 492 W/m² -0,7 °C 16,0 °C 16,1 km/h (3 Bft)
17.03.2019 15:13 16,1 °C 33 % 1003,4 hPa 0,0 mm 11,5 km/h (2 Bft) W 276 ° 0 min 0,000 mm 2,4 UV-I 485 W/m² -0,2 °C 16,1 °C 20,9 km/h (4 Bft)
17.03.2019 15:14 16,0 °C 33 % 1003,5 hPa 0,0 mm 14,3 km/h (3 Bft) W 277 ° 0 min 0,000 mm 2,4 UV-I 489 W/m² -0,3 °C 16,0 °C 20,9 km/h (4 Bft)
17.03.2019 15:15 16,0 °C 31 % 1003,4 hPa 0,0 mm 11,3 km/h (2 Bft) W-SW 247 ° 0 min 0,000 mm 2,4 UV-I 485 W/m² -1,1 °C 16,0 °C 16,1 km/h (3 Bft)
17.03.2019 15:16 15,9 °C 32 % 1003,3 hPa 0,0 mm 10,3 km/h (2 Bft) W-NW 282 ° 0 min 0,000 mm 2,4 UV-I 480 W/m² -0,8 °C 15,9 °C 17,7 km/h (3 Bft)
17.03.2019 15:17 16,0 °C 32 % 1003,3 hPa 0,0 mm 10,1 km/h (2 Bft) NW 309 ° 0 min 0,000 mm 2,3 UV-I 478 W/m² -0,7 °C 16,0 °C 12,9 km/h (3 Bft)
17.03.2019 15:18 16,1 °C 32 % 1003,3 hPa 0,0 mm 11,1 km/h (2 Bft) W-SW 240 ° 0 min 0,000 mm 2,2 UV-I 476 W/m² -0,6 °C 16,1 °C 17,7 km/h (3 Bft)
17.03.2019 15:19 16,1 °C 31 % 1003,4 hPa 0,0 mm 9,5 km/h (2 Bft) W-NW 298 ° 0 min 0,000 mm 2,2 UV-I 475 W/m² -1,0 °C 16,1 °C 16,1 km/h (3 Bft)
17.03.2019 15:20 16,1 °C 31 % 1003,3 hPa 0,0 mm 11,5 km/h (2 Bft) W-NW 286 ° 0 min 0,000 mm 2,2 UV-I 473 W/m² -1,0 °C 16,1 °C 17,7 km/h (3 Bft)
17.03.2019 15:21 16,1 °C 33 % 1003,4 hPa 0,0 mm 14,8 km/h (3 Bft) W 271 ° 0 min 0,000 mm 2,2 UV-I 469 W/m² -0,2 °C 16,1 °C 17,7 km/h (3 Bft)
17.03.2019 15:22 16,1 °C 31 % 1003,4 hPa 0,0 mm 15,0 km/h (3 Bft) W 277 ° 0 min 0,000 mm 2,1 UV-I 466 W/m² -1,0 °C 16,1 °C 20,9 km/h (4 Bft)
17.03.2019 15:23 16,0 °C 31 % 1003,5 hPa 0,0 mm 11,3 km/h (2 Bft) N-NW 333 ° 0 min 0,000 mm 2,1 UV-I 452 W/m² -1,1 °C 16,0 °C 19,3 km/h (3 Bft)
17.03.2019 15:24 15,9 °C 32 % 1003,4 hPa 0,0 mm 12,0 km/h (2 Bft) S 184 ° 0 min 0,000 mm 2,1 UV-I 457 W/m² -0,8 °C 15,9 °C 17,7 km/h (3 Bft)
17.03.2019 15:25 15,9 °C 33 % 1003,4 hPa 0,0 mm 13,4 km/h (3 Bft) W-SW 242 ° 0 min 0,000 mm 2,1 UV-I 459 W/m² -0,3 °C 15,9 °C 20,9 km/h (4 Bft)
17.03.2019 15:26 15,9 °C 32 % 1003,4 hPa 0,0 mm 13,9 km/h (3 Bft) W-NW 302 ° 0 min 0,000 mm 2,1 UV-I 455 W/m² -0,8 °C 15,9 °C 19,3 km/h (3 Bft)
17.03.2019 15:27 15,8 °C 33 % 1003,4 hPa 0,0 mm 5,1 km/h (1 Bft) NW 307 ° 0 min 0,000 mm 2,0 UV-I 454 W/m² -0,4 °C 15,8 °C 9,7 km/h (2 Bft)
17.03.2019 15:28 15,9 °C 35 % 1003,4 hPa 0,0 mm 10,8 km/h (2 Bft) W-NW 291 ° 0 min 0,000 mm 2,0 UV-I 448 W/m² 0,5 °C 15,9 °C 17,7 km/h (3 Bft)
17.03.2019 15:29 15,9 °C 37 % 1003,4 hPa 0,0 mm 13,9 km/h (3 Bft) W-NW 298 ° 0 min 0,000 mm 2,0 UV-I 446 W/m² 1,2 °C 15,9 °C 17,7 km/h (3 Bft)
17.03.2019 15:30 15,9 °C 34 % 1003,4 hPa 0,0 mm 12,9 km/h (3 Bft) W-SW 257 ° 0 min 0,000 mm 2,0 UV-I 445 W/m² 0,1 °C 15,9 °C 19,3 km/h (3 Bft)
17.03.2019 15:31 15,9 °C 33 % 1003,4 hPa 0,0 mm 14,5 km/h (3 Bft) W-NW 296 ° 0 min 0,000 mm 1,9 UV-I 441 W/m² -0,3 °C 15,9 °C 19,3 km/h (3 Bft)
17.03.2019 15:32 15,9 °C 34 % 1003,5 hPa 0,0 mm 14,3 km/h (3 Bft) W-SW 256 ° 0 min 0,000 mm 1,9 UV-I 434 W/m² 0,1 °C 15,9 °C 20,9 km/h (4 Bft)
17.03.2019 15:33 15,8 °C 34 % 1003,5 hPa 0,0 mm 9,3 km/h (2 Bft) W-NW 289 ° 0 min 0,000 mm 1,9 UV-I 441 W/m² -0,0 °C 15,8 °C 14,5 km/h (3 Bft)
17.03.2019 15:34 15,7 °C 34 % 1003,5 hPa 0,0 mm 14,6 km/h (3 Bft) NW 315 ° 0 min 0,000 mm 1,9 UV-I 431 W/m² -0,1 °C 15,7 °C 22,5 km/h (4 Bft)
17.03.2019 15:35 15,7 °C 35 % 1003,5 hPa 0,0 mm 12,3 km/h (3 Bft) NW 321 ° 0 min 0,000 mm 1,9 UV-I 432 W/m² 0,3 °C 15,7 °C 24,1 km/h (4 Bft)
17.03.2019 15:36 15,7 °C 36 % 1003,5 hPa 0,0 mm 17,6 km/h (3 Bft) N-NW 343 ° 0 min 0,000 mm 1,9 UV-I 425 W/m² 0,7 °C 15,7 °C 30,6 km/h (5 Bft)
17.03.2019 15:37 15,6 °C 35 % 1003,5 hPa 0,0 mm 11,7 km/h (2 Bft) W 280 ° 0 min 0,000 mm 1,6 UV-I 371 W/m² 0,2 °C 15,6 °C 16,1 km/h (3 Bft)
17.03.2019 15:38 15,5 °C 35 % 1003,5 hPa 0,0 mm 18,0 km/h (3 Bft) W-NW 286 ° 0 min 0,000 mm 1,8 UV-I 429 W/m² 0,1 °C 15,5 °C 22,5 km/h (4 Bft)
17.03.2019 15:39 15,4 °C 35 % 1003,5 hPa 0,0 mm 13,3 km/h (3 Bft) NW 321 ° 0 min 0,000 mm 1,8 UV-I 424 W/m² 0,0 °C 15,4 °C 22,5 km/h (4 Bft)
17.03.2019 15:40 15,3 °C 35 % 1003,6 hPa 0,0 mm 16,6 km/h (3 Bft) NW 323 ° 0 min 0,000 mm 1,8 UV-I 417 W/m² -0,1 °C 15,3 °C 27,4 km/h (4 Bft)
17.03.2019 15:41 15,3 °C 36 % 1003,5 hPa 0,0 mm 17,9 km/h (3 Bft) NW 311 ° 0 min 0,000 mm 1,8 UV-I 415 W/m² 0,3 °C 15,3 °C 24,1 km/h (4 Bft)
17.03.2019 15:42 15,2 °C 37 % 1003,5 hPa 0,0 mm 18,2 km/h (3 Bft) NW 319 ° 0 min 0,000 mm 1,7 UV-I 387 W/m² 0,6 °C 15,2 °C 25,7 km/h (4 Bft)
17.03.2019 15:43 15,2 °C 36 % 1003,5 hPa 0,0 mm 15,3 km/h (3 Bft) NW 316 ° 0 min 0,000 mm 1,7 UV-I 383 W/m² 0,2 °C 15,2 °C 27,4 km/h (4 Bft)
17.03.2019 15:44 15,1 °C 36 % 1003,5 hPa 0,0 mm 15,8 km/h (3 Bft) NW 307 ° 0 min 0,000 mm 1,6 UV-I 330 W/m² 0,1 °C 15,1 °C 22,5 km/h (4 Bft)
17.03.2019 15:45 15,1 °C 37 % 1003,5 hPa 0,0 mm 10,3 km/h (2 Bft) W-NW 288 ° 0 min 0,000 mm 1,6 UV-I 313 W/m² 0,5 °C 15,1 °C 16,1 km/h (3 Bft)
17.03.2019 15:46 15,1 °C 37 % 1003,5 hPa 0,0 mm 11,3 km/h (2 Bft) W 271 ° 0 min 0,000 mm 1,5 UV-I 308 W/m² 0,5 °C 15,1 °C 24,1 km/h (4 Bft)
17.03.2019 15:47 15,0 °C 38 % 1003,5 hPa 0,0 mm 13,1 km/h (3 Bft) NW 323 ° 0 min 0,000 mm 1,5 UV-I 304 W/m² 0,8 °C 15,0 °C 19,3 km/h (3 Bft)
17.03.2019 15:48 15,0 °C 36 % 1003,6 hPa 0,0 mm 16,2 km/h (3 Bft) W 261 ° 0 min 0,000 mm 1,5 UV-I 297 W/m² 0,1 °C 15,0 °C 25,7 km/h (4 Bft)
17.03.2019 15:49 15,0 °C 37 % 1003,6 hPa 0,0 mm 13,6 km/h (3 Bft) W-NW 287 ° 0 min 0,000 mm 1,5 UV-I 288 W/m² 0,4 °C 15,0 °C 19,3 km/h (3 Bft)
17.03.2019 15:50 14,9 °C 36 % 1003,5 hPa 0,0 mm 11,1 km/h (2 Bft) W 276 ° 0 min 0,000 mm 1,5 UV-I 313 W/m² -0,0 °C 14,9 °C 17,7 km/h (3 Bft)
17.03.2019 15:51 14,9 °C 36 % 1003,6 hPa 0,0 mm 16,4 km/h (3 Bft) W 261 ° 0 min 0,000 mm 1,5 UV-I 334 W/m² -0,0 °C 14,9 °C 24,1 km/h (4 Bft)
17.03.2019 15:52 14,9 °C 36 % 1003,6 hPa 0,0 mm 10,9 km/h (2 Bft) W-NW 292 ° 0 min 0,000 mm 1,5 UV-I 350 W/m² -0,0 °C 14,9 °C 14,5 km/h (3 Bft)
17.03.2019 15:53 14,9 °C 36 % 1003,6 hPa 0,0 mm 12,8 km/h (3 Bft) NW 306 ° 0 min 0,000 mm 1,4 UV-I 364 W/m² -0,0 °C 14,9 °C 17,7 km/h (3 Bft)
17.03.2019 15:54 14,9 °C 37 % 1003,6 hPa 0,0 mm 8,3 km/h (2 Bft) W-SW 246 ° 0 min 0,000 mm 1,5 UV-I 378 W/m² 0,3 °C 14,9 °C 14,5 km/h (3 Bft)
17.03.2019 15:55 14,8 °C 36 % 1003,7 hPa 0,0 mm 15,6 km/h (3 Bft) W 263 ° 0 min 0,000 mm 1,5 UV-I 376 W/m² -0,1 °C 14,8 °C 20,9 km/h (4 Bft)
17.03.2019 15:56 14,8 °C 36 % 1003,6 hPa 0,0 mm 18,3 km/h (3 Bft) NW 306 ° 0 min 0,000 mm 1,5 UV-I 374 W/m² -0,1 °C 14,8 °C 25,7 km/h (4 Bft)
17.03.2019 15:57 14,8 °C 37 % 1003,8 hPa 0,0 mm 16,7 km/h (3 Bft) W 268 ° 0 min 0,000 mm 1,4 UV-I 339 W/m² 0,3 °C 14,8 °C 29,0 km/h (5 Bft)
17.03.2019 15:58 14,7 °C 37 % 1003,8 hPa 0,0 mm 17,4 km/h (3 Bft) N-NW 332 ° 0 min 0,000 mm 1,4 UV-I 359 W/m² 0,2 °C 14,7 °C 24,1 km/h (4 Bft)
17.03.2019 15:59 14,7 °C 37 % 1003,7 hPa 0,0 mm 13,3 km/h (3 Bft) N-NW 327 ° 0 min 0,000 mm 1,3 UV-I 355 W/m² 0,2 °C 14,7 °C 22,5 km/h (4 Bft)
17.03.2019 16:00 14,7 °C 38 % 1003,7 hPa 0,0 mm 16,4 km/h (3 Bft) W 273 ° 0 min 0,000 mm 1,3 UV-I 320 W/m² 0,5 °C 14,7 °C 19,3 km/h (3 Bft)
17.03.2019 16:01 14,6 °C 37 % 1003,7 hPa 0,0 mm 17,4 km/h (3 Bft) W-NW 284 ° 0 min 0,331 mm 1,1 UV-I 320 W/m² 0,1 °C 14,6 °C 29,0 km/h (5 Bft)
17.03.2019 16:02 14,6 °C 37 % 1003,7 hPa 0,0 mm 17,9 km/h (3 Bft) W-NW 301 ° 0 min 0,000 mm 1,3 UV-I 320 W/m² 0,1 °C 14,6 °C 24,1 km/h (4 Bft)
17.03.2019 16:03 14,5 °C 38 % 1003,8 hPa 0,0 mm 11,3 km/h (2 Bft) W 268 ° 0 min 0,000 mm 1,3 UV-I 338 W/m² 0,4 °C 14,5 °C 19,3 km/h (3 Bft)
17.03.2019 16:04 14,4 °C 38 % 1003,8 hPa 0,0 mm 23,9 km/h (4 Bft) SW 236 ° 0 min 0,000 mm 1,2 UV-I 338 W/m² 0,3 °C 14,4 °C 37,0 km/h (5 Bft)
17.03.2019 16:05 14,4 °C 38 % 1003,8 hPa 0,0 mm 16,6 km/h (3 Bft) W-NW 290 ° 0 min 0,000 mm 1,1 UV-I 123 W/m² 0,3 °C 14,4 °C 29,0 km/h (5 Bft)
17.03.2019 16:06 14,4 °C 38 % 1003,8 hPa 0,0 mm 14,2 km/h (3 Bft) NW 309 ° 0 min 0,000 mm 1,3 UV-I 123 W/m² 0,3 °C 14,4 °C 20,9 km/h (4 Bft)
17.03.2019 16:07 14,3 °C 39 % 1003,8 hPa 0,0 mm 19,7 km/h (3 Bft) W-SW 255 ° 0 min 0,000 mm 1,1 UV-I 123 W/m² 0,5 °C 14,3 °C 35,4 km/h (5 Bft)
17.03.2019 16:08 14,2 °C 39 % 1004,0 hPa 0,0 mm 23,6 km/h (4 Bft) W-NW 290 ° 0 min 0,000 mm 1,2 UV-I 123 W/m² 0,5 °C 14,2 °C 27,4 km/h (4 Bft)
17.03.2019 16:09 14,2 °C 38 % 1003,8 hPa 0,0 mm 23,5 km/h (4 Bft) W 264 ° 0 min 0,000 mm 1,0 UV-I 114 W/m² 0,1 °C 14,2 °C 35,4 km/h (5 Bft)
17.03.2019 16:10 14,2 °C 38 % 1004,0 hPa 0,0 mm 17,6 km/h (3 Bft) W 259 ° 0 min 0,000 mm 1,0 UV-I 74 W/m² 0,1 °C 14,2 °C 30,6 km/h (5 Bft)
17.03.2019 16:11 14,1 °C 38 % 1003,9 hPa 0,0 mm 20,9 km/h (4 Bft) W 259 ° 0 min 0,000 mm 1,0 UV-I 76 W/m² 0,0 °C 14,1 °C 29,0 km/h (5 Bft)
17.03.2019 16:12 14,0 °C 40 % 1003,9 hPa 0,0 mm 16,4 km/h (3 Bft) W-SW 255 ° 0 min 0,000 mm 1,0 UV-I 100 W/m² 0,6 °C 14,0 °C 27,4 km/h (4 Bft)
17.03.2019 16:13 13,9 °C 40 % 1003,9 hPa 0,0 mm 13,9 km/h (3 Bft) W-NW 301 ° 0 min 0,000 mm 1,0 UV-I 77 W/m² 0,5 °C 13,9 °C 20,9 km/h (4 Bft)
17.03.2019 16:14 13,9 °C 40 % 1003,9 hPa 0,0 mm 14,9 km/h (3 Bft) NW 315 ° 0 min 0,000 mm 1,0 UV-I 132 W/m² 0,5 °C 13,9 °C 30,6 km/h (5 Bft)
17.03.2019 16:15 13,9 °C 40 % 1004,0 hPa 0,0 mm 14,6 km/h (3 Bft) W-SW 254 ° 0 min 0,000 mm 0,9 UV-I 77 W/m² 0,5 °C 13,9 °C 20,9 km/h (4 Bft)
17.03.2019 16:16 13,8 °C 40 % 1004,0 hPa 0,0 mm 15,2 km/h (3 Bft) W-NW 288 ° 0 min 0,000 mm 0,9 UV-I 98 W/m² 0,4 °C 13,8 °C 25,7 km/h (4 Bft)
17.03.2019 16:17 13,8 °C 40 % 1004,0 hPa 0,0 mm 19,6 km/h (3 Bft) NW 310 ° 0 min 0,000 mm 0,9 UV-I 105 W/m² 0,4 °C 13,8 °C 32,2 km/h (5 Bft)
17.03.2019 16:18 13,8 °C 40 % 1004,1 hPa 0,0 mm 22,4 km/h (4 Bft) W 264 ° 0 min 0,000 mm 0,9 UV-I 86 W/m² 0,4 °C 13,8 °C 32,2 km/h (5 Bft)
17.03.2019 16:19 13,7 °C 40 % 1004,2 hPa 0,0 mm 23,3 km/h (4 Bft) W 280 ° 0 min 0,000 mm 0,9 UV-I 90 W/m² 0,4 °C 13,7 °C 33,8 km/h (5 Bft)
17.03.2019 16:20 13,6 °C 41 % 1004,2 hPa 0,0 mm 20,7 km/h (4 Bft) W 267 ° 0 min 0,000 mm 0,9 UV-I 90 W/m² 0,6 °C 13,6 °C 35,4 km/h (5 Bft)
17.03.2019 16:21 13,6 °C 41 % 1004,2 hPa 0,0 mm 20,8 km/h (4 Bft) W-NW 303 ° 0 min 0,000 mm 0,9 UV-I 90 W/m² 0,6 °C 13,6 °C 35,4 km/h (5 Bft)
17.03.2019 16:22 13,4 °C 41 % 1004,1 hPa 0,0 mm 21,9 km/h (4 Bft) W-NW 285 ° 0 min 0,000 mm 0,8 UV-I 97 W/m² 0,4 °C 13,4 °C 30,6 km/h (5 Bft)
17.03.2019 16:23 13,4 °C 42 % 1004,1 hPa 0,0 mm 24,9 km/h (4 Bft) W-NW 282 ° 0 min 0,000 mm 0,9 UV-I 97 W/m² 0,8 °C 13,4 °C 33,8 km/h (5 Bft)
17.03.2019 16:24 13,3 °C 42 % 1004,1 hPa 0,0 mm 16,3 km/h (3 Bft) NW 320 ° 0 min 0,000 mm 0,9 UV-I 113 W/m² 0,7 °C 13,3 °C 19,3 km/h (3 Bft)
17.03.2019 16:25 13,3 °C 42 % 1004,2 hPa 0,0 mm 20,6 km/h (4 Bft) W 267 ° 0 min 0,000 mm 1,0 UV-I 176 W/m² 0,7 °C 13,3 °C 29,0 km/h (5 Bft)
17.03.2019 16:26 13,3 °C 42 % 1004,1 hPa 0,0 mm 18,6 km/h (3 Bft) W-SW 243 ° 0 min 0,000 mm 0,8 UV-I 121 W/m² 0,7 °C 13,3 °C 27,4 km/h (4 Bft)
17.03.2019 16:27 13,3 °C 42 % 1004,1 hPa 0,0 mm 13,8 km/h (3 Bft) W 267 ° 0 min 0,000 mm 0,8 UV-I 123 W/m² 0,7 °C 13,3 °C 20,9 km/h (4 Bft)
17.03.2019 16:28 13,3 °C 42 % 1004,3 hPa 0,0 mm 24,4 km/h (4 Bft) W-SW 251 ° 0 min 0,000 mm 0,8 UV-I 125 W/m² 0,7 °C 13,3 °C 33,8 km/h (5 Bft)
17.03.2019 16:29 13,3 °C 42 % 1004,1 hPa 0,0 mm 24,2 km/h (4 Bft) W 278 ° 0 min 0,000 mm 0,8 UV-I 125 W/m² 0,7 °C 13,3 °C 35,4 km/h (5 Bft)
17.03.2019 16:30 13,3 °C 43 % 1004,2 hPa 0,0 mm 13,7 km/h (3 Bft) W 270 ° 0 min 0,000 mm 0,8 UV-I 123 W/m² 1,0 °C 13,3 °C 20,9 km/h (4 Bft)
17.03.2019 16:31 13,2 °C 43 % 1004,1 hPa 0,0 mm 20,4 km/h (4 Bft) W-SW 237 ° 0 min 0,000 mm 0,8 UV-I 123 W/m² 0,9 °C 13,2 °C 27,4 km/h (4 Bft)
17.03.2019 16:32 13,2 °C 43 % 1004,1 hPa 0,0 mm 21,8 km/h (4 Bft) W-NW 284 ° 0 min 0,000 mm 0,8 UV-I 120 W/m² 0,9 °C 13,2 °C 33,8 km/h (5 Bft)
17.03.2019 16:33 13,2 °C 43 % 1004,3 hPa 0,0 mm 20,3 km/h (4 Bft) W-SW 256 ° 0 min 0,000 mm 0,8 UV-I 109 W/m² 0,9 °C 13,2 °C 27,4 km/h (4 Bft)
17.03.2019 16:34 13,2 °C 43 % 1004,2 hPa 0,0 mm 17,3 km/h (3 Bft) W 261 ° 0 min 0,000 mm 0,7 UV-I 105 W/m² 0,9 °C 13,2 °C 24,1 km/h (4 Bft)
17.03.2019 16:35 13,2 °C 43 % 1004,2 hPa 0,0 mm 12,1 km/h (2 Bft) NW 311 ° 0 min 0,000 mm 0,7 UV-I 107 W/m² 0,9 °C 13,2 °C 16,1 km/h (3 Bft)
17.03.2019 16:36 13,2 °C 44 % 1004,2 hPa 0,0 mm 14,1 km/h (3 Bft) W 280 ° 0 min 0,000 mm 0,7 UV-I 102 W/m² 1,2 °C 13,2 °C 25,7 km/h (4 Bft)
17.03.2019 16:37 13,2 °C 44 % 1004,4 hPa 0,0 mm 16,8 km/h (3 Bft) W-NW 298 ° 0 min 0,000 mm 0,7 UV-I 105 W/m² 1,2 °C 13,2 °C 29,0 km/h (5 Bft)
17.03.2019 16:38 13,2 °C 44 % 1004,3 hPa 0,0 mm 16,6 km/h (3 Bft) W-NW 287 ° 0 min 0,000 mm 0,7 UV-I 104 W/m² 1,2 °C 13,2 °C 30,6 km/h (5 Bft)
17.03.2019 16:39 13,1 °C 44 % 1004,3 hPa 0,0 mm 20,1 km/h (4 Bft) W-NW 282 ° 0 min 0,000 mm 0,7 UV-I 100 W/m² 1,1 °C 13,1 °C 30,6 km/h (5 Bft)
17.03.2019 16:40 13,1 °C 44 % 1004,3 hPa 0,0 mm 19,5 km/h (3 Bft) W-NW 290 ° 0 min 0,000 mm 0,7 UV-I 97 W/m² 1,1 °C 13,1 °C 30,6 km/h (5 Bft)
17.03.2019 16:41 13,1 °C 44 % 1004,3 hPa 0,0 mm 17,4 km/h (3 Bft) W 280 ° 0 min 0,000 mm 0,7 UV-I 95 W/m² 1,1 °C 13,1 °C 25,7 km/h (4 Bft)
17.03.2019 16:42 13,1 °C 44 % 1004,3 hPa 0,0 mm 18,1 km/h (3 Bft) W-NW 292 ° 0 min 0,000 mm 0,6 UV-I 95 W/m² 1,1 °C 13,1 °C 22,5 km/h (4 Bft)
17.03.2019 16:43 13,0 °C 44 % 1004,4 hPa 0,0 mm 20,5 km/h (4 Bft) W 273 ° 0 min 0,000 mm 0,6 UV-I 97 W/m² 1,0 °C 13,0 °C 30,6 km/h (5 Bft)
17.03.2019 16:44 13,0 °C 44 % 1004,3 hPa 0,0 mm 16,1 km/h (3 Bft) W-SW 245 ° 0 min 0,000 mm 0,6 UV-I 100 W/m² 1,0 °C 13,0 °C 25,7 km/h (4 Bft)
17.03.2019 16:45 12,9 °C 44 % 1004,4 hPa 0,0 mm 22,5 km/h (4 Bft) W-NW 285 ° 0 min 0,000 mm 0,6 UV-I 98 W/m² 1,0 °C 12,9 °C 38,6 km/h (5 Bft)
17.03.2019 16:46 12,9 °C 44 % 1004,4 hPa 0,0 mm 24,7 km/h (4 Bft) W-NW 287 ° 0 min 0,000 mm 0,6 UV-I 95 W/m² 1,0 °C 12,9 °C 35,4 km/h (5 Bft)
17.03.2019 16:47 12,9 °C 45 % 1004,3 hPa 0,0 mm 12,8 km/h (3 Bft) W 279 ° 0 min 0,000 mm 0,6 UV-I 90 W/m² 1,3 °C 12,9 °C 20,9 km/h (4 Bft)
17.03.2019 16:48 12,8 °C 45 % 1004,4 hPa 0,0 mm 18,3 km/h (3 Bft) W-SW 249 ° 0 min 0,000 mm 0,5 UV-I 90 W/m² 1,2 °C 12,8 °C 27,4 km/h (4 Bft)
17.03.2019 16:49 12,8 °C 45 % 1004,5 hPa 0,0 mm 18,2 km/h (3 Bft) NW 311 ° 0 min 0,000 mm 0,5 UV-I 81 W/m² 1,2 °C 12,8 °C 30,6 km/h (5 Bft)
17.03.2019 16:50 12,8 °C 44 % 1004,6 hPa 0,0 mm 21,5 km/h (4 Bft) W-NW 298 ° 0 min 0,000 mm 0,5 UV-I 81 W/m² 0,9 °C 12,8 °C 33,8 km/h (5 Bft)
17.03.2019 16:51 12,7 °C 45 % 1004,6 hPa 0,0 mm 21,0 km/h (4 Bft) W-NW 286 ° 0 min 0,000 mm 0,5 UV-I 83 W/m² 1,1 °C 12,7 °C 30,6 km/h (5 Bft)
17.03.2019 16:52 12,7 °C 45 % 1004,6 hPa 0,0 mm 24,9 km/h (4 Bft) W-NW 290 ° 0 min 0,000 mm 0,5 UV-I 77 W/m² 1,1 °C 12,7 °C 37,0 km/h (5 Bft)
17.03.2019 16:53 12,7 °C 45 % 1004,6 hPa 0,0 mm 27,3 km/h (4 Bft) W-SW 248 ° 0 min 0,000 mm 0,5 UV-I 79 W/m² 1,1 °C 12,7 °C 38,6 km/h (5 Bft)
17.03.2019 16:54 12,6 °C 45 % 1004,6 hPa 0,0 mm 22,7 km/h (4 Bft) SW 216 ° 0 min 0,000 mm 0,5 UV-I 79 W/m² 1,0 °C 12,6 °C 32,2 km/h (5 Bft)
17.03.2019 16:55 12,6 °C 45 % 1004,6 hPa 0,0 mm 20,7 km/h (4 Bft) W 267 ° 0 min 0,000 mm 0,0 UV-I 77 W/m² 1,0 °C 12,6 °C 29,0 km/h (5 Bft)
17.03.2019 16:56 12,6 °C 45 % 1004,6 hPa 0,0 mm 15,9 km/h (3 Bft) W-NW 300 ° 0 min 0,000 mm 0,0 UV-I 72 W/m² 1,0 °C 12,6 °C 22,5 km/h (4 Bft)
17.03.2019 16:57 12,6 °C 45 % 1004,7 hPa 0,0 mm 15,5 km/h (3 Bft) W-SW 246 ° 0 min 0,000 mm 0,0 UV-I 69 W/m² 1,0 °C 12,6 °C 22,5 km/h (4 Bft)
17.03.2019 16:58 12,6 °C 46 % 1004,6 hPa 0,0 mm 17,1 km/h (3 Bft) NW 305 ° 0 min 0,000 mm 0,0 UV-I 69 W/m² 1,3 °C 12,6 °C 25,7 km/h (4 Bft)
17.03.2019 16:59 12,5 °C 46 % 1004,7 hPa 0,0 mm 15,7 km/h (3 Bft) NW 310 ° 0 min 0,000 mm 0,0 UV-I 63 W/m² 1,2 °C 12,5 °C 27,4 km/h (4 Bft)
17.03.2019 17:00 12,4 °C 46 % 1004,6 hPa 0,0 mm 14,4 km/h (3 Bft) W-NW 284 ° 0 min 0,000 mm 0,0 UV-I 62 W/m² 1,1 °C 12,4 °C 32,2 km/h (5 Bft)
17.03.2019 17:01 12,5 °C 46 % 1004,7 hPa 0,0 mm 19,9 km/h (4 Bft) W-NW 302 ° 0 min 0,177 mm 0,0 UV-I 60 W/m² 1,2 °C 12,5 °C 32,2 km/h (5 Bft)
17.03.2019 17:02 12,4 °C 46 % 1004,7 hPa 0,0 mm 22,1 km/h (4 Bft) W 271 ° 0 min 0,000 mm 0,0 UV-I 58 W/m² 1,1 °C 12,4 °C 33,8 km/h (5 Bft)
17.03.2019 17:03 12,4 °C 45 % 1004,8 hPa 0,0 mm 20,7 km/h (4 Bft) W-NW 292 ° 0 min 0,000 mm 0,0 UV-I 58 W/m² 0,8 °C 12,4 °C 27,4 km/h (4 Bft)
17.03.2019 17:04 12,4 °C 46 % 1004,8 hPa 0,0 mm 20,1 km/h (4 Bft) W-SW 257 ° 0 min 0,000 mm 0,0 UV-I 72 W/m² 1,1 °C 12,4 °C 30,6 km/h (5 Bft)
17.03.2019 17:05 12,3 °C 46 % 1004,8 hPa 0,0 mm 26,1 km/h (4 Bft) W 276 ° 0 min 0,000 mm 0,0 UV-I 54 W/m² 1,0 °C 12,3 °C 32,2 km/h (5 Bft)
17.03.2019 17:06 12,3 °C 47 % 1004,7 hPa 0,0 mm 18,8 km/h (3 Bft) W 263 ° 0 min 0,000 mm 0,0 UV-I 69 W/m² 1,3 °C 12,3 °C 27,4 km/h (4 Bft)
17.03.2019 17:07 12,3 °C 47 % 1004,7 hPa 0,0 mm 14,7 km/h (3 Bft) W 268 ° 0 min 0,000 mm 0,0 UV-I 70 W/m² 1,3 °C 12,3 °C 20,9 km/h (4 Bft)
17.03.2019 17:08 12,2 °C 47 % 1004,7 hPa 0,0 mm 19,4 km/h (3 Bft) W-SW 251 ° 0 min 0,000 mm 0,0 UV-I 51 W/m² 1,2 °C 12,2 °C 30,6 km/h (5 Bft)
17.03.2019 17:09 12,2 °C 47 % 1004,7 hPa 0,0 mm 18,6 km/h (3 Bft) W 265 ° 0 min 0,000 mm 0,0 UV-I 62 W/m² 1,2 °C 12,2 °C 27,4 km/h (4 Bft)
17.03.2019 17:10 12,2 °C 47 % 1004,7 hPa 0,0 mm 21,6 km/h (4 Bft) NW 320 ° 0 min 0,000 mm 0,0 UV-I 56 W/m² 1,2 °C 12,2 °C 33,8 km/h (5 Bft)
17.03.2019 17:11 12,2 °C 47 % 1004,7 hPa 0,0 mm 14,0 km/h (3 Bft) W-NW 295 ° 0 min 0,000 mm 0,0 UV-I 63 W/m² 1,2 °C 12,2 °C 20,9 km/h (4 Bft)
17.03.2019 17:12 12,2 °C 47 % 1004,7 hPa 0,0 mm 15,9 km/h (3 Bft) W-NW 292 ° 0 min 0,000 mm 0,0 UV-I 51 W/m² 1,2 °C 12,2 °C 22,5 km/h (4 Bft)
17.03.2019 17:13 12,2 °C 47 % 1004,7 hPa 0,0 mm 16,0 km/h (3 Bft) W 277 ° 0 min 0,000 mm 0,0 UV-I 46 W/m² 1,2 °C 12,2 °C 22,5 km/h (4 Bft)
17.03.2019 17:14 12,2 °C 47 % 1004,7 hPa 0,0 mm 18,1 km/h (3 Bft) W 267 ° 0 min 0,000 mm 0,0 UV-I 40 W/m² 1,2 °C 12,2 °C 22,5 km/h (4 Bft)
17.03.2019 17:15 12,1 °C 47 % 1004,7 hPa 0,0 mm 20,9 km/h (4 Bft) W 278 ° 0 min 0,000 mm 0,0 UV-I 40 W/m² 1,1 °C 12,1 °C 29,0 km/h (5 Bft)
17.03.2019 17:16 12,1 °C 47 % 1004,7 hPa 0,0 mm 16,4 km/h (3 Bft) W-NW 291 ° 0 min 0,000 mm 0,0 UV-I 40 W/m² 1,1 °C 12,1 °C 22,5 km/h (4 Bft)
17.03.2019 17:17 12,0 °C 47 % 1004,7 hPa 0,0 mm 19,0 km/h (3 Bft) SW 235 ° 0 min 0,000 mm 0,0 UV-I 40 W/m² 1,0 °C 12,0 °C 25,7 km/h (4 Bft)
17.03.2019 17:18 12,0 °C 48 % 1004,7 hPa 0,0 mm 16,6 km/h (3 Bft) W-SW 243 ° 0 min 0,000 mm 0,0 UV-I 37 W/m² 1,3 °C 12,0 °C 20,9 km/h (4 Bft)
17.03.2019 17:19 11,9 °C 48 % 1004,8 hPa 0,0 mm 14,4 km/h (3 Bft) S-SO 164 ° 0 min 0,000 mm 0,0 UV-I 32 W/m² 1,2 °C 11,9 °C 19,3 km/h (3 Bft)
17.03.2019 17:20 11,9 °C 48 % 1004,7 hPa 0,0 mm 18,7 km/h (3 Bft) S-SW 210 ° 0 min 0,000 mm 0,0 UV-I 32 W/m² 1,2 °C 11,9 °C 27,4 km/h (4 Bft)
17.03.2019 17:21 11,9 °C 48 % 1004,8 hPa 0,0 mm 26,1 km/h (4 Bft) W-NW 301 ° 0 min 0,000 mm 0,0 UV-I 32 W/m² 1,2 °C 11,9 °C 37,0 km/h (5 Bft)
17.03.2019 17:22 11,8 °C 48 % 1004,8 hPa 0,0 mm 18,1 km/h (3 Bft) NW 304 ° 0 min 0,000 mm 0,0 UV-I 30 W/m² 1,2 °C 11,8 °C 25,7 km/h (4 Bft)
17.03.2019 17:23 11,8 °C 49 % 1004,7 hPa 0,0 mm 12,9 km/h (3 Bft) W-SW 251 ° 0 min 0,000 mm 0,0 UV-I 28 W/m² 1,4 °C 11,8 °C 17,7 km/h (3 Bft)
17.03.2019 17:24 11,8 °C 49 % 1004,7 hPa 0,0 mm 12,8 km/h (3 Bft) W-NW 295 ° 0 min 0,000 mm 0,0 UV-I 28 W/m² 1,4 °C 11,8 °C 17,7 km/h (3 Bft)
17.03.2019 17:25 11,7 °C 50 % 1004,8 hPa 0,0 mm 17,5 km/h (3 Bft) W-SW 254 ° 0 min 0,000 mm 0,0 UV-I 26 W/m² 1,6 °C 11,7 °C 24,1 km/h (4 Bft)
17.03.2019 17:26 11,7 °C 50 % 1004,9 hPa 0,0 mm 21,6 km/h (4 Bft) W-NW 299 ° 0 min 0,000 mm 0,0 UV-I 25 W/m² 1,6 °C 11,7 °C 29,0 km/h (5 Bft)
17.03.2019 17:27 11,7 °C 49 % 1004,8 hPa 0,0 mm 18,5 km/h (3 Bft) W-NW 285 ° 0 min 0,000 mm 0,0 UV-I 25 W/m² 1,3 °C 11,7 °C 25,7 km/h (4 Bft)
17.03.2019 17:28 11,6 °C 49 % 1004,8 hPa 0,0 mm 14,8 km/h (3 Bft) W 259 ° 0 min 0,000 mm 0,0 UV-I 25 W/m² 1,3 °C 11,6 °C 19,3 km/h (3 Bft)
17.03.2019 17:29 11,6 °C 50 % 1004,8 hPa 0,0 mm 17,6 km/h (3 Bft) W-SW 242 ° 0 min 0,000 mm 0,0 UV-I 25 W/m² 1,5 °C 11,6 °C 24,1 km/h (4 Bft)
17.03.2019 17:30 11,5 °C 50 % 1004,8 hPa 0,0 mm 17,9 km/h (3 Bft) W 265 ° 0 min 0,000 mm 0,0 UV-I 23 W/m² 1,4 °C 11,5 °C 24,1 km/h (4 Bft)
17.03.2019 17:31 11,5 °C 50 % 1004,9 hPa 0,0 mm 21,5 km/h (4 Bft) W-NW 288 ° 0 min 0,000 mm 0,0 UV-I 23 W/m² 1,4 °C 11,5 °C 32,2 km/h (5 Bft)
17.03.2019 17:32 11,4 °C 50 % 1004,8 hPa 0,0 mm 21,4 km/h (4 Bft) W 266 ° 0 min 0,000 mm 0,0 UV-I 23 W/m² 1,4 °C 11,4 °C 29,0 km/h (5 Bft)
17.03.2019 17:33 11,4 °C 50 % 1004,9 hPa 0,0 mm 15,9 km/h (3 Bft) W 266 ° 0 min 0,000 mm 0,0 UV-I 21 W/m² 1,4 °C 11,4 °C 22,5 km/h (4 Bft)
17.03.2019 17:34 11,4 °C 51 % 1004,9 hPa 0,0 mm 13,9 km/h (3 Bft) W 269 ° 0 min 0,000 mm 0,0 UV-I 21 W/m² 1,6 °C 11,4 °C 20,9 km/h (4 Bft)
17.03.2019 17:35 11,4 °C 51 % 1004,9 hPa 0,0 mm 22,8 km/h (4 Bft) W-SW 241 ° 0 min 0,000 mm 0,0 UV-I 19 W/m² 1,6 °C 11,4 °C 33,8 km/h (5 Bft)
17.03.2019 17:36 11,3 °C 51 % 1004,8 hPa 0,0 mm 27,8 km/h (4 Bft) W-NW 287 ° 0 min 0,000 mm 0,0 UV-I 18 W/m² 1,5 °C 11,3 °C 41,8 km/h (6 Bft)
17.03.2019 17:37 11,3 °C 51 % 1005,0 hPa 0,0 mm 20,4 km/h (4 Bft) W-NW 288 ° 0 min 0,000 mm 0,0 UV-I 16 W/m² 1,5 °C 11,3 °C 30,6 km/h (5 Bft)
17.03.2019 17:38 11,3 °C 52 % 1005,0 hPa 0,0 mm 19,9 km/h (4 Bft) W 269 ° 0 min 0,000 mm 0,0 UV-I 16 W/m² 1,8 °C 11,3 °C 25,7 km/h (4 Bft)
17.03.2019 17:39 11,3 °C 52 % 1005,0 hPa 0,0 mm 21,8 km/h (4 Bft) W 279 ° 0 min 0,000 mm 0,0 UV-I 16 W/m² 1,8 °C 11,3 °C 30,6 km/h (5 Bft)
17.03.2019 17:40 11,3 °C 52 % 1004,9 hPa 0,0 mm 20,5 km/h (4 Bft) W-NW 285 ° 0 min 0,000 mm 0,0 UV-I 14 W/m² 1,8 °C 11,3 °C 25,7 km/h (4 Bft)
17.03.2019 17:41 11,2 °C 52 % 1004,9 hPa 0,0 mm 15,9 km/h (3 Bft) W-SW 248 ° 0 min 0,000 mm 0,0 UV-I 14 W/m² 1,7 °C 11,2 °C 22,5 km/h (4 Bft)
17.03.2019 17:42 11,2 °C 52 % 1005,0 hPa 0,0 mm 22,4 km/h (4 Bft) W-NW 292 ° 0 min 0,000 mm 0,0 UV-I 14 W/m² 1,7 °C 11,2 °C 40,2 km/h (6 Bft)
17.03.2019 17:43 11,2 °C 52 % 1005,1 hPa 0,0 mm 22,8 km/h (4 Bft) W-NW 302 ° 0 min 0,000 mm 0,0 UV-I 14 W/m² 1,7 °C 11,2 °C 32,2 km/h (5 Bft)
17.03.2019 17:44 11,2 °C 52 % 1005,0 hPa 0,0 mm 28,6 km/h (4 Bft) W-NW 290 ° 0 min 0,000 mm 0,0 UV-I 14 W/m² 1,7 °C 11,2 °C 41,8 km/h (6 Bft)
17.03.2019 17:45 11,1 °C 53 % 1005,1 hPa 0,0 mm 18,8 km/h (3 Bft) W 263 ° 0 min 0,000 mm 0,0 UV-I 14 W/m² 1,9 °C 11,1 °C 33,8 km/h (5 Bft)
17.03.2019 17:46 11,1 °C 53 % 1005,1 hPa 0,0 mm 22,2 km/h (4 Bft) W-SW 248 ° 0 min 0,000 mm 0,0 UV-I 14 W/m² 1,9 °C 11,1 °C 41,8 km/h (6 Bft)
17.03.2019 17:47 11,1 °C 53 % 1005,1 hPa 0,0 mm 25,0 km/h (4 Bft) W 265 ° 0 min 0,000 mm 0,0 UV-I 14 W/m² 1,9 °C 11,1 °C 38,6 km/h (5 Bft)
17.03.2019 17:48 11,0 °C 54 % 1005,1 hPa 0,0 mm 21,1 km/h (4 Bft) W 275 ° 0 min 0,000 mm 0,0 UV-I 14 W/m² 2,1 °C 11,0 °C 30,6 km/h (5 Bft)
17.03.2019 17:49 11,0 °C 54 % 1005,1 hPa 0,0 mm 26,3 km/h (4 Bft) W-SW 246 ° 0 min 0,000 mm 0,0 UV-I 12 W/m² 2,1 °C 11,0 °C 37,0 km/h (5 Bft)
17.03.2019 17:50 10,9 °C 54 % 1005,2 hPa 0,0 mm 22,3 km/h (4 Bft) W 278 ° 0 min 0,000 mm 0,0 UV-I 11 W/m² 2,0 °C 10,9 °C 41,8 km/h (6 Bft)
17.03.2019 17:51 10,8 °C 54 % 1005,1 hPa 0,0 mm 21,8 km/h (4 Bft) W 266 ° 0 min 0,000 mm 0,0 UV-I 11 W/m² 1,9 °C 10,8 °C 32,2 km/h (5 Bft)
17.03.2019 17:52 10,8 °C 55 % 1005,2 hPa 0,0 mm 20,8 km/h (4 Bft) W-NW 282 ° 0 min 0,000 mm 0,0 UV-I 11 W/m² 2,1 °C 10,8 °C 25,7 km/h (4 Bft)
17.03.2019 17:53 10,8 °C 55 % 1005,3 hPa 0,0 mm 30,4 km/h (5 Bft) W 262 ° 0 min 0,000 mm 0,0 UV-I 9 W/m² 2,1 °C 10,8 °C 45,1 km/h (6 Bft)
17.03.2019 17:54 10,8 °C 55 % 1005,3 hPa 0,0 mm 29,3 km/h (5 Bft) W-NW 284 ° 0 min 0,000 mm 0,0 UV-I 9 W/m² 2,1 °C 10,8 °C 45,1 km/h (6 Bft)
17.03.2019 17:55 10,8 °C 55 % 1005,3 hPa 0,0 mm 20,0 km/h (4 Bft) W-SW 238 ° 0 min 0,000 mm 0,0 UV-I 7 W/m² 2,1 °C 10,8 °C 33,8 km/h (5 Bft)
17.03.2019 17:56 10,7 °C 55 % 1005,5 hPa 0,0 mm 23,7 km/h (4 Bft) W 268 ° 0 min 0,000 mm 0,0 UV-I 7 W/m² 2,0 °C 10,7 °C 32,2 km/h (5 Bft)
17.03.2019 17:57 10,7 °C 56 % 1005,5 hPa 0,0 mm 21,4 km/h (4 Bft) W-SW 252 ° 0 min 0,000 mm 0,0 UV-I 7 W/m² 2,3 °C 10,7 °C 30,6 km/h (5 Bft)
17.03.2019 17:58 10,7 °C 56 % 1005,5 hPa 0,0 mm 23,7 km/h (4 Bft) W 278 ° 0 min 0,000 mm 0,0 UV-I 7 W/m² 2,3 °C 10,7 °C 40,2 km/h (6 Bft)
17.03.2019 17:59 10,6 °C 56 % 1005,5 hPa 0,0 mm 18,5 km/h (3 Bft) W 264 ° 0 min 0,000 mm 0,0 UV-I 7 W/m² 2,2 °C 10,6 °C 27,4 km/h (4 Bft)
17.03.2019 18:00 10,6 °C 57 % 1005,4 hPa 0,0 mm 32,8 km/h (5 Bft) W 263 ° 0 min 0,000 mm 0,0 UV-I 5 W/m² 2,4 °C 10,6 °C 51,5 km/h (7 Bft)
17.03.2019 18:01 10,6 °C 57 % 1005,6 hPa 0,0 mm 26,0 km/h (4 Bft) W-NW 283 ° 0 min 0,127 mm 0,0 UV-I 5 W/m² 2,4 °C 10,6 °C 37,0 km/h (5 Bft)
17.03.2019 18:02 10,5 °C 57 % 1005,6 hPa 0,0 mm 21,2 km/h (4 Bft) W 263 ° 0 min 0,000 mm 0,0 UV-I 5 W/m² 2,3 °C 10,5 °C 37,0 km/h (5 Bft)
17.03.2019 18:03 10,4 °C 57 % 1005,6 hPa 0,0 mm 20,3 km/h (4 Bft) W 271 ° 0 min 0,000 mm 0,0 UV-I 0 W/m² 2,3 °C 10,4 °C 30,6 km/h (5 Bft)
17.03.2019 18:04 10,4 °C 58 % 1005,6 hPa 0,0 mm 14,8 km/h (3 Bft) W-NW 296 ° 0 min 0,000 mm 0,0 UV-I 0 W/m² 2,5 °C 10,4 °C 22,5 km/h (4 Bft)
17.03.2019 18:05 10,4 °C 58 % 1005,6 hPa 0,0 mm 12,3 km/h (3 Bft) NW 304 ° 0 min 0,000 mm 0,0 UV-I 0 W/m² 2,5 °C 10,4 °C 20,9 km/h (4 Bft)
17.03.2019 18:06 10,3 °C 59 % 1005,6 hPa 0,0 mm 25,0 km/h (4 Bft) W 261 ° 0 min 0,000 mm 0,0 UV-I 0 W/m² 2,6 °C 10,3 °C 46,7 km/h (6 Bft)
17.03.2019 18:07 10,3 °C 59 % 1005,7 hPa 0,0 mm 23,2 km/h (4 Bft) W-SW 257 ° 0 min 0,000 mm 0,0 UV-I 0 W/m² 2,6 °C 10,3 °C 32,2 km/h (5 Bft)
17.03.2019 18:08 10,2 °C 59 % 1005,6 hPa 0,0 mm 13,0 km/h (3 Bft) SW 221 ° 0 min 0,000 mm 0,0 UV-I 0 W/m² 2,6 °C 10,2 °C 17,7 km/h (3 Bft)
17.03.2019 18:09 10,2 °C 59 % 1005,8 hPa 0,0 mm 21,0 km/h (4 Bft) W-NW 298 ° 0 min 0,000 mm 0,0 UV-I 0 W/m² 2,6 °C 10,2 °C 32,2 km/h (5 Bft)
17.03.2019 18:10 10,1 °C 60 % 1005,8 hPa 0,0 mm 18,2 km/h (3 Bft) W 279 ° 0 min 0,000 mm 0,0 UV-I 0 W/m² 2,7 °C 10,1 °C 22,5 km/h (4 Bft)
17.03.2019 18:11 10,1 °C 60 % 1005,8 hPa 0,0 mm 18,6 km/h (3 Bft) W 265 ° 0 min 0,000 mm 0,0 UV-I 0 W/m² 2,7 °C 10,1 °C 25,7 km/h (4 Bft)
17.03.2019 18:12 10,1 °C 60 % 1005,8 hPa 0,0 mm 17,8 km/h (3 Bft) W 273 ° 0 min 0,000 mm 0,0 UV-I 0 W/m² 2,7 °C 10,1 °C 27,4 km/h (4 Bft)
17.03.2019 18:13 10,1 °C 60 % 1005,8 hPa 0,0 mm 16,2 km/h (3 Bft) W-NW 302 ° 0 min 0,000 mm 0,0 UV-I 0 W/m² 2,7 °C 10,1 °C 30,6 km/h (5 Bft)
17.03.2019 18:14 10,0 °C 60 % 1005,8 hPa 0,0 mm 18,2 km/h (3 Bft) W 275 ° 0 min 0,000 mm 0,0 UV-I 0 W/m² 2,6 °C 7,6 °C 30,6 km/h (5 Bft)
17.03.2019 18:15 9,9 °C 61 % 1005,9 hPa 0,0 mm 15,5 km/h (3 Bft) W 269 ° 0 min 0,000 mm 0,0 UV-I 0 W/m² 2,7 °C 7,7 °C 20,9 km/h (4 Bft)
17.03.2019 18:16 9,9 °C 61 % 1005,8 hPa 0,0 mm 16,4 km/h (3 Bft) W 269 ° 0 min 0,000 mm 0,0 UV-I 0 W/m² 2,7 °C 7,6 °C 35,4 km/h (5 Bft)
17.03.2019 18:17 9,9 °C 62 % 1005,9 hPa 0,0 mm 20,4 km/h (4 Bft) W 273 ° 0 min 0,000 mm 0,0 UV-I 0 W/m² 3,0 °C 7,2 °C 37,0 km/h (5 Bft)
17.03.2019 18:18 9,8 °C 62 % 1005,9 hPa 0,0 mm 24,6 km/h (4 Bft) W 279 ° 0 min 0,000 mm 0,0 UV-I 0 W/m² 2,9 °C 6,7 °C 40,2 km/h (6 Bft)
17.03.2019 18:19 9,8 °C 62 % 1005,9 hPa 0,0 mm 18,3 km/h (3 Bft) W 266 ° 0 min 0,000 mm 0,0 UV-I 0 W/m² 2,9 °C 7,3 °C 30,6 km/h (5 Bft)
17.03.2019 18:20 9,8 °C 62 % 1005,9 hPa 0,0 mm 16,2 km/h (3 Bft) W 260 ° 0 min 0,000 mm 0,0 UV-I 0 W/m² 2,9 °C 7,5 °C 25,7 km/h (4 Bft)
17.03.2019 18:21 9,8 °C 63 % 1006,0 hPa 0,0 mm 25,4 km/h (4 Bft) W 276 ° 0 min 0,000 mm 0,0 UV-I 0 W/m² 3,1 °C 6,7 °C 38,6 km/h (5 Bft)
17.03.2019 18:22 9,7 °C 63 % 1006,0 hPa 0,0 mm 21,7 km/h (4 Bft) W-SW 246 ° 0 min 0,000 mm 0,0 UV-I 0 W/m² 3,0 °C 6,8 °C 38,6 km/h (5 Bft)
17.03.2019 18:23 9,6 °C 64 % 1006,2 hPa 0,0 mm 29,5 km/h (5 Bft) W 259 ° 0 min 0,000 mm 0,0 UV-I 0 W/m² 3,1 °C 6,1 °C 40,2 km/h (6 Bft)
17.03.2019 18:24 9,6 °C 64 % 1006,1 hPa 0,0 mm 19,9 km/h (4 Bft) NW 305 ° 0 min 0,000 mm 0,0 UV-I 0 W/m² 3,1 °C 6,9 °C 32,2 km/h (5 Bft)
17.03.2019 18:25 9,6 °C 65 % 1006,2 hPa 0,0 mm 24,1 km/h (4 Bft) W 269 ° 0 min 0,000 mm 0,0 UV-I 0 W/m² 3,4 °C 6,5 °C 37,0 km/h (5 Bft)
17.03.2019 18:26 9,6 °C 65 % 1006,3 hPa 0,0 mm 17,9 km/h (3 Bft) NW 304 ° 0 min 0,000 mm 0,0 UV-I 0 W/m² 3,4 °C 7,1 °C 25,7 km/h (4 Bft)
17.03.2019 18:27 9,5 °C 65 % 1006,3 hPa 0,0 mm 16,4 km/h (3 Bft) W 260 ° 0 min 0,000 mm 0,0 UV-I 0 W/m² 3,3 °C 7,1 °C 29,0 km/h (5 Bft)
17.03.2019 18:28 9,4 °C 65 % 1006,4 hPa 0,0 mm 17,4 km/h (3 Bft) S-SW 201 ° 0 min 0,000 mm 0,0 UV-I 0 W/m² 3,2 °C 6,9 °C 24,1 km/h (4 Bft)
17.03.2019 18:29 9,4 °C 66 % 1006,3 hPa 0,0 mm 15,6 km/h (3 Bft) W 268 ° 0 min 0,000 mm 0,0 UV-I 0 W/m² 3,4 °C 7,1 °C 25,7 km/h (4 Bft)
17.03.2019 18:30 9,3 °C 66 % 1006,3 hPa 0,0 mm 13,3 km/h (3 Bft) W-NW 291 ° 0 min 0,000 mm 0,0 UV-I 0 W/m² 3,3 °C 7,3 °C 29,0 km/h (5 Bft)
17.03.2019 18:31 9,3 °C 66 % 1006,3 hPa 0,0 mm 14,1 km/h (3 Bft) SW 232 ° 0 min 0,000 mm 0,0 UV-I 0 W/m² 3,3 °C 7,2 °C 22,5 km/h (4 Bft)
17.03.2019 18:32 9,2 °C 67 % 1006,5 hPa 0,0 mm 18,1 km/h (3 Bft) N-NW 327 ° 0 min 0,000 mm 0,0 UV-I 0 W/m² 3,4 °C 6,6 °C 25,7 km/h (4 Bft)
17.03.2019 18:33 9,2 °C 68 % 1006,6 hPa 0,0 mm 18,6 km/h (3 Bft) W-NW 292 ° 0 min 0,000 mm 0,0 UV-I 0 W/m² 3,6 °C 6,5 °C 30,6 km/h (5 Bft)
17.03.2019 18:34 9,1 °C 68 % 1006,8 hPa 0,0 mm 22,9 km/h (4 Bft) NW 324 ° 0 min 0,000 mm 0,0 UV-I 0 W/m² 3,5 °C 6,0 °C 30,6 km/h (5 Bft)
17.03.2019 18:35 9,0 °C 69 % 1007,1 hPa 0,0 mm 21,0 km/h (4 Bft) W 277 ° 0 min 0,000 mm 0,0 UV-I 0 W/m² 3,6 °C 6,0 °C 32,2 km/h (5 Bft)
17.03.2019 18:36 8,8 °C 69 % 1007,1 hPa 0,0 mm 21,3 km/h (4 Bft) NW 306 ° 0 min 0,000 mm 0,0 UV-I 0 W/m² 3,4 °C 5,7 °C 32,2 km/h (5 Bft)
17.03.2019 18:37 8,6 °C 69 % 1007,1 hPa 0,0 mm 19,9 km/h (4 Bft) W 267 ° 0 min 0,000 mm 0,0 UV-I 0 W/m² 3,2 °C 5,6 °C 27,4 km/h (4 Bft)
17.03.2019 18:38 8,2 °C 70 % 1007,1 hPa 0,0 mm 18,0 km/h (3 Bft) W-NW 286 ° 0 min 0,000 mm 0,0 UV-I 0 W/m² 3,1 °C 5,3 °C 33,8 km/h (5 Bft)
17.03.2019 18:39 8,0 °C 72 % 1007,2 hPa 0,0 mm 12,6 km/h (3 Bft) W-NW 301 ° 0 min 0,000 mm 0,0 UV-I 0 W/m² 3,3 °C 5,8 °C 19,3 km/h (3 Bft)
17.03.2019 18:40 7,7 °C 73 % 1007,2 hPa 0,0 mm 17,8 km/h (3 Bft) NW 326 ° 0 min 0,000 mm 0,0 UV-I 0 W/m² 3,2 °C 4,7 °C 25,7 km/h (4 Bft)
17.03.2019 18:41 7,4 °C 74 % 1007,3 hPa 0,0 mm 9,3 km/h (2 Bft) NW 317 ° 0 min 0,000 mm 0,0 UV-I 0 W/m² 3,1 °C 5,7 °C 19,3 km/h (3 Bft)
17.03.2019 18:42 7,2 °C 75 % 1007,3 hPa 0,0 mm 8,6 km/h (2 Bft) NW 314 ° 0 min 0,000 mm 0,0 UV-I 0 W/m² 3,1 °C 5,6 °C 14,5 km/h (3 Bft)
17.03.2019 18:43 6,9 °C 76 % 1007,6 hPa 0,0 mm 21,3 km/h (4 Bft) W-NW 292 ° 0 min 0,000 mm 0,0 UV-I 0 W/m² 3,0 °C 3,3 °C 33,8 km/h (5 Bft)
17.03.2019 18:44 6,8 °C 76 % 1007,6 hPa 0,0 mm 22,2 km/h (4 Bft) NW 317 ° 0 min 0,000 mm 0,0 UV-I 0 W/m² 2,9 °C 3,1 °C 33,8 km/h (5 Bft)
17.03.2019 18:45 6,7 °C 77 % 1007,7 hPa 0,0 mm 18,6 km/h (3 Bft) NW 309 ° 0 min 0,000 mm 0,0 UV-I 0 W/m² 3,0 °C 3,4 °C 25,7 km/h (4 Bft)
17.03.2019 18:46 6,4 °C 78 % 1007,7 hPa 0,0 mm 14,9 km/h (3 Bft) W-NW 284 ° 0 min 0,000 mm 0,0 UV-I 0 W/m² 2,8 °C 3,5 °C 25,7 km/h (4 Bft)
17.03.2019 18:47 6,3 °C 79 % 1007,7 hPa 0,0 mm 17,9 km/h (3 Bft) W-NW 286 ° 0 min 0,000 mm 0,0 UV-I 0 W/m² 2,9 °C 3,0 °C 30,6 km/h (5 Bft)
17.03.2019 18:48 6,1 °C 79 % 1007,8 hPa 0,0 mm 14,0 km/h (3 Bft) W 278 ° 0 min 0,000 mm 0,0 UV-I 0 W/m² 2,7 °C 3,3 °C 24,1 km/h (4 Bft)
17.03.2019 18:49 5,9 °C 79 % 1007,9 hPa 0,0 mm 14,4 km/h (3 Bft) NW 312 ° 0 min 0,000 mm 0,0 UV-I 0 W/m² 2,5 °C 2,9 °C 22,5 km/h (4 Bft)
17.03.2019 18:50 5,8 °C 80 % 1007,9 hPa 0,0 mm 11,5 km/h (2 Bft) W 260 ° 0 min 0,000 mm 0,0 UV-I 0 W/m² 2,6 °C 3,3 °C 19,3 km/h (3 Bft)
17.03.2019 18:51 5,7 °C 80 % 1007,9 hPa 0,0 mm 11,6 km/h (2 Bft) NW 326 ° 0 min 0,000 mm 0,0 UV-I 0 W/m² 2,5 °C 3,2 °C 19,3 km/h (3 Bft)
17.03.2019 18:52 5,4 °C 81 % 1007,9 hPa 0,0 mm 13,1 km/h (3 Bft) N-NW 345 ° 0 min 0,000 mm 0,0 UV-I 0 W/m² 2,4 °C 2,5 °C 22,5 km/h (4 Bft)
17.03.2019 18:53 5,3 °C 82 % 1008,0 hPa 0,0 mm 16,9 km/h (3 Bft) W-NW 302 ° 0 min 0,000 mm 0,0 UV-I 0 W/m² 2,5 °C 1,8 °C 29,0 km/h (5 Bft)
17.03.2019 18:54 5,2 °C 82 % 1008,1 hPa 0,2 mm 18,3 km/h (3 Bft) W-NW 299 ° 0 min 0,000 mm 0,0 UV-I 0 W/m² 2,4 °C 1,5 °C 33,8 km/h (5 Bft)
17.03.2019 18:55 5,1 °C 82 % 1008,1 hPa 0,0 mm 14,7 km/h (3 Bft) W 269 ° 0 min 0,000 mm 0,0 UV-I 0 W/m² 2,3 °C 1,9 °C 22,5 km/h (4 Bft)
17.03.2019 18:56 5,0 °C 82 % 1008,2 hPa 0,0 mm 12,9 km/h (3 Bft) N-NW 332 ° 0 min 0,000 mm 0,0 UV-I 0 W/m² 2,2 °C 2,1 °C 20,9 km/h (4 Bft)
17.03.2019 18:57 4,9 °C 83 % 1008,3 hPa 0,0 mm 15,9 km/h (3 Bft) W-NW 291 ° 0 min 0,000 mm 0,0 UV-I 0 W/m² 2,3 °C 1,5 °C 22,5 km/h (4 Bft)
17.03.2019 18:58 4,8 °C 83 % 1008,4 hPa 0,0 mm 20,4 km/h (4 Bft) N-NW 331 ° 0 min 0,000 mm 0,0 UV-I 0 W/m² 2,2 °C 0,8 °C 29,0 km/h (5 Bft)
17.03.2019 18:59 4,7 °C 84 % 1008,4 hPa 0,0 mm 13,5 km/h (3 Bft) W-NW 288 ° 0 min 0,000 mm 0,0 UV-I 0 W/m² 2,2 °C 1,6 °C 24,1 km/h (4 Bft)
17.03.2019 19:00 4,6 °C 84 % 1008,5 hPa 0,0 mm 13,5 km/h (3 Bft) W-NW 292 ° 0 min 0,000 mm 0,0 UV-I 0 W/m² 2,1 °C 1,5 °C 19,3 km/h (3 Bft)
17.03.2019 19:01 4,6 °C 84 % 1008,7 hPa 0,2 mm 14,8 km/h (3 Bft) W 263 ° 0 min 0,051 mm 0,0 UV-I 0 W/m² 2,1 °C 1,3 °C 27,4 km/h (4 Bft)
17.03.2019 19:02 4,4 °C 85 % 1008,8 hPa 0,0 mm 16,7 km/h (3 Bft) W 269 ° 0 min 0,000 mm 0,0 UV-I 0 W/m² 2,1 °C 0,8 °C 29,0 km/h (5 Bft)
17.03.2019 19:03 4,4 °C 85 % 1009,0 hPa 0,0 mm 15,8 km/h (3 Bft) W-NW 299 ° 0 min 0,000 mm 0,0 UV-I 0 W/m² 2,1 °C 0,9 °C 24,1 km/h (4 Bft)
17.03.2019 19:04 4,3 °C 85 % 1009,1 hPa 0,0 mm 15,2 km/h (3 Bft) N-NW 336 ° 0 min 0,000 mm 0,0 UV-I 0 W/m² 2,0 °C 0,9 °C 22,5 km/h (4 Bft)
17.03.2019 19:05 4,2 °C 85 % 1009,0 hPa 0,0 mm 10,6 km/h (2 Bft) W-NW 289 ° 0 min 0,000 mm 0,0 UV-I 0 W/m² 1,9 °C 1,6 °C 16,1 km/h (3 Bft)
17.03.2019 19:06 4,1 °C 85 % 1009,1 hPa 0,0 mm 9,2 km/h (2 Bft) W 276 ° 0 min 0,000 mm 0,0 UV-I 0 W/m² 1,8 °C 1,8 °C 14,5 km/h (3 Bft)
17.03.2019 19:07 4,0 °C 86 % 1009,2 hPa 0,2 mm 10,1 km/h (2 Bft) W-NW 283 ° 0 min 0,000 mm 0,0 UV-I 0 W/m² 1,9 °C 1,4 °C 17,7 km/h (3 Bft)
17.03.2019 19:08 3,9 °C 85 % 1009,1 hPa 0,0 mm 9,9 km/h (2 Bft) NW 310 ° 0 min 0,000 mm 0,0 UV-I 0 W/m² 1,6 °C 1,4 °C 19,3 km/h (3 Bft)
17.03.2019 19:09 3,8 °C 86 % 1009,2 hPa 0,0 mm 16,4 km/h (3 Bft) W 271 ° 0 min 0,000 mm 0,0 UV-I 0 W/m² 1,7 °C 0,1 °C 22,5 km/h (4 Bft)
17.03.2019 19:10 3,8 °C 86 % 1009,3 hPa 0,0 mm 17,9 km/h (3 Bft) W-NW 290 ° 0 min 0,000 mm 0,0 UV-I 0 W/m² 1,7 °C -0,2 °C 22,5 km/h (4 Bft)
17.03.2019 19:11 3,7 °C 86 % 1009,4 hPa 0,2 mm 11,4 km/h (2 Bft) SW 233 ° 0 min 0,000 mm 0,0 UV-I 0 W/m² 1,6 °C 0,8 °C 17,7 km/h (3 Bft)
17.03.2019 19:12 3,6 °C 86 % 1009,4 hPa 0,0 mm 16,3 km/h (3 Bft) W 259 ° 0 min 0,000 mm 0,0 UV-I 0 W/m² 1,5 °C -0,2 °C 25,7 km/h (4 Bft)
17.03.2019 19:13 3,5 °C 86 % 1009,5 hPa 0,2 mm 21,7 km/h (4 Bft) W 281 ° 0 min 0,000 mm 0,0 UV-I 0 W/m² 1,4 °C -1,0 °C 27,4 km/h (4 Bft)
17.03.2019 19:14 3,4 °C 86 % 1009,5 hPa 0,0 mm 14,2 km/h (3 Bft) NW 309 ° 0 min 0,000 mm 0,0 UV-I 0 W/m² 1,3 °C -0,1 °C 24,1 km/h (4 Bft)
17.03.2019 19:15 3,3 °C 87 % 1009,7 hPa 0,0 mm 8,9 km/h (2 Bft) W 260 ° 0 min 0,000 mm 0,0 UV-I 0 W/m² 1,3 °C 0,9 °C 14,5 km/h (3 Bft)
17.03.2019 19:16 3,2 °C 87 % 1009,7 hPa 0,0 mm 13,5 km/h (3 Bft) W 270 ° 0 min 0,000 mm 0,0 UV-I 0 W/m² 1,2 °C -0,2 °C 29,0 km/h (5 Bft)
17.03.2019 19:17 3,2 °C 87 % 1009,8 hPa 0,2 mm 25,5 km/h (4 Bft) W 270 ° 0 min 0,000 mm 0,0 UV-I 0 W/m² 1,2 °C -1,9 °C 38,6 km/h (5 Bft)
17.03.2019 19:18 3,1 °C 87 % 1009,7 hPa 0,0 mm 20,2 km/h (4 Bft) W-SW 239 ° 0 min 0,000 mm 0,0 UV-I 0 W/m² 1,2 °C -1,4 °C 25,7 km/h (4 Bft)
17.03.2019 19:19 2,9 °C 87 % 1009,8 hPa 0,0 mm 20,0 km/h (4 Bft) W 260 ° 0 min 0,000 mm 0,0 UV-I 0 W/m² 1,0 °C -1,6 °C 24,1 km/h (4 Bft)
17.03.2019 19:20 2,8 °C 87 % 1009,8 hPa 0,2 mm 20,6 km/h (4 Bft) W-NW 288 ° 0 min 0,000 mm 0,0 UV-I 0 W/m² 0,9 °C -1,8 °C 25,7 km/h (4 Bft)
17.03.2019 19:21 2,8 °C 87 % 1009,8 hPa 0,0 mm 19,1 km/h (3 Bft) W-NW 290 ° 0 min 0,000 mm 0,0 UV-I 0 W/m² 0,9 °C -1,6 °C 25,7 km/h (4 Bft)
17.03.2019 19:22 2,7 °C 87 % 1009,8 hPa 0,0 mm 19,8 km/h (3 Bft) W 259 ° 0 min 0,000 mm 0,0 UV-I 0 W/m² 0,8 °C -1,8 °C 29,0 km/h (5 Bft)
17.03.2019 19:23 2,7 °C 87 % 1009,8 hPa 0,0 mm 20,0 km/h (4 Bft) W-NW 296 ° 0 min 0,000 mm 0,0 UV-I 0 W/m² 0,8 °C -1,8 °C 30,6 km/h (5 Bft)
17.03.2019 19:24 2,6 °C 87 % 1009,8 hPa 0,0 mm 14,3 km/h (3 Bft) W 271 ° 0 min 0,000 mm 0,0 UV-I 0 W/m² 0,7 °C -1,1 °C 19,3 km/h (3 Bft)
17.03.2019 19:25 2,6 °C 87 % 1009,8 hPa 0,2 mm 16,6 km/h (3 Bft) W 269 ° 0 min 0,000 mm 0,0 UV-I 0 W/m² 0,7 °C -1,5 °C 24,1 km/h (4 Bft)
17.03.2019 19:26 2,4 °C 87 % 1009,8 hPa 0,0 mm 15,2 km/h (3 Bft) W 259 ° 0 min 0,000 mm 0,0 UV-I 0 W/m² 0,5 °C -1,5 °C 20,9 km/h (4 Bft)
17.03.2019 19:27 2,3 °C 87 % 1009,9 hPa 0,0 mm 12,8 km/h (3 Bft) NW 308 ° 0 min 0,000 mm 0,0 UV-I 0 W/m² 0,4 °C -1,2 °C 17,7 km/h (3 Bft)
17.03.2019 19:28 2,3 °C 88 % 1009,9 hPa 0,0 mm 13,8 km/h (3 Bft) W-NW 293 ° 0 min 0,000 mm 0,0 UV-I 0 W/m² 0,5 °C -1,4 °C 19,3 km/h (3 Bft)
17.03.2019 19:29 2,3 °C 88 % 1010,0 hPa 0,0 mm 12,2 km/h (2 Bft) W-NW 288 ° 0 min 0,000 mm 0,0 UV-I 0 W/m² 0,5 °C -1,1 °C 17,7 km/h (3 Bft)
17.03.2019 19:30 2,2 °C 88 % 1009,9 hPa 0,0 mm 10,4 km/h (2 Bft) NW 316 ° 0 min 0,000 mm 0,0 UV-I 0 W/m² 0,4 °C -0,8 °C 12,9 km/h (3 Bft)
17.03.2019 19:31 2,1 °C 88 % 1010,0 hPa 0,2 mm 7,5 km/h (2 Bft) W-NW 284 ° 0 min 0,000 mm 0,0 UV-I 0 W/m² 0,3 °C -0,1 °C 11,3 km/h (2 Bft)
17.03.2019 19:32 2,1 °C 89 % 1010,0 hPa 0,0 mm 9,7 km/h (2 Bft) W-SW 257 ° 0 min 0,000 mm 0,0 UV-I 0 W/m² 0,5 °C -0,7 °C 16,1 km/h (3 Bft)
17.03.2019 19:33 2,0 °C 88 % 1010,1 hPa 0,0 mm 12,8 km/h (3 Bft) W-NW 302 ° 0 min 0,000 mm 0,0 UV-I 0 W/m² 0,2 °C -1,5 °C 19,3 km/h (3 Bft)
17.03.2019 19:34 1,9 °C 89 % 1010,1 hPa 0,0 mm 15,7 km/h (3 Bft) W-NW 292 ° 0 min 0,000 mm 0,0 UV-I 0 W/m² 0,3 °C -2,2 °C 19,3 km/h (3 Bft)
17.03.2019 19:35 1,9 °C 89 % 1010,1 hPa 0,0 mm 10,3 km/h (2 Bft) W 261 ° 0 min 0,000 mm 0,0 UV-I 0 W/m² 0,3 °C -1,1 °C 12,9 km/h (3 Bft)
17.03.2019 19:36 1,8 °C 89 % 1010,1 hPa 0,0 mm 11,1 km/h (2 Bft) W-SW 246 ° 0 min 0,000 mm 0,0 UV-I 0 W/m² 0,2 °C -1,4 °C 16,1 km/h (3 Bft)
17.03.2019 19:37 1,8 °C 89 % 1010,1 hPa 0,0 mm 11,6 km/h (2 Bft) W-SW 248 ° 0 min 0,000 mm 0,0 UV-I 0 W/m² 0,2 °C -1,5 °C 19,3 km/h (3 Bft)
17.03.2019 19:38 1,8 °C 89 % 1010,1 hPa 0,2 mm 12,0 km/h (2 Bft) W 265 ° 0 min 0,000 mm 0,0 UV-I 0 W/m² 0,2 °C -1,6 °C 19,3 km/h (3 Bft)
17.03.2019 19:39 1,7 °C 89 % 1010,1 hPa 0,0 mm 7,9 km/h (2 Bft) W-NW 284 ° 0 min 0,000 mm 0,0 UV-I 0 W/m² 0,1 °C -0,7 °C 12,9 km/h (3 Bft)
17.03.2019 19:40 1,7 °C 89 % 1010,0 hPa 0,0 mm 12,2 km/h (2 Bft) W 264 ° 0 min 0,000 mm 0,0 UV-I 0 W/m² 0,1 °C -1,8 °C 17,7 km/h (3 Bft)
17.03.2019 19:41 1,6 °C 89 % 1010,0 hPa 0,0 mm 15,0 km/h (3 Bft) NW 308 ° 0 min 0,000 mm 0,0 UV-I 0 W/m² -0,0 °C -2,4 °C 19,3 km/h (3 Bft)
17.03.2019 19:42 1,6 °C 89 % 1010,0 hPa 0,0 mm 12,2 km/h (2 Bft) NW 325 ° 0 min 0,000 mm 0,0 UV-I 0 W/m² -0,0 °C -1,9 °C 17,7 km/h (3 Bft)
17.03.2019 19:43 1,6 °C 89 % 1010,1 hPa 0,0 mm 8,8 km/h (2 Bft) W-NW 295 ° 0 min 0,000 mm 0,0 UV-I 0 W/m² -0,0 °C -1,1 °C 12,9 km/h (3 Bft)
17.03.2019 19:44 1,6 °C 90 % 1010,1 hPa 0,0 mm 10,2 km/h (2 Bft) W 273 ° 0 min 0,000 mm 0,0 UV-I 0 W/m² 0,1 °C -1,5 °C 14,5 km/h (3 Bft)
17.03.2019 19:45 1,6 °C 90 % 1010,2 hPa 0,0 mm 9,2 km/h (2 Bft) W 265 ° 0 min 0,000 mm 0,0 UV-I 0 W/m² 0,1 °C -1,2 °C 14,5 km/h (3 Bft)
17.03.2019 19:46 1,5 °C 90 % 1010,1 hPa 0,2 mm 10,0 km/h (2 Bft) W-NW 286 ° 0 min 0,000 mm 0,0 UV-I 0 W/m² 0,0 °C -1,5 °C 14,5 km/h (3 Bft)
17.03.2019 19:47 1,5 °C 90 % 1010,2 hPa 0,0 mm 13,3 km/h (3 Bft) W 275 ° 0 min 0,000 mm 0,0 UV-I 0 W/m² 0,0 °C -2,2 °C 16,1 km/h (3 Bft)
17.03.2019 19:48 1,6 °C 90 % 1010,1 hPa 0,0 mm 12,2 km/h (2 Bft) W 271 ° 0 min 0,000 mm 0,0 UV-I 0 W/m² 0,1 °C -1,9 °C 17,7 km/h (3 Bft)
17.03.2019 19:49 1,6 °C 90 % 1010,2 hPa 0,0 mm 14,5 km/h (3 Bft) W 278 ° 0 min 0,000 mm 0,0 UV-I 0 W/m² 0,1 °C -2,4 °C 19,3 km/h (3 Bft)
17.03.2019 19:50 1,5 °C 90 % 1010,2 hPa 0,0 mm 20,3 km/h (4 Bft) W-SW 258 ° 0 min 0,000 mm 0,0 UV-I 0 W/m² 0,0 °C -3,4 °C 27,4 km/h (4 Bft)
17.03.2019 19:51 1,5 °C 90 % 1010,3 hPa 0,0 mm 16,5 km/h (3 Bft) W 263 ° 0 min 0,000 mm 0,0 UV-I 0 W/m² 0,0 °C -2,8 °C 24,1 km/h (4 Bft)
17.03.2019 19:52 1,5 °C 90 % 1010,4 hPa 0,0 mm 13,8 km/h (3 Bft) N-NW 330 ° 0 min 0,000 mm 0,0 UV-I 0 W/m² 0,0 °C -2,3 °C 22,5 km/h (4 Bft)
17.03.2019 19:53 1,6 °C 90 % 1010,3 hPa 0,0 mm 13,4 km/h (3 Bft) W 264 ° 0 min 0,000 mm 0,0 UV-I 0 W/m² 0,1 °C -2,1 °C 24,1 km/h (4 Bft)
17.03.2019 19:54 1,6 °C 90 % 1010,3 hPa 0,0 mm 14,1 km/h (3 Bft) W 268 ° 0 min 0,000 mm 0,0 UV-I 0 W/m² 0,1 °C -2,3 °C 24,1 km/h (4 Bft)
17.03.2019 19:55 1,6 °C 90 % 1010,4 hPa 0,0 mm 6,2 km/h (2 Bft) W-SW 255 ° 0 min 0,000 mm 0,0 UV-I 0 W/m² 0,1 °C -0,3 °C 11,3 km/h (2 Bft)
17.03.2019 19:56 1,5 °C 90 % 1010,4 hPa 0,2 mm 16,4 km/h (3 Bft) W-NW 288 ° 0 min 0,000 mm 0,0 UV-I 0 W/m² 0,0 °C -2,8 °C 27,4 km/h (4 Bft)
17.03.2019 19:57 1,6 °C 90 % 1010,4 hPa 0,0 mm 14,2 km/h (3 Bft) W-NW 284 ° 0 min 0,000 mm 0,0 UV-I 0 W/m² 0,1 °C -2,3 °C 25,7 km/h (4 Bft)
17.03.2019 19:58 1,5 °C 90 % 1010,4 hPa 0,0 mm 10,1 km/h (2 Bft) W 269 ° 0 min 0,000 mm 0,0 UV-I 0 W/m² 0,0 °C -1,5 °C 16,1 km/h (3 Bft)
17.03.2019 19:59 1,5 °C 90 % 1010,5 hPa 0,0 mm 9,2 km/h (2 Bft) W-NW 295 ° 0 min 0,000 mm 0,0 UV-I 0 W/m² 0,0 °C -1,3 °C 12,9 km/h (3 Bft)
17.03.2019 20:00 1,6 °C 90 % 1010,5 hPa 0,0 mm 8,2 km/h (2 Bft) SW 236 ° 0 min 0,000 mm 0,0 UV-I 0 W/m² 0,1 °C -0,9 °C 14,5 km/h (3 Bft)
17.03.2019 20:01 1,6 °C 90 % 1010,5 hPa 0,0 mm 15,2 km/h (3 Bft) W 266 ° 0 min 0,026 mm 0,0 UV-I 0 W/m² 0,1 °C -2,5 °C 20,9 km/h (4 Bft)
17.03.2019 20:02 1,6 °C 91 % 1010,5 hPa 0,0 mm 8,1 km/h (2 Bft) W-NW 294 ° 0 min 0,000 mm 0,0 UV-I 0 W/m² 0,3 °C -0,9 °C 11,3 km/h (2 Bft)
17.03.2019 20:03 1,6 °C 91 % 1010,5 hPa 0,0 mm 8,5 km/h (2 Bft) W 269 ° 0 min 0,000 mm 0,0 UV-I 0 W/m² 0,3 °C -1,0 °C 12,9 km/h (3 Bft)
17.03.2019 20:04 1,6 °C 91 % 1010,5 hPa 0,0 mm 13,9 km/h (3 Bft) W 266 ° 0 min 0,000 mm 0,0 UV-I 0 W/m² 0,3 °C -2,2 °C 19,3 km/h (3 Bft)
17.03.2019 20:05 1,6 °C 91 % 1010,5 hPa 0,0 mm 9,1 km/h (2 Bft) W-SW 256 ° 0 min 0,000 mm 0,0 UV-I 0 W/m² 0,3 °C -1,2 °C 19,3 km/h (3 Bft)
17.03.2019 20:06 1,6 °C 91 % 1010,5 hPa 0,0 mm 16,3 km/h (3 Bft) W 264 ° 0 min 0,000 mm 0,0 UV-I 0 W/m² 0,3 °C -2,7 °C 19,3 km/h (3 Bft)
17.03.2019 20:07 1,6 °C 91 % 1010,6 hPa 0,0 mm 14,3 km/h (3 Bft) W 275 ° 0 min 0,000 mm 0,0 UV-I 0 W/m² 0,3 °C -2,3 °C 20,9 km/h (4 Bft)
17.03.2019 20:08 1,6 °C 91 % 1010,6 hPa 0,0 mm 9,0 km/h (2 Bft) W 265 ° 0 min 0,000 mm 0,0 UV-I 0 W/m² 0,3 °C -1,1 °C 14,5 km/h (3 Bft)
17.03.2019 20:09 1,7 °C 91 % 1010,6 hPa 0,0 mm 15,6 km/h (3 Bft) W-SW 256 ° 0 min 0,000 mm 0,0 UV-I 0 W/m² 0,4 °C -2,4 °C 20,9 km/h (4 Bft)
17.03.2019 20:10 1,6 °C 91 % 1010,6 hPa 0,0 mm 11,5 km/h (2 Bft) W 265 ° 0 min 0,000 mm 0,0 UV-I 0 W/m² 0,3 °C -1,8 °C 24,1 km/h (4 Bft)
17.03.2019 20:11 1,7 °C 91 % 1010,7 hPa 0,0 mm 16,4 km/h (3 Bft) W 263 ° 0 min 0,000 mm 0,0 UV-I 0 W/m² 0,4 °C -2,6 °C 25,7 km/h (4 Bft)
17.03.2019 20:12 1,7 °C 91 % 1010,7 hPa 0,0 mm 11,1 km/h (2 Bft) W-SW 257 ° 0 min 0,000 mm 0,0 UV-I 0 W/m² 0,4 °C -1,5 °C 16,1 km/h (3 Bft)
17.03.2019 20:13 1,7 °C 91 % 1010,7 hPa 0,0 mm 16,9 km/h (3 Bft) W 275 ° 0 min 0,000 mm 0,0 UV-I 0 W/m² 0,4 °C -2,6 °C 20,9 km/h (4 Bft)
17.03.2019 20:14 1,7 °C 91 % 1010,9 hPa 0,0 mm 18,0 km/h (3 Bft) SW 234 ° 0 min 0,000 mm 0,0 UV-I 0 W/m² 0,4 °C -2,8 °C 25,7 km/h (4 Bft)
17.03.2019 20:15 1,7 °C 91 % 1010,9 hPa 0,0 mm 15,5 km/h (3 Bft) W-SW 254 ° 0 min 0,000 mm 0,0 UV-I 0 W/m² 0,4 °C -2,4 °C 19,3 km/h (3 Bft)
17.03.2019 20:16 1,7 °C 91 % 1010,9 hPa 0,0 mm 15,2 km/h (3 Bft) W 265 ° 0 min 0,000 mm 0,0 UV-I 0 W/m² 0,4 °C -2,4 °C 29,0 km/h (5 Bft)
17.03.2019 20:17 1,7 °C 91 % 1010,8 hPa 0,0 mm 15,3 km/h (3 Bft) W 266 ° 0 min 0,000 mm 0,0 UV-I 0 W/m² 0,4 °C -2,4 °C 25,7 km/h (4 Bft)
17.03.2019 20:18 1,7 °C 91 % 1010,9 hPa 0,0 mm 13,4 km/h (3 Bft) W 279 ° 0 min 0,000 mm 0,0 UV-I 0 W/m² 0,4 °C -2,0 °C 19,3 km/h (3 Bft)
17.03.2019 20:19 1,7 °C 91 % 1011,0 hPa 0,0 mm 14,9 km/h (3 Bft) SW 221 ° 0 min 0,000 mm 0,0 UV-I 0 W/m² 0,4 °C -2,3 °C 19,3 km/h (3 Bft)
17.03.2019 20:20 1,7 °C 91 % 1011,1 hPa 0,0 mm 13,3 km/h (3 Bft) W 271 ° 0 min 0,000 mm 0,0 UV-I 0 W/m² 0,4 °C -2,0 °C 20,9 km/h (4 Bft)
17.03.2019 20:21 1,7 °C 91 % 1011,1 hPa 0,0 mm 11,0 km/h (2 Bft) W 265 ° 0 min 0,000 mm 0,0 UV-I 0 W/m² 0,4 °C -1,5 °C 19,3 km/h (3 Bft)
17.03.2019 20:22 1,7 °C 91 % 1011,0 hPa 0,2 mm 15,6 km/h (3 Bft) W 273 ° 0 min 0,000 mm 0,0 UV-I 0 W/m² 0,4 °C -2,4 °C 20,9 km/h (4 Bft)
17.03.2019 20:23 1,7 °C 91 % 1011,1 hPa 0,0 mm 12,9 km/h (3 Bft) W-NW 293 ° 0 min 0,000 mm 0,0 UV-I 0 W/m² 0,4 °C -1,9 °C 17,7 km/h (3 Bft)
17.03.2019 20:24 1,7 °C 91 % 1011,1 hPa 0,0 mm 18,5 km/h (3 Bft) W 269 ° 0 min 0,000 mm 0,0 UV-I 0 W/m² 0,4 °C -2,9 °C 25,7 km/h (4 Bft)
17.03.2019 20:25 1,7 °C 91 % 1011,1 hPa 0,0 mm 19,0 km/h (3 Bft) W-NW 284 ° 0 min 0,000 mm 0,0 UV-I 0 W/m² 0,4 °C -3,0 °C 27,4 km/h (4 Bft)
17.03.2019 20:26 1,7 °C 91 % 1011,2 hPa 0,0 mm 16,7 km/h (3 Bft) W-SW 250 ° 0 min 0,000 mm 0,0 UV-I 0 W/m² 0,4 °C -2,6 °C 20,9 km/h (4 Bft)
17.03.2019 20:27 1,7 °C 91 % 1011,2 hPa 0,0 mm 16,6 km/h (3 Bft) W 267 ° 0 min 0,000 mm 0,0 UV-I 0 W/m² 0,4 °C -2,6 °C 27,4 km/h (4 Bft)
17.03.2019 20:28 1,7 °C 91 % 1011,2 hPa 0,0 mm 14,8 km/h (3 Bft) W-NW 294 ° 0 min 0,000 mm 0,0 UV-I 0 W/m² 0,4 °C -2,3 °C 24,1 km/h (4 Bft)
17.03.2019 20:29 1,7 °C 91 % 1011,2 hPa 0,0 mm 21,8 km/h (4 Bft) W 267 ° 0 min 0,000 mm 0,0 UV-I 0 W/m² 0,4 °C -3,3 °C 32,2 km/h (5 Bft)
17.03.2019 20:30 1,7 °C 91 % 1011,3 hPa 0,0 mm 14,8 km/h (3 Bft) NW 321 ° 0 min 0,000 mm 0,0 UV-I 0 W/m² 0,4 °C -2,3 °C 25,7 km/h (4 Bft)
17.03.2019 20:31 1,7 °C 91 % 1011,3 hPa 0,0 mm 14,0 km/h (3 Bft) W-SW 253 ° 0 min 0,000 mm 0,0 UV-I 0 W/m² 0,4 °C -2,1 °C 24,1 km/h (4 Bft)
17.03.2019 20:32 1,7 °C 91 % 1011,4 hPa 0,0 mm 16,3 km/h (3 Bft) S-SW 212 ° 0 min 0,000 mm 0,0 UV-I 0 W/m² 0,4 °C -2,5 °C 25,7 km/h (4 Bft)
17.03.2019 20:33 1,7 °C 91 % 1011,3 hPa 0,0 mm 12,3 km/h (3 Bft) W-NW 286 ° 0 min 0,000 mm 0,0 UV-I 0 W/m² 0,4 °C -1,8 °C 24,1 km/h (4 Bft)
17.03.2019 20:34 1,7 °C 91 % 1011,4 hPa 0,0 mm 14,1 km/h (3 Bft) NW 317 ° 0 min 0,000 mm 0,0 UV-I 0 W/m² 0,4 °C -2,2 °C 17,7 km/h (3 Bft)
17.03.2019 20:35 1,7 °C 91 % 1011,5 hPa 0,0 mm 14,0 km/h (3 Bft) W-NW 290 ° 0 min 0,000 mm 0,0 UV-I 0 W/m² 0,4 °C -2,1 °C 20,9 km/h (4 Bft)
17.03.2019 20:36 1,8 °C 91 % 1011,5 hPa 0,0 mm 12,7 km/h (3 Bft) W 279 ° 0 min 0,000 mm 0,0 UV-I 0 W/m² 0,5 °C -1,8 °C 17,7 km/h (3 Bft)
17.03.2019 20:37 1,7 °C 91 % 1011,5 hPa 0,0 mm 13,3 km/h (3 Bft) W-SW 249 ° 0 min 0,000 mm 0,0 UV-I 0 W/m² 0,4 °C -2,0 °C 19,3 km/h (3 Bft)
17.03.2019 20:38 1,7 °C 91 % 1011,6 hPa 0,0 mm 16,6 km/h (3 Bft) W 274 ° 0 min 0,000 mm 0,0 UV-I 0 W/m² 0,4 °C -2,6 °C 24,1 km/h (4 Bft)
17.03.2019 20:39 1,7 °C 91 % 1011,6 hPa 0,0 mm 17,6 km/h (3 Bft) W 277 ° 0 min 0,000 mm 0,0 UV-I 0 W/m² 0,4 °C -2,7 °C 25,7 km/h (4 Bft)
17.03.2019 20:40 1,7 °C 91 % 1011,6 hPa 0,0 mm 9,9 km/h (2 Bft) W-NW 286 ° 0 min 0,000 mm 0,0 UV-I 0 W/m² 0,4 °C -1,3 °C 16,1 km/h (3 Bft)
17.03.2019 20:41 1,7 °C 91 % 1011,6 hPa 0,0 mm 15,0 km/h (3 Bft) W-SW 253 ° 0 min 0,000 mm 0,0 UV-I 0 W/m² 0,4 °C -2,3 °C 24,1 km/h (4 Bft)
17.03.2019 20:42 1,7 °C 91 % 1011,7 hPa 0,0 mm 16,2 km/h (3 Bft) W-SW 251 ° 0 min 0,000 mm 0,0 UV-I 0 W/m² 0,4 °C -2,5 °C 27,4 km/h (4 Bft)
17.03.2019 20:43 1,7 °C 91 % 1011,7 hPa 0,0 mm 26,3 km/h (4 Bft) W 272 ° 0 min 0,000 mm 0,0 UV-I 0 W/m² 0,4 °C -3,9 °C 38,6 km/h (5 Bft)
17.03.2019 20:44 1,7 °C 91 % 1011,8 hPa 0,0 mm 23,9 km/h (4 Bft) W 265 ° 0 min 0,000 mm 0,0 UV-I 0 W/m² 0,4 °C -3,6 °C 29,0 km/h (5 Bft)
17.03.2019 20:45 1,7 °C 91 % 1011,8 hPa 0,0 mm 19,7 km/h (3 Bft) W-NW 299 ° 0 min 0,000 mm 0,0 UV-I 0 W/m² 0,4 °C -3,1 °C 29,0 km/h (5 Bft)
17.03.2019 20:46 1,7 °C 91 % 1011,8 hPa 0,0 mm 17,3 km/h (3 Bft) W-NW 290 ° 0 min 0,000 mm 0,0 UV-I 0 W/m² 0,4 °C -2,7 °C 24,1 km/h (4 Bft)
17.03.2019 20:47 1,7 °C 91 % 1011,7 hPa 0,0 mm 16,4 km/h (3 Bft) W 280 ° 0 min 0,000 mm 0,0 UV-I 0 W/m² 0,4 °C -2,6 °C 27,4 km/h (4 Bft)
17.03.2019 20:48 1,7 °C 91 % 1011,8 hPa 0,0 mm 22,7 km/h (4 Bft) W-SW 237 ° 0 min 0,000 mm 0,0 UV-I 0 W/m² 0,4 °C -3,5 °C 30,6 km/h (5 Bft)
17.03.2019 20:49 1,7 °C 91 % 1011,7 hPa 0,0 mm 25,6 km/h (4 Bft) W-NW 290 ° 0 min 0,000 mm 0,0 UV-I 0 W/m² 0,4 °C -3,8 °C 33,8 km/h (5 Bft)
17.03.2019 20:50 1,7 °C 91 % 1011,6 hPa 0,0 mm 18,2 km/h (3 Bft) W-NW 290 ° 0 min 0,000 mm 0,0 UV-I 0 W/m² 0,4 °C -2,8 °C 25,7 km/h (4 Bft)
17.03.2019 20:51 1,7 °C 91 % 1011,6 hPa 0,0 mm 17,8 km/h (3 Bft) NW 306 ° 0 min 0,000 mm 0,0 UV-I 0 W/m² 0,4 °C -2,8 °C 24,1 km/h (4 Bft)
17.03.2019 20:52 1,7 °C 91 % 1011,6 hPa 0,0 mm 25,4 km/h (4 Bft) W 274 ° 0 min 0,000 mm 0,0 UV-I 0 W/m² 0,4 °C -3,8 °C 33,8 km/h (5 Bft)
17.03.2019 20:53 1,7 °C 91 % 1011,8 hPa 0,0 mm 21,1 km/h (4 Bft) W-SW 248 ° 0 min 0,000 mm 0,0 UV-I 0 W/m² 0,4 °C -3,2 °C 27,4 km/h (4 Bft)
17.03.2019 20:54 1,7 °C 91 % 1011,8 hPa 0,0 mm 17,4 km/h (3 Bft) W-SW 253 ° 0 min 0,000 mm 0,0 UV-I 0 W/m² 0,4 °C -2,7 °C 20,9 km/h (4 Bft)
17.03.2019 20:55 1,7 °C 91 % 1011,8 hPa 0,0 mm 17,6 km/h (3 Bft) W 259 ° 0 min 0,000 mm 0,0 UV-I 0 W/m² 0,4 °C -2,7 °C 22,5 km/h (4 Bft)
17.03.2019 20:56 1,7 °C 91 % 1011,8 hPa 0,0 mm 16,7 km/h (3 Bft) W-NW 293 ° 0 min 0,000 mm 0,0 UV-I 0 W/m² 0,4 °C -2,6 °C 22,5 km/h (4 Bft)
17.03.2019 20:57 1,7 °C 91 % 1011,7 hPa 0,0 mm 18,5 km/h (3 Bft) W 267 ° 0 min 0,000 mm 0,0 UV-I 0 W/m² 0,4 °C -2,9 °C 27,4 km/h (4 Bft)
17.03.2019 20:58 1,7 °C 91 % 1011,9 hPa 0,0 mm 13,3 km/h (3 Bft) W-SW 257 ° 0 min 0,000 mm 0,0 UV-I 0 W/m² 0,4 °C -2,0 °C 22,5 km/h (4 Bft)
17.03.2019 20:59 1,7 °C 91 % 1011,9 hPa 0,0 mm 17,5 km/h (3 Bft) W-SW 258 ° 0 min 0,000 mm 0,0 UV-I 0 W/m² 0,4 °C -2,7 °C 25,7 km/h (4 Bft)
17.03.2019 21:00 1,7 °C 91 % 1011,9 hPa 0,0 mm 20,3 km/h (4 Bft) SW 219 ° 0 min 0,000 mm 0,0 UV-I 0 W/m² 0,4 °C -3,1 °C 27,4 km/h (4 Bft)
17.03.2019 21:01 1,7 °C 91 % 1011,9 hPa 0,0 mm 18,4 km/h (3 Bft) W-SW 242 ° 0 min 0,000 mm 0,0 UV-I 0 W/m² 0,4 °C -2,9 °C 27,4 km/h (4 Bft)
17.03.2019 21:02 1,7 °C 91 % 1012,0 hPa 0,0 mm 17,0 km/h (3 Bft) W 271 ° 0 min 0,000 mm 0,0 UV-I 0 W/m² 0,4 °C -2,7 °C 24,1 km/h (4 Bft)
17.03.2019 21:03 1,7 °C 91 % 1012,0 hPa 0,0 mm 18,6 km/h (3 Bft) W 261 ° 0 min 0,000 mm 0,0 UV-I 0 W/m² 0,4 °C -2,9 °C 25,7 km/h (4 Bft)
17.03.2019 21:04 1,7 °C 91 % 1012,0 hPa 0,0 mm 19,3 km/h (3 Bft) W 263 ° 0 min 0,000 mm 0,0 UV-I 0 W/m² 0,4 °C -3,0 °C 29,0 km/h (5 Bft)
17.03.2019 21:05 1,7 °C 91 % 1012,1 hPa 0,0 mm 19,6 km/h (3 Bft) W 273 ° 0 min 0,000 mm 0,0 UV-I 0 W/m² 0,4 °C -3,0 °C 29,0 km/h (5 Bft)
17.03.2019 21:06 1,7 °C 91 % 1012,0 hPa 0,0 mm 19,7 km/h (3 Bft) W 277 ° 0 min 0,000 mm 0,0 UV-I 0 W/m² 0,4 °C -3,1 °C 32,2 km/h (5 Bft)
17.03.2019 21:07 1,7 °C 91 % 1012,0 hPa 0,0 mm 14,6 km/h (3 Bft) W-SW 253 ° 0 min 0,000 mm 0,0 UV-I 0 W/m² 0,4 °C -2,2 °C 24,1 km/h (4 Bft)
17.03.2019 21:08 1,7 °C 91 % 1012,1 hPa 0,0 mm 9,0 km/h (2 Bft) W-SW 242 ° 0 min 0,000 mm 0,0 UV-I 0 W/m² 0,4 °C -1,0 °C 16,1 km/h (3 Bft)
17.03.2019 21:09 1,7 °C 91 % 1012,0 hPa 0,0 mm 12,3 km/h (3 Bft) W 266 ° 0 min 0,000 mm 0,0 UV-I 0 W/m² 0,4 °C -1,8 °C 16,1 km/h (3 Bft)
17.03.2019 21:10 1,7 °C 91 % 1012,1 hPa 0,0 mm 16,7 km/h (3 Bft) W 276 ° 0 min 0,000 mm 0,0 UV-I 0 W/m² 0,4 °C -2,6 °C 29,0 km/h (5 Bft)
17.03.2019 21:11 1,7 °C 91 % 1012,0 hPa 0,0 mm 14,1 km/h (3 Bft) W-SW 250 ° 0 min 0,000 mm 0,0 UV-I 0 W/m² 0,4 °C -2,2 °C 27,4 km/h (4 Bft)
17.03.2019 21:12 1,7 °C 91 % 1012,2 hPa 0,2 mm 17,2 km/h (3 Bft) W 267 ° 0 min 0,000 mm 0,0 UV-I 0 W/m² 0,4 °C -2,7 °C 24,1 km/h (4 Bft)
17.03.2019 21:13 1,7 °C 91 % 1012,1 hPa 0,0 mm 12,2 km/h (2 Bft) W-SW 248 ° 0 min 0,000 mm 0,0 UV-I 0 W/m² 0,4 °C -1,8 °C 20,9 km/h (4 Bft)
17.03.2019 21:14 1,7 °C 91 % 1012,2 hPa 0,0 mm 19,7 km/h (3 Bft) W 271 ° 0 min 0,000 mm 0,0 UV-I 0 W/m² 0,4 °C -3,1 °C 40,2 km/h (6 Bft)
17.03.2019 21:15 1,7 °C 91 % 1012,2 hPa 0,0 mm 22,4 km/h (4 Bft) W 262 ° 0 min 0,000 mm 0,0 UV-I 0 W/m² 0,4 °C -3,4 °C 30,6 km/h (5 Bft)
17.03.2019 21:16 1,7 °C 91 % 1012,1 hPa 0,0 mm 20,5 km/h (4 Bft) W 268 ° 0 min 0,000 mm 0,0 UV-I 0 W/m² 0,4 °C -3,2 °C 25,7 km/h (4 Bft)
17.03.2019 21:17 1,7 °C 90 % 1012,1 hPa 0,0 mm 12,9 km/h (3 Bft) W-SW 241 ° 0 min 0,000 mm 0,0 UV-I 0 W/m² 0,2 °C -1,9 °C 20,9 km/h (4 Bft)
17.03.2019 21:18 1,7 °C 90 % 1012,2 hPa 0,0 mm 16,7 km/h (3 Bft) W-NW 296 ° 0 min 0,000 mm 0,0 UV-I 0 W/m² 0,2 °C -2,6 °C 27,4 km/h (4 Bft)
17.03.2019 21:19 1,7 °C 90 % 1012,3 hPa 0,0 mm 17,1 km/h (3 Bft) W 265 ° 0 min 0,000 mm 0,0 UV-I 0 W/m² 0,2 °C -2,7 °C 30,6 km/h (5 Bft)
17.03.2019 21:20 1,7 °C 90 % 1012,3 hPa 0,0 mm 16,8 km/h (3 Bft) W-SW 244 ° 0 min 0,000 mm 0,0 UV-I 0 W/m² 0,2 °C -2,6 °C 25,7 km/h (4 Bft)
17.03.2019 21:21 1,7 °C 90 % 1012,3 hPa 0,0 mm 16,3 km/h (3 Bft) W 261 ° 0 min 0,000 mm 0,0 UV-I 0 W/m² 0,2 °C -2,5 °C 24,1 km/h (4 Bft)
17.03.2019 21:22 1,7 °C 90 % 1012,2 hPa 0,0 mm 20,3 km/h (4 Bft) W-SW 244 ° 0 min 0,000 mm 0,0 UV-I 0 W/m² 0,2 °C -3,1 °C 29,0 km/h (5 Bft)
17.03.2019 21:23 1,7 °C 90 % 1012,4 hPa 0,0 mm 16,7 km/h (3 Bft) W 261 ° 0 min 0,000 mm 0,0 UV-I 0 W/m² 0,2 °C -2,6 °C 27,4 km/h (4 Bft)
17.03.2019 21:24 1,7 °C 90 % 1012,4 hPa 0,0 mm 21,8 km/h (4 Bft) W 266 ° 0 min 0,000 mm 0,0 UV-I 0 W/m² 0,2 °C -3,3 °C 29,0 km/h (5 Bft)
17.03.2019 21:25 1,7 °C 90 % 1012,3 hPa 0,0 mm 28,3 km/h (4 Bft) W-SW 257 ° 0 min 0,000 mm 0,0 UV-I 0 W/m² 0,2 °C -4,1 °C 43,5 km/h (6 Bft)
17.03.2019 21:26 1,6 °C 90 % 1012,4 hPa 0,0 mm 21,1 km/h (4 Bft) W 270 ° 0 min 0,000 mm 0,0 UV-I 0 W/m² 0,1 °C -3,4 °C 30,6 km/h (5 Bft)
17.03.2019 21:27 1,7 °C 90 % 1012,4 hPa 0,0 mm 14,0 km/h (3 Bft) W-SW 252 ° 0 min 0,000 mm 0,0 UV-I 0 W/m² 0,2 °C -2,1 °C 22,5 km/h (4 Bft)
17.03.2019 21:28 1,6 °C 90 % 1012,5 hPa 0,0 mm 15,7 km/h (3 Bft) SW 235 ° 0 min 0,000 mm 0,0 UV-I 0 W/m² 0,1 °C -2,6 °C 22,5 km/h (4 Bft)
17.03.2019 21:29 1,6 °C 90 % 1012,6 hPa 0,0 mm 19,6 km/h (3 Bft) W 274 ° 0 min 0,000 mm 0,0 UV-I 0 W/m² 0,1 °C -3,2 °C 33,8 km/h (5 Bft)
17.03.2019 21:30 1,6 °C 90 % 1012,5 hPa 0,0 mm 18,9 km/h (3 Bft) W-NW 300 ° 0 min 0,000 mm 0,0 UV-I 0 W/m² 0,1 °C -3,1 °C 22,5 km/h (4 Bft)
17.03.2019 21:31 1,6 °C 90 % 1012,6 hPa 0,0 mm 15,3 km/h (3 Bft) W-NW 286 ° 0 min 0,000 mm 0,0 UV-I 0 W/m² 0,1 °C -2,5 °C 20,9 km/h (4 Bft)
17.03.2019 21:32 1,6 °C 90 % 1012,6 hPa 0,0 mm 10,9 km/h (2 Bft) W 279 ° 0 min 0,000 mm 0,0 UV-I 0 W/m² 0,1 °C -1,6 °C 12,9 km/h (3 Bft)
17.03.2019 21:33 1,6 °C 90 % 1012,6 hPa 0,0 mm 7,7 km/h (2 Bft) W 276 ° 0 min 0,000 mm 0,0 UV-I 0 W/m² 0,1 °C -0,8 °C 12,9 km/h (3 Bft)
17.03.2019 21:34 1,6 °C 90 % 1012,6 hPa 0,0 mm 11,7 km/h (2 Bft) W 269 ° 0 min 0,000 mm 0,0 UV-I 0 W/m² 0,1 °C -1,8 °C 17,7 km/h (3 Bft)
17.03.2019 21:35 1,7 °C 90 % 1012,6 hPa 0,0 mm 12,8 km/h (3 Bft) SW 235 ° 0 min 0,000 mm 0,0 UV-I 0 W/m² 0,2 °C -1,9 °C 16,1 km/h (3 Bft)
17.03.2019 21:36 1,6 °C 90 % 1012,7 hPa 0,0 mm 10,1 km/h (2 Bft) W-SW 246 ° 0 min 0,000 mm 0,0 UV-I 0 W/m² 0,1 °C -1,4 °C 16,1 km/h (3 Bft)
17.03.2019 21:37 1,6 °C 90 % 1012,6 hPa 0,0 mm 9,7 km/h (2 Bft) NW 316 ° 0 min 0,000 mm 0,0 UV-I 0 W/m² 0,1 °C -1,3 °C 12,9 km/h (3 Bft)
17.03.2019 21:38 1,6 °C 90 % 1012,6 hPa 0,0 mm 9,6 km/h (2 Bft) W 269 ° 0 min 0,000 mm 0,0 UV-I 0 W/m² 0,1 °C -1,3 °C 19,3 km/h (3 Bft)
17.03.2019 21:39 1,6 °C 90 % 1012,7 hPa 0,0 mm 20,0 km/h (4 Bft) W-SW 248 ° 0 min 0,000 mm 0,0 UV-I 0 W/m² 0,1 °C -3,2 °C 25,7 km/h (4 Bft)
17.03.2019 21:40 1,6 °C 90 % 1012,7 hPa 0,0 mm 21,2 km/h (4 Bft) W 259 ° 0 min 0,000 mm 0,0 UV-I 0 W/m² 0,1 °C -3,4 °C 27,4 km/h (4 Bft)
17.03.2019 21:41 1,6 °C 90 % 1012,7 hPa 0,0 mm 12,0 km/h (2 Bft) W-SW 258 ° 0 min 0,000 mm 0,0 UV-I 0 W/m² 0,1 °C -1,9 °C 17,7 km/h (3 Bft)
17.03.2019 21:42 1,6 °C 90 % 1012,7 hPa 0,0 mm 15,8 km/h (3 Bft) W 272 ° 0 min 0,000 mm 0,0 UV-I 0 W/m² 0,1 °C -2,6 °C 19,3 km/h (3 Bft)
17.03.2019 21:43 1,6 °C 90 % 1012,7 hPa 0,0 mm 13,1 km/h (3 Bft) W 263 ° 0 min 0,000 mm 0,0 UV-I 0 W/m² 0,1 °C -2,1 °C 17,7 km/h (3 Bft)
17.03.2019 21:44 1,6 °C 90 % 1012,7 hPa 0,0 mm 11,9 km/h (2 Bft) W 269 ° 0 min 0,000 mm 0,0 UV-I 0 W/m² 0,1 °C -1,8 °C 16,1 km/h (3 Bft)
17.03.2019 21:45 1,6 °C 90 % 1012,7 hPa 0,0 mm 14,1 km/h (3 Bft) SW 234 ° 0 min 0,000 mm 0,0 UV-I 0 W/m² 0,1 °C -2,3 °C 24,1 km/h (4 Bft)
17.03.2019 21:46 1,6 °C 90 % 1012,6 hPa 0,0 mm 7,7 km/h (2 Bft) W-SW 254 ° 0 min 0,000 mm 0,0 UV-I 0 W/m² 0,1 °C -0,8 °C 11,3 km/h (2 Bft)
17.03.2019 21:47 1,6 °C 90 % 1012,7 hPa 0,0 mm 10,8 km/h (2 Bft) W 268 ° 0 min 0,000 mm 0,0 UV-I 0 W/m² 0,1 °C -1,6 °C 17,7 km/h (3 Bft)
17.03.2019 21:48 1,5 °C 90 % 1012,7 hPa 0,0 mm 17,2 km/h (3 Bft) W 272 ° 0 min 0,000 mm 0,0 UV-I 0 W/m² 0,0 °C -2,9 °C 30,6 km/h (5 Bft)
17.03.2019 21:49 1,5 °C 90 % 1012,6 hPa 0,0 mm 13,2 km/h (3 Bft) SW 228 ° 0 min 0,000 mm 0,0 UV-I 0 W/m² 0,0 °C -2,2 °C 16,1 km/h (3 Bft)
17.03.2019 21:50 1,5 °C 90 % 1012,7 hPa 0,0 mm 9,7 km/h (2 Bft) W-SW 242 ° 0 min 0,000 mm 0,0 UV-I 0 W/m² 0,0 °C -1,4 °C 16,1 km/h (3 Bft)
17.03.2019 21:51 1,5 °C 90 % 1012,7 hPa 0,0 mm 13,0 km/h (3 Bft) W-SW 249 ° 0 min 0,000 mm 0,0 UV-I 0 W/m² 0,0 °C -2,2 °C 17,7 km/h (3 Bft)
17.03.2019 21:52 1,6 °C 90 % 1012,7 hPa 0,0 mm 8,0 km/h (2 Bft) W 275 ° 0 min 0,000 mm 0,0 UV-I 0 W/m² 0,1 °C -0,9 °C 12,9 km/h (3 Bft)
17.03.2019 21:53 1,6 °C 90 % 1012,8 hPa 0,0 mm 13,9 km/h (3 Bft) SW 227 ° 0 min 0,000 mm 0,0 UV-I 0 W/m² 0,1 °C -2,2 °C 19,3 km/h (3 Bft)
17.03.2019 21:54 1,5 °C 90 % 1012,8 hPa 0,0 mm 11,5 km/h (2 Bft) W 263 ° 0 min 0,000 mm 0,0 UV-I 0 W/m² 0,0 °C -1,9 °C 16,1 km/h (3 Bft)
17.03.2019 21:55 1,5 °C 90 % 1012,8 hPa 0,0 mm 10,4 km/h (2 Bft) W 271 ° 0 min 0,000 mm 0,0 UV-I 0 W/m² 0,0 °C -1,6 °C 16,1 km/h (3 Bft)
17.03.2019 21:56 1,5 °C 90 % 1012,8 hPa 0,0 mm 13,6 km/h (3 Bft) W 265 ° 0 min 0,000 mm 0,0 UV-I 0 W/m² 0,0 °C -2,3 °C 17,7 km/h (3 Bft)
17.03.2019 21:57 1,5 °C 90 % 1012,8 hPa 0,0 mm 11,8 km/h (2 Bft) W-NW 282 ° 0 min 0,000 mm 0,0 UV-I 0 W/m² 0,0 °C -1,9 °C 17,7 km/h (3 Bft)
17.03.2019 21:58 1,5 °C 90 % 1012,8 hPa 0,0 mm 15,3 km/h (3 Bft) SW 214 ° 0 min 0,000 mm 0,0 UV-I 0 W/m² 0,0 °C -2,6 °C 24,1 km/h (4 Bft)
17.03.2019 21:59 1,4 °C 90 % 1012,8 hPa 0,0 mm 6,2 km/h (2 Bft) SW 234 ° 0 min 0,000 mm 0,0 UV-I 0 W/m² -0,1 °C -0,5 °C 9,7 km/h (2 Bft)
17.03.2019 22:00 1,5 °C 90 % 1012,8 hPa 0,0 mm 14,0 km/h (3 Bft) W-NW 296 ° 0 min 0,000 mm 0,0 UV-I 0 W/m² 0,0 °C -2,4 °C 20,9 km/h (4 Bft)
17.03.2019 22:01 1,4 °C 90 % 1012,9 hPa 0,0 mm 10,6 km/h (2 Bft) SW 223 ° 0 min 0,000 mm 0,0 UV-I 0 W/m² -0,1 °C -1,8 °C 17,7 km/h (3 Bft)
17.03.2019 22:02 1,5 °C 90 % 1012,8 hPa 0,0 mm 12,7 km/h (3 Bft) S-SW 208 ° 0 min 0,000 mm 0,0 UV-I 0 W/m² 0,0 °C -2,1 °C 17,7 km/h (3 Bft)
17.03.2019 22:03 1,4 °C 90 % 1012,7 hPa 0,0 mm 8,1 km/h (2 Bft) W 266 ° 0 min 0,000 mm 0,0 UV-I 0 W/m² -0,1 °C -1,1 °C 14,5 km/h (3 Bft)
17.03.2019 22:04 1,4 °C 90 % 1012,9 hPa 0,0 mm 9,5 km/h (2 Bft) W 263 ° 0 min 0,000 mm 0,0 UV-I 0 W/m² -0,1 °C -1,5 °C 12,9 km/h (3 Bft)
17.03.2019 22:05 1,4 °C 90 % 1012,8 hPa 0,0 mm 13,0 km/h (3 Bft) W-SW 255 ° 0 min 0,000 mm 0,0 UV-I 0 W/m² -0,1 °C -2,3 °C 17,7 km/h (3 Bft)
17.03.2019 22:06 1,4 °C 90 % 1012,9 hPa 0,0 mm 11,6 km/h (2 Bft) W 269 ° 0 min 0,000 mm 0,0 UV-I 0 W/m² -0,1 °C -2,0 °C 17,7 km/h (3 Bft)
17.03.2019 22:07 1,4 °C 90 % 1012,9 hPa 0,0 mm 9,4 km/h (2 Bft) W-SW 254 ° 0 min 0,000 mm 0,0 UV-I 0 W/m² -0,1 °C -1,5 °C 16,1 km/h (3 Bft)
17.03.2019 22:08 1,4 °C 90 % 1012,9 hPa 0,0 mm 13,8 km/h (3 Bft) W-SW 242 ° 0 min 0,000 mm 0,0 UV-I 0 W/m² -0,1 °C -2,5 °C 19,3 km/h (3 Bft)
17.03.2019 22:09 1,4 °C 90 % 1012,8 hPa 0,0 mm 15,8 km/h (3 Bft) W 262 ° 0 min 0,000 mm 0,0 UV-I 0 W/m² -0,1 °C -2,8 °C 22,5 km/h (4 Bft)
17.03.2019 22:10 1,4 °C 90 % 1012,8 hPa 0,0 mm 12,5 km/h (3 Bft) W-SW 254 ° 0 min 0,000 mm 0,0 UV-I 0 W/m² -0,1 °C -2,2 °C 19,3 km/h (3 Bft)
17.03.2019 22:11 1,4 °C 90 % 1012,8 hPa 0,0 mm 11,6 km/h (2 Bft) W 277 ° 0 min 0,000 mm 0,0 UV-I 0 W/m² -0,1 °C -2,0 °C 14,5 km/h (3 Bft)
17.03.2019 22:12 1,4 °C 90 % 1012,8 hPa 0,0 mm 9,0 km/h (2 Bft) W 276 ° 0 min 0,000 mm 0,0 UV-I 0 W/m² -0,1 °C -1,4 °C 12,9 km/h (3 Bft)
17.03.2019 22:13 1,4 °C 90 % 1012,9 hPa 0,0 mm 9,4 km/h (2 Bft) W 265 ° 0 min 0,000 mm 0,0 UV-I 0 W/m² -0,1 °C -1,5 °C 12,9 km/h (3 Bft)
17.03.2019 22:14 1,4 °C 90 % 1012,9 hPa 0,0 mm 5,0 km/h (1 Bft) W-NW 288 ° 0 min 0,000 mm 0,0 UV-I 0 W/m² -0,1 °C -0,0 °C 9,7 km/h (2 Bft)
17.03.2019 22:15 1,4 °C 90 % 1012,9 hPa 0,0 mm 8,4 km/h (2 Bft) W 263 ° 0 min 0,000 mm 0,0 UV-I 0 W/m² -0,1 °C -1,2 °C 14,5 km/h (3 Bft)
17.03.2019 22:16 1,4 °C 90 % 1012,9 hPa 0,0 mm 9,3 km/h (2 Bft) W 267 ° 0 min 0,000 mm 0,0 UV-I 0 W/m² -0,1 °C -1,5 °C 12,9 km/h (3 Bft)
17.03.2019 22:17 1,4 °C 90 % 1012,9 hPa 0,0 mm 8,0 km/h (2 Bft) W 269 ° 0 min 0,000 mm 0,0 UV-I 0 W/m² -0,1 °C -1,1 °C 14,5 km/h (3 Bft)
17.03.2019 22:18 1,4 °C 90 % 1012,9 hPa 0,0 mm 9,1 km/h (2 Bft) W 261 ° 0 min 0,000 mm 0,0 UV-I 0 W/m² -0,1 °C -1,4 °C 14,5 km/h (3 Bft)
17.03.2019 22:19 1,3 °C 90 % 1013,0 hPa 0,0 mm 10,8 km/h (2 Bft) SW 234 ° 0 min 0,000 mm 0,0 UV-I 0 W/m² -0,2 °C -2,0 °C 14,5 km/h (3 Bft)
17.03.2019 22:20 1,4 °C 90 % 1013,0 hPa 0,0 mm 7,3 km/h (2 Bft) W 263 ° 0 min 0,000 mm 0,0 UV-I 0 W/m² -0,1 °C -0,9 °C 12,9 km/h (3 Bft)
17.03.2019 22:21 1,4 °C 89 % 1013,0 hPa 0,0 mm 5,1 km/h (1 Bft) W-SW 244 ° 0 min 0,000 mm 0,0 UV-I 0 W/m² -0,2 °C -0,0 °C 6,4 km/h (2 Bft)
17.03.2019 22:22 1,4 °C 90 % 1013,0 hPa 0,0 mm 4,8 km/h (1 Bft) W 262 ° 0 min 0,000 mm 0,0 UV-I 0 W/m² -0,1 °C 0,1 °C 6,4 km/h (2 Bft)
17.03.2019 22:23 1,4 °C 90 % 1013,0 hPa 0,0 mm 5,2 km/h (1 Bft) W 263 ° 0 min 0,000 mm 0,0 UV-I 0 W/m² -0,1 °C -0,1 °C 6,4 km/h (2 Bft)
17.03.2019 22:24 1,4 °C 90 % 1013,0 hPa 0,0 mm 5,7 km/h (1 Bft) W-NW 288 ° 0 min 0,000 mm 0,0 UV-I 0 W/m² -0,1 °C -0,3 °C 9,7 km/h (2 Bft)
17.03.2019 22:25 1,4 °C 90 % 1013,0 hPa 0,0 mm 7,4 km/h (2 Bft) W 277 ° 0 min 0,000 mm 0,0 UV-I 0 W/m² -0,1 °C -0,9 °C 11,3 km/h (2 Bft)
17.03.2019 22:26 1,4 °C 90 % 1013,0 hPa 0,0 mm 12,6 km/h (3 Bft) SW 227 ° 0 min 0,000 mm 0,0 UV-I 0 W/m² -0,1 °C -2,2 °C 17,7 km/h (3 Bft)
17.03.2019 22:27 1,4 °C 89 % 1013,0 hPa 0,0 mm 10,0 km/h (2 Bft) W 264 ° 0 min 0,000 mm 0,0 UV-I 0 W/m² -0,2 °C -1,6 °C 20,9 km/h (4 Bft)
17.03.2019 22:28 1,4 °C 90 % 1013,1 hPa 0,0 mm 12,8 km/h (3 Bft) W-NW 286 ° 0 min 0,000 mm 0,0 UV-I 0 W/m² -0,1 °C -2,3 °C 17,7 km/h (3 Bft)
17.03.2019 22:29 1,4 °C 90 % 1013,1 hPa 0,0 mm 8,6 km/h (2 Bft) W 266 ° 0 min 0,000 mm 0,0 UV-I 0 W/m² -0,1 °C -1,3 °C 17,7 km/h (3 Bft)
17.03.2019 22:30 1,4 °C 90 % 1013,0 hPa 0,0 mm 13,3 km/h (3 Bft) W 278 ° 0 min 0,000 mm 0,0 UV-I 0 W/m² -0,1 °C -2,4 °C 16,1 km/h (3 Bft)
17.03.2019 22:31 1,4 °C 89 % 1013,1 hPa 0,0 mm 5,7 km/h (1 Bft) S-SW 198 ° 0 min 0,000 mm 0,0 UV-I 0 W/m² -0,2 °C -0,3 °C 9,7 km/h (2 Bft)
17.03.2019 22:32 1,4 °C 89 % 1013,1 hPa 0,0 mm 7,0 km/h (2 Bft) W-NW 289 ° 0 min 0,000 mm 0,0 UV-I 0 W/m² -0,2 °C -0,8 °C 9,7 km/h (2 Bft)
17.03.2019 22:33 1,4 °C 89 % 1013,1 hPa 0,0 mm 6,4 km/h (2 Bft) W-SW 242 ° 0 min 0,000 mm 0,0 UV-I 0 W/m² -0,2 °C -0,6 °C 11,3 km/h (2 Bft)
17.03.2019 22:34 1,4 °C 89 % 1013,2 hPa 0,0 mm 6,8 km/h (2 Bft) W 265 ° 0 min 0,000 mm 0,0 UV-I 0 W/m² -0,2 °C -0,7 °C 11,3 km/h (2 Bft)
17.03.2019 22:35 1,4 °C 89 % 1013,2 hPa 0,0 mm 13,2 km/h (3 Bft) W 262 ° 0 min 0,000 mm 0,0 UV-I 0 W/m² -0,2 °C -2,4 °C 16,1 km/h (3 Bft)
17.03.2019 22:36 1,4 °C 89 % 1013,1 hPa 0,0 mm 11,4 km/h (2 Bft) W-SW 255 ° 0 min 0,000 mm 0,0 UV-I 0 W/m² -0,2 °C -2,0 °C 16,1 km/h (3 Bft)
17.03.2019 22:37 1,4 °C 89 % 1013,1 hPa 0,0 mm 4,5 km/h (1 Bft) W 269 ° 0 min 0,000 mm 0,0 UV-I 0 W/m² -0,2 °C 1,4 °C 6,4 km/h (2 Bft)
17.03.2019 22:38 1,4 °C 89 % 1013,1 hPa 0,0 mm 10,8 km/h (2 Bft) W-SW 249 ° 0 min 0,000 mm 0,0 UV-I 0 W/m² -0,2 °C -1,8 °C 17,7 km/h (3 Bft)
17.03.2019 22:39 1,4 °C 89 % 1013,2 hPa 0,0 mm 9,7 km/h (2 Bft) W 264 ° 0 min 0,000 mm 0,0 UV-I 0 W/m² -0,2 °C -1,6 °C 17,7 km/h (3 Bft)
17.03.2019 22:40 1,4 °C 89 % 1013,2 hPa 0,0 mm 5,1 km/h (1 Bft) W-SW 258 ° 0 min 0,000 mm 0,0 UV-I 0 W/m² -0,2 °C -0,0 °C 8,0 km/h (2 Bft)
17.03.2019 22:41 1,4 °C 89 % 1013,2 hPa 0,0 mm 11,0 km/h (2 Bft) W-SW 258 ° 0 min 0,000 mm 0,0 UV-I 0 W/m² -0,2 °C -1,9 °C 16,1 km/h (3 Bft)
17.03.2019 22:42 1,4 °C 89 % 1013,2 hPa 0,0 mm 9,7 km/h (2 Bft) W 264 ° 0 min 0,000 mm 0,0 UV-I 0 W/m² -0,2 °C -1,6 °C 12,9 km/h (3 Bft)
17.03.2019 22:43 1,4 °C 89 % 1013,3 hPa 0,0 mm 9,2 km/h (2 Bft) W-SW 244 ° 0 min 0,000 mm 0,0 UV-I 0 W/m² -0,2 °C -1,4 °C 12,9 km/h (3 Bft)
17.03.2019 22:44 1,3 °C 89 % 1013,2 hPa 0,0 mm 8,0 km/h (2 Bft) W-SW 240 ° 0 min 0,000 mm 0,0 UV-I 0 W/m² -0,3 °C -1,2 °C 11,3 km/h (2 Bft)
17.03.2019 22:45 1,4 °C 89 % 1013,2 hPa 0,0 mm 6,6 km/h (2 Bft) W 271 ° 0 min 0,000 mm 0,0 UV-I 0 W/m² -0,2 °C -0,6 °C 9,7 km/h (2 Bft)
17.03.2019 22:46 1,3 °C 89 % 1013,2 hPa 0,0 mm 10,2 km/h (2 Bft) W 263 ° 0 min 0,000 mm 0,0 UV-I 0 W/m² -0,3 °C -1,8 °C 14,5 km/h (3 Bft)
17.03.2019 22:47 1,3 °C 89 % 1013,2 hPa 0,0 mm 6,6 km/h (2 Bft) W 263 ° 0 min 0,000 mm 0,0 UV-I 0 W/m² -0,3 °C -0,8 °C 11,3 km/h (2 Bft)
17.03.2019 22:48 1,3 °C 89 % 1013,2 hPa 0,0 mm 8,2 km/h (2 Bft) W-NW 282 ° 0 min 0,000 mm 0,0 UV-I 0 W/m² -0,3 °C -1,3 °C 11,3 km/h (2 Bft)
17.03.2019 22:49 1,3 °C 89 % 1013,2 hPa 0,0 mm 9,4 km/h (2 Bft) W-SW 255 ° 0 min 0,000 mm 0,0 UV-I 0 W/m² -0,3 °C -1,6 °C 14,5 km/h (3 Bft)
17.03.2019 22:50 1,3 °C 90 % 1013,1 hPa 0,0 mm 5,5 km/h (1 Bft) S-SW 201 ° 0 min 0,000 mm 0,0 UV-I 0 W/m² -0,2 °C -0,3 °C 8,0 km/h (2 Bft)
17.03.2019 22:51 1,3 °C 90 % 1013,2 hPa 0,0 mm 3,9 km/h (1 Bft) SW 236 ° 0 min 0,000 mm 0,0 UV-I 0 W/m² -0,2 °C 1,3 °C 4,8 km/h (1 Bft)
17.03.2019 22:52 1,3 °C 90 % 1013,1 hPa 0,0 mm 4,0 km/h (1 Bft) W 271 ° 0 min 0,000 mm 0,0 UV-I 0 W/m² -0,2 °C 1,3 °C 6,4 km/h (2 Bft)
17.03.2019 22:53 1,3 °C 90 % 1013,2 hPa 0,0 mm 5,2 km/h (1 Bft) SW 225 ° 0 min 0,000 mm 0,0 UV-I 0 W/m² -0,2 °C -0,2 °C 8,0 km/h (2 Bft)
17.03.2019 22:54 1,3 °C 90 % 1013,2 hPa 0,0 mm 5,5 km/h (1 Bft) SW 227 ° 0 min 0,000 mm 0,0 UV-I 0 W/m² -0,2 °C -0,3 °C 8,0 km/h (2 Bft)
17.03.2019 22:55 1,3 °C 90 % 1013,2 hPa 0,0 mm 5,1 km/h (1 Bft) W 270 ° 0 min 0,000 mm 0,0 UV-I 0 W/m² -0,2 °C -0,2 °C 11,3 km/h (2 Bft)
17.03.2019 22:56 1,3 °C 90 % 1013,2 hPa 0,0 mm 6,4 km/h (2 Bft) W 264 ° 0 min 0,000 mm 0,0 UV-I 0 W/m² -0,2 °C -0,7 °C 9,7 km/h (2 Bft)
17.03.2019 22:57 1,3 °C 90 % 1013,2 hPa 0,0 mm 5,5 km/h (1 Bft) SW 227 ° 0 min 0,000 mm 0,0 UV-I 0 W/m² -0,2 °C -0,3 °C 8,0 km/h (2 Bft)
17.03.2019 22:58 1,3 °C 90 % 1013,2 hPa 0,0 mm 2,5 km/h (1 Bft) SW 227 ° 0 min 0,000 mm 0,0 UV-I 0 W/m² -0,2 °C 1,3 °C 4,8 km/h (1 Bft)
17.03.2019 22:59 1,3 °C 90 % 1013,2 hPa 0,0 mm 1,3 km/h (1 Bft) SW 227 ° 0 min 0,000 mm 0,0 UV-I 0 W/m² -0,2 °C 1,3 °C 3,2 km/h (1 Bft)
17.03.2019 23:00 1,3 °C 90 % 1013,2 hPa 0,0 mm 3,4 km/h (1 Bft) SW 228 ° 0 min 0,000 mm 0,0 UV-I 0 W/m² -0,2 °C 1,3 °C 4,8 km/h (1 Bft)
17.03.2019 23:01 1,3 °C 90 % 1013,2 hPa 0,0 mm 4,1 km/h (1 Bft) W-SW 240 ° 0 min 0,000 mm 0,0 UV-I 0 W/m² -0,2 °C 1,3 °C 4,8 km/h (1 Bft)
17.03.2019 23:02 1,2 °C 90 % 1013,2 hPa 0,0 mm 2,8 km/h (1 Bft) W-SW 240 ° 0 min 0,000 mm 0,0 UV-I 0 W/m² -0,3 °C 1,2 °C 3,2 km/h (1 Bft)
17.03.2019 23:03 1,3 °C 90 % 1013,2 hPa 0,0 mm 2,9 km/h (1 Bft) W-SW 238 ° 0 min 0,000 mm 0,0 UV-I 0 W/m² -0,2 °C 1,3 °C 4,8 km/h (1 Bft)
17.03.2019 23:04 1,3 °C 90 % 1013,2 hPa 0,0 mm 3,8 km/h (1 Bft) W-SW 243 ° 0 min 0,000 mm 0,0 UV-I 0 W/m² -0,2 °C 1,3 °C 4,8 km/h (1 Bft)
17.03.2019 23:05 1,3 °C 90 % 1013,3 hPa 0,0 mm 4,3 km/h (1 Bft) W-SW 253 ° 0 min 0,000 mm 0,0 UV-I 0 W/m² -0,2 °C 1,3 °C 8,0 km/h (2 Bft)
17.03.2019 23:06 1,2 °C 90 % 1013,3 hPa 0,0 mm 2,9 km/h (1 Bft) W-SW 253 ° 0 min 0,000 mm 0,0 UV-I 0 W/m² -0,3 °C 1,2 °C 4,8 km/h (1 Bft)
17.03.2019 23:07 1,3 °C 90 % 1013,3 hPa 0,0 mm 4,1 km/h (1 Bft) W-SW 240 ° 0 min 0,000 mm 0,0 UV-I 0 W/m² -0,2 °C 1,3 °C 6,4 km/h (2 Bft)
17.03.2019 23:08 1,2 °C 90 % 1013,3 hPa 0,0 mm 3,2 km/h (1 Bft) W-SW 241 ° 0 min 0,000 mm 0,0 UV-I 0 W/m² -0,3 °C 1,2 °C 4,8 km/h (1 Bft)
17.03.2019 23:09 1,2 °C 90 % 1013,3 hPa 0,0 mm 1,9 km/h (1 Bft) W-SW 241 ° 0 min 0,000 mm 0,0 UV-I 0 W/m² -0,3 °C 1,2 °C 3,2 km/h (1 Bft)
17.03.2019 23:10 1,2 °C 90 % 1013,3 hPa 0,0 mm 4,7 km/h (1 Bft) SW 223 ° 0 min 0,000 mm 0,0 UV-I 0 W/m² -0,3 °C -0,1 °C 6,4 km/h (2 Bft)
17.03.2019 23:11 1,2 °C 90 % 1013,2 hPa 0,0 mm 2,9 km/h (1 Bft) SW 224 ° 0 min 0,000 mm 0,0 UV-I 0 W/m² -0,3 °C 1,2 °C 4,8 km/h (1 Bft)
17.03.2019 23:12 1,2 °C 90 % 1013,3 hPa 0,0 mm 3,7 km/h (1 Bft) W-SW 240 ° 0 min 0,000 mm 0,0 UV-I 0 W/m² -0,3 °C 1,2 °C 4,8 km/h (1 Bft)
17.03.2019 23:13 1,3 °C 90 % 1013,3 hPa 0,0 mm 3,1 km/h (1 Bft) W-SW 238 ° 0 min 0,000 mm 0,0 UV-I 0 W/m² -0,2 °C 1,3 °C 4,8 km/h (1 Bft)
17.03.2019 23:14 1,2 °C 90 % 1013,3 hPa 0,0 mm 3,9 km/h (1 Bft) W-SW 238 ° 0 min 0,000 mm 0,0 UV-I 0 W/m² -0,3 °C 1,2 °C 4,8 km/h (1 Bft)
17.03.2019 23:15 1,2 °C 90 % 1013,3 hPa 0,0 mm 2,8 km/h (1 Bft) W-SW 237 ° 0 min 0,000 mm 0,0 UV-I 0 W/m² -0,3 °C 1,2 °C 3,2 km/h (1 Bft)
17.03.2019 23:16 1,3 °C 90 % 1013,3 hPa 0,0 mm 2,5 km/h (1 Bft) W-SW 238 ° 0 min 0,000 mm 0,0 UV-I 0 W/m² -0,2 °C 1,3 °C 4,8 km/h (1 Bft)
17.03.2019 23:17 1,3 °C 90 % 1013,3 hPa 0,0 mm 1,3 km/h (1 Bft) W-SW 238 ° 0 min 0,000 mm 0,0 UV-I 0 W/m² -0,2 °C 1,3 °C 3,2 km/h (1 Bft)
17.03.2019 23:18 1,2 °C 90 % 1013,4 hPa 0,0 mm 2,2 km/h (1 Bft) W-SW 237 ° 0 min 0,000 mm 0,0 UV-I 0 W/m² -0,3 °C 1,2 °C 4,8 km/h (1 Bft)
17.03.2019 23:19 1,3 °C 90 % 1013,3 hPa 0,0 mm 0,5 km/h (0 Bft) W-SW 237 ° 0 min 0,000 mm 0,0 UV-I 0 W/m² -0,2 °C 1,3 °C 1,6 km/h (1 Bft)
17.03.2019 23:20 1,3 °C 90 % 1013,4 hPa 0,0 mm 1,7 km/h (1 Bft) W-SW 237 ° 0 min 0,000 mm 0,0 UV-I 0 W/m² -0,2 °C 1,3 °C 3,2 km/h (1 Bft)
17.03.2019 23:21 1,3 °C 90 % 1013,4 hPa 0,0 mm 3,4 km/h (1 Bft) W-SW 242 ° 0 min 0,000 mm 0,0 UV-I 0 W/m² -0,2 °C 1,3 °C 4,8 km/h (1 Bft)
17.03.2019 23:22 1,3 °C 90 % 1013,3 hPa 0,0 mm 4,4 km/h (1 Bft) W-SW 249 ° 0 min 0,000 mm 0,0 UV-I 0 W/m² -0,2 °C 1,3 °C 6,4 km/h (2 Bft)
17.03.2019 23:23 1,3 °C 90 % 1013,4 hPa 0,0 mm 4,6 km/h (1 Bft) W 260 ° 0 min 0,000 mm 0,0 UV-I 0 W/m² -0,2 °C 0,1 °C 9,7 km/h (2 Bft)
17.03.2019 23:24 1,3 °C 90 % 1013,3 hPa 0,0 mm 3,4 km/h (1 Bft) W-SW 237 ° 0 min 0,000 mm 0,0 UV-I 0 W/m² -0,2 °C 1,3 °C 4,8 km/h (1 Bft)
17.03.2019 23:25 1,3 °C 90 % 1013,3 hPa 0,0 mm 3,8 km/h (1 Bft) W-SW 241 ° 0 min 0,000 mm 0,0 UV-I 0 W/m² -0,2 °C 1,3 °C 4,8 km/h (1 Bft)
17.03.2019 23:26 1,3 °C 90 % 1013,3 hPa 0,0 mm 3,4 km/h (1 Bft) W-SW 252 ° 0 min 0,000 mm 0,0 UV-I 0 W/m² -0,2 °C 1,3 °C 6,4 km/h (2 Bft)
17.03.2019 23:27 1,3 °C 90 % 1013,3 hPa 0,0 mm 4,7 km/h (1 Bft) W-SW 249 ° 0 min 0,000 mm 0,0 UV-I 0 W/m² -0,2 °C 0,0 °C 6,4 km/h (2 Bft)
17.03.2019 23:28 1,3 °C 90 % 1013,3 hPa 0,0 mm 3,9 km/h (1 Bft) W-SW 250 ° 0 min 0,000 mm 0,0 UV-I 0 W/m² -0,2 °C 1,3 °C 6,4 km/h (2 Bft)
17.03.2019 23:29 1,3 °C 90 % 1013,3 hPa 0,0 mm 4,1 km/h (1 Bft) SW 231 ° 0 min 0,000 mm 0,0 UV-I 0 W/m² -0,2 °C 1,3 °C 4,8 km/h (1 Bft)
17.03.2019 23:30 1,3 °C 90 % 1013,3 hPa 0,0 mm 3,6 km/h (1 Bft) W 261 ° 0 min 0,000 mm 0,0 UV-I 0 W/m² -0,2 °C 1,3 °C 6,4 km/h (2 Bft)
17.03.2019 23:31 1,4 °C 90 % 1013,3 hPa 0,0 mm 3,2 km/h (1 Bft) W 261 ° 0 min 0,000 mm 0,0 UV-I 0 W/m² -0,1 °C 1,4 °C 6,4 km/h (2 Bft)
17.03.2019 23:32 1,4 °C 90 % 1013,2 hPa 0,0 mm 4,6 km/h (1 Bft) W-SW 250 ° 0 min 0,000 mm 0,0 UV-I 0 W/m² -0,1 °C 0,2 °C 6,4 km/h (2 Bft)
17.03.2019 23:33 1,4 °C 90 % 1013,3 hPa 0,0 mm 4,0 km/h (1 Bft) W-SW 251 ° 0 min 0,000 mm 0,0 UV-I 0 W/m² -0,1 °C 1,4 °C 6,4 km/h (2 Bft)
17.03.2019 23:34 1,4 °C 90 % 1013,3 hPa 0,0 mm 4,5 km/h (1 Bft) W-SW 237 ° 0 min 0,000 mm 0,0 UV-I 0 W/m² -0,1 °C 1,4 °C 4,8 km/h (1 Bft)
17.03.2019 23:35 1,4 °C 90 % 1013,3 hPa 0,0 mm 2,3 km/h (1 Bft) SW 232 ° 0 min 0,000 mm 0,0 UV-I 0 W/m² -0,1 °C 1,4 °C 4,8 km/h (1 Bft)
17.03.2019 23:36 1,4 °C 90 % 1013,3 hPa 0,0 mm 1,1 km/h (1 Bft) SW 232 ° 0 min 0,000 mm 0,0 UV-I 0 W/m² -0,1 °C 1,4 °C 3,2 km/h (1 Bft)
17.03.2019 23:37 1,4 °C 90 % 1013,3 hPa 0,0 mm 2,5 km/h (1 Bft) SW 232 ° 0 min 0,000 mm 0,0 UV-I 0 W/m² -0,1 °C 1,4 °C 4,8 km/h (1 Bft)
17.03.2019 23:38 1,4 °C 90 % 1013,3 hPa 0,0 mm 4,4 km/h (1 Bft) W-SW 242 ° 0 min 0,000 mm 0,0 UV-I 0 W/m² -0,1 °C 1,4 °C 4,8 km/h (1 Bft)
17.03.2019 23:39 1,4 °C 90 % 1013,3 hPa 0,0 mm 4,1 km/h (1 Bft) W-SW 242 ° 0 min 0,000 mm 0,0 UV-I 0 W/m² -0,1 °C 1,4 °C 6,4 km/h (2 Bft)
17.03.2019 23:40 1,4 °C 90 % 1013,4 hPa 0,0 mm 3,1 km/h (1 Bft) W-SW 242 ° 0 min 0,000 mm 0,0 UV-I 0 W/m² -0,1 °C 1,4 °C 4,8 km/h (1 Bft)
17.03.2019 23:41 1,4 °C 90 % 1013,3 hPa 0,0 mm 2,3 km/h (1 Bft) W-SW 242 ° 0 min 0,000 mm 0,0 UV-I 0 W/m² -0,1 °C 1,4 °C 3,2 km/h (1 Bft)
17.03.2019 23:42 1,5 °C 90 % 1013,3 hPa 0,0 mm 2,1 km/h (1 Bft) W-SW 242 ° 0 min 0,000 mm 0,0 UV-I 0 W/m² 0,0 °C 1,5 °C 3,2 km/h (1 Bft)
17.03.2019 23:43 1,5 °C 90 % 1013,4 hPa 0,0 mm 3,9 km/h (1 Bft) SW 230 ° 0 min 0,000 mm 0,0 UV-I 0 W/m² 0,0 °C 1,5 °C 6,4 km/h (2 Bft)
17.03.2019 23:44 1,5 °C 90 % 1013,4 hPa 0,0 mm 5,4 km/h (1 Bft) SW 217 ° 0 min 0,000 mm 0,0 UV-I 0 W/m² 0,0 °C -0,1 °C 9,7 km/h (2 Bft)
17.03.2019 23:45 1,6 °C 90 % 1013,3 hPa 0,0 mm 4,7 km/h (1 Bft) W-SW 239 ° 0 min 0,000 mm 0,0 UV-I 0 W/m² 0,1 °C 0,4 °C 6,4 km/h (2 Bft)
17.03.2019 23:46 1,6 °C 89 % 1013,3 hPa 0,0 mm 5,4 km/h (1 Bft) W-SW 252 ° 0 min 0,000 mm 0,0 UV-I 0 W/m² -0,0 °C 0,1 °C 6,4 km/h (2 Bft)
17.03.2019 23:47 1,6 °C 89 % 1013,4 hPa 0,0 mm 4,9 km/h (1 Bft) W-SW 252 ° 0 min 0,000 mm 0,0 UV-I 0 W/m² -0,0 °C 0,3 °C 6,4 km/h (2 Bft)
17.03.2019 23:48 1,6 °C 89 % 1013,4 hPa 0,0 mm 6,4 km/h (2 Bft) W-SW 255 ° 0 min 0,000 mm 0,0 UV-I 0 W/m² -0,0 °C -0,3 °C 9,7 km/h (2 Bft)
17.03.2019 23:49 1,6 °C 89 % 1013,4 hPa 0,0 mm 7,8 km/h (2 Bft) W-SW 257 ° 0 min 0,000 mm 0,0 UV-I 0 W/m² -0,0 °C -0,8 °C 12,9 km/h (3 Bft)
17.03.2019 23:50 1,6 °C 89 % 1013,4 hPa 0,0 mm 5,4 km/h (1 Bft) W-SW 242 ° 0 min 0,000 mm 0,0 UV-I 0 W/m² -0,0 °C 0,1 °C 8,0 km/h (2 Bft)
17.03.2019 23:51 1,6 °C 89 % 1013,4 hPa 0,0 mm 7,4 km/h (2 Bft) W-SW 241 ° 0 min 0,000 mm 0,0 UV-I 0 W/m² -0,0 °C -0,7 °C 11,3 km/h (2 Bft)
17.03.2019 23:52 1,6 °C 89 % 1013,5 hPa 0,0 mm 6,4 km/h (2 Bft) W-SW 251 ° 0 min 0,000 mm 0,0 UV-I 0 W/m² -0,0 °C -0,3 °C 11,3 km/h (2 Bft)
17.03.2019 23:53 1,6 °C 89 % 1013,6 hPa 0,0 mm 9,3 km/h (2 Bft) W-SW 252 ° 0 min 0,000 mm 0,0 UV-I 0 W/m² -0,0 °C -1,2 °C 14,5 km/h (3 Bft)
17.03.2019 23:54 1,6 °C 89 % 1013,6 hPa 0,0 mm 13,1 km/h (3 Bft) W-SW 244 ° 0 min 0,000 mm 0,0 UV-I 0 W/m² -0,0 °C -2,1 °C 19,3 km/h (3 Bft)
17.03.2019 23:55 1,6 °C 89 % 1013,6 hPa 0,0 mm 10,9 km/h (2 Bft) W-NW 288 ° 0 min 0,000 mm 0,0 UV-I 0 W/m² -0,0 °C -1,6 °C 14,5 km/h (3 Bft)
17.03.2019 23:56 1,7 °C 88 % 1013,6 hPa 0,0 mm 5,3 km/h (1 Bft) SW 217 ° 0 min 0,000 mm 0,0 UV-I 0 W/m² -0,1 °C 0,2 °C 8,0 km/h (2 Bft)
17.03.2019 23:57 1,7 °C 88 % 1013,6 hPa 0,0 mm 11,3 km/h (2 Bft) W-NW 286 ° 0 min 0,000 mm 0,0 UV-I 0 W/m² -0,1 °C -1,6 °C 16,1 km/h (3 Bft)
17.03.2019 23:58 1,6 °C 88 % 1013,6 hPa 0,0 mm 6,6 km/h (2 Bft) SW 230 ° 0 min 0,000 mm 0,0 UV-I 0 W/m² -0,2 °C -0,4 °C 11,3 km/h (2 Bft)
17.03.2019 23:59 1,6 °C 88 % 1013,7 hPa 0,0 mm 11,1 km/h (2 Bft) W-NW 297 ° 0 min 0,000 mm 0,0 UV-I 0 W/m² -0,2 °C -1,7 °C 14,5 km/h (3 Bft)
_ Min-Zeit 03:19 12:30 15:20 - 09:42 - - - - - - 09:57 21:25 09:42
Minimum _ 0,2 °C 26 % 1003,3 hPa - 0,0 km/h (0 Bft) - - - - - - -5,0 °C -4,1 °C 0,0 km/h (0 Bft)
_ Max-Zeit 12:46 21:16 23:59 21:12 18:00 - - 14:23 14:01 12:55 12:54 18:35 12:46 18:00
Maximum _ 16,8 °C 91 % 1013,7 hPa 0,2 mm 32,8 km/h
W (5 Bft)
- - 1 min 0,457 mm 4,5 UV-I 742 W/m² 3,6 °C 16,8 °C 51,5 km/h
W (7 Bft)
Durchschnitt _ 7,2 °C 59 % 1007,2 hPa #2,8 mm 8,4 km/h (2 Bft) W - #3:33 h #3,404 mm 2,7 UV-I 181 W/m² -1,4 °C 6,5 °C 13,0 km/h (3 Bft)